Wetterdaten: Montag, 24.09.2018
Datum Zeit Temp. A. Pool Temp. Temp. 5cm Feuchte A. Luftdruck Regen Wind Richtung Richtung Sonnenschein ET UV Solar Taupunkt Windchill Windben Empfang
24.09.2018 00:00 14,2 C 19,4 C 13,9 C 92 % 1012,0 hPa 0,0 l/m 22,5 km/h (4 Bft) SW 236 0 min 0,000 mm 0,0 UV-I 0 W/m 12,9 C 8,1 C 38,6 km/h (5 Bft) 100,00 %
24.09.2018 00:02 14,3 C 19,4 C 13,9 C 92 % 1012,1 hPa 0,0 l/m 24,1 km/h (4 Bft) SW 222 0 min 0,000 mm 0,0 UV-I 0 W/m 13,0 C 7,9 C 24,1 km/h (4 Bft) 100,00 %
24.09.2018 00:04 14,3 C 19,4 C 13,9 C 92 % 1012,1 hPa 0,0 l/m 21,5 km/h (4 Bft) SW 219 0 min 0,000 mm 0,0 UV-I 0 W/m 13,0 C 8,5 C 30,6 km/h (5 Bft) 100,00 %
24.09.2018 00:06 14,3 C 19,4 C 13,9 C 91 % 1012,0 hPa 0,0 l/m 24,9 km/h (4 Bft) SW 229 0 min 0,000 mm 0,0 UV-I 0 W/m 12,8 C 7,7 C 41,8 km/h (6 Bft) 100,00 %
24.09.2018 00:08 14,4 C 19,4 C 13,9 C 91 % 1012,0 hPa 0,0 l/m 21,5 km/h (4 Bft) SW 215 0 min 0,000 mm 0,0 UV-I 0 W/m 12,9 C 8,6 C 32,2 km/h (5 Bft) 100,00 %
24.09.2018 00:10 14,4 C 19,4 C 13,9 C 91 % 1012,0 hPa 0,0 l/m 23,5 km/h (4 Bft) W-SW 238 0 min 0,000 mm 0,0 UV-I 0 W/m 12,9 C 8,1 C 38,6 km/h (5 Bft) 100,00 %
24.09.2018 00:12 14,4 C 19,4 C 13,9 C 91 % 1012,1 hPa 0,0 l/m 28,2 km/h (4 Bft) SW 234 0 min 0,000 mm 0,0 UV-I 0 W/m 12,9 C 7,2 C 38,6 km/h (5 Bft) 96,23 %
24.09.2018 00:14 14,4 C 19,4 C 13,9 C 91 % 1012,0 hPa 0,0 l/m 21,7 km/h (4 Bft) SW 225 0 min 0,000 mm 0,0 UV-I 0 W/m 12,9 C 8,5 C 29,0 km/h (5 Bft) 98,00 %
24.09.2018 00:16 14,4 C 19,4 C 13,9 C 91 % 1011,8 hPa 0,0 l/m 24,0 km/h (4 Bft) S-SW 203 0 min 0,000 mm 0,0 UV-I 0 W/m 12,9 C 8,0 C 37,0 km/h (5 Bft) 95,74 %
24.09.2018 00:18 14,4 C 19,4 C 13,9 C 91 % 1011,9 hPa 0,0 l/m 21,7 km/h (4 Bft) W-SW 244 0 min 0,000 mm 0,0 UV-I 0 W/m 12,9 C 8,5 C 32,2 km/h (5 Bft) 97,87 %
24.09.2018 00:20 14,4 C 19,4 C 13,9 C 90 % 1012,0 hPa 0,0 l/m 26,2 km/h (4 Bft) W 263 0 min 0,000 mm 0,0 UV-I 0 W/m 12,8 C 7,5 C 41,8 km/h (6 Bft) 97,44 %
24.09.2018 00:22 14,4 C 19,4 C 13,3 C 90 % 1011,9 hPa 0,0 l/m 24,1 km/h (4 Bft) W 261 0 min 0,000 mm 0,0 UV-I 0 W/m 12,8 C 8,0 C 41,8 km/h (6 Bft) 95,45 %
24.09.2018 00:24 14,4 C 19,4 C 13,3 C 89 % 1012,0 hPa 0,0 l/m 23,0 km/h (4 Bft) W 271 0 min 0,000 mm 0,0 UV-I 0 W/m 12,6 C 8,2 C 30,6 km/h (5 Bft) 98,00 %
24.09.2018 00:26 14,4 C 19,4 C 13,3 C 89 % 1012,0 hPa 0,0 l/m 21,3 km/h (4 Bft) W-SW 255 0 min 0,000 mm 0,0 UV-I 0 W/m 12,6 C 8,6 C 30,6 km/h (5 Bft) 97,87 %
24.09.2018 00:28 14,4 C 19,4 C 13,3 C 89 % 1012,0 hPa 0,0 l/m 23,2 km/h (4 Bft) SW 236 0 min 0,000 mm 0,0 UV-I 0 W/m 12,6 C 8,2 C 30,6 km/h (5 Bft) 98,21 %
24.09.2018 00:30 14,4 C 19,4 C 13,3 C 89 % 1012,0 hPa 0,0 l/m 20,1 km/h (4 Bft) SW 235 0 min 0,000 mm 0,0 UV-I 0 W/m 12,6 C 8,9 C 32,2 km/h (5 Bft) 97,87 %
24.09.2018 00:32 14,3 C 19,4 C 13,3 C 89 % 1012,1 hPa 0,0 l/m 20,8 km/h (4 Bft) SW 236 0 min 0,000 mm 0,0 UV-I 0 W/m 12,5 C 8,6 C 35,4 km/h (5 Bft) 94,74 %
24.09.2018 00:34 14,3 C 19,4 C 13,3 C 90 % 1012,1 hPa 0,0 l/m 22,4 km/h (4 Bft) SW 226 0 min 0,000 mm 0,0 UV-I 0 W/m 12,7 C 8,2 C 33,8 km/h (5 Bft) 96,23 %
24.09.2018 00:36 14,3 C 19,4 C 13,3 C 90 % 1012,2 hPa 0,0 l/m 21,2 km/h (4 Bft) W-SW 257 0 min 0,000 mm 0,0 UV-I 0 W/m 12,7 C 8,5 C 27,4 km/h (4 Bft) 97,56 %
24.09.2018 00:38 14,3 C 19,4 C 13,3 C 90 % 1012,3 hPa 0,0 l/m 19,9 km/h (4 Bft) W-SW 238 0 min 0,000 mm 0,0 UV-I 0 W/m 12,7 C 8,9 C 29,0 km/h (5 Bft) 94,34 %
24.09.2018 00:40 14,2 C 19,4 C 13,3 C 90 % 1012,1 hPa 0,0 l/m 19,4 km/h (3 Bft) W-SW 243 0 min 0,000 mm 0,0 UV-I 0 W/m 12,6 C 8,9 C 32,2 km/h (5 Bft) 92,68 %
24.09.2018 00:42 14,2 C 19,4 C 13,3 C 90 % 1012,4 hPa 0,0 l/m 22,0 km/h (4 Bft) W-SW 240 0 min 0,000 mm 0,0 UV-I 0 W/m 12,6 C 8,2 C 27,4 km/h (4 Bft) 96,00 %
24.09.2018 00:44 14,2 C 19,4 C 13,3 C 90 % 1012,4 hPa 0,0 l/m 24,6 km/h (4 Bft) SW 232 0 min 0,000 mm 0,0 UV-I 0 W/m 12,6 C 7,6 C 40,2 km/h (6 Bft) 95,74 %
24.09.2018 00:46 14,2 C 19,4 C 13,3 C 90 % 1012,4 hPa 0,0 l/m 28,7 km/h (4 Bft) W-SW 248 0 min 0,000 mm 0,0 UV-I 0 W/m 12,6 C 6,8 C 40,2 km/h (6 Bft) 95,12 %
24.09.2018 00:48 14,2 C 19,4 C 13,3 C 90 % 1012,7 hPa 0,0 l/m 27,3 km/h (4 Bft) W-SW 238 0 min 0,000 mm 0,0 UV-I 0 W/m 12,6 C 7,1 C 38,6 km/h (5 Bft) 96,43 %
24.09.2018 00:50 14,2 C 19,4 C 13,3 C 90 % 1012,9 hPa 0,2 l/m 24,0 km/h (4 Bft) W-SW 240 0 min 0,000 mm 0,0 UV-I 0 W/m 12,6 C 7,7 C 37,0 km/h (5 Bft) 92,59 %
24.09.2018 00:52 14,2 C 19,4 C 13,3 C 90 % 1013,0 hPa 0,0 l/m 24,5 km/h (4 Bft) SW 225 0 min 0,000 mm 0,0 UV-I 0 W/m 12,6 C 7,6 C 38,6 km/h (5 Bft) 96,88 %
24.09.2018 00:54 14,2 C 19,4 C 13,3 C 90 % 1013,1 hPa 0,0 l/m 28,1 km/h (4 Bft) W-SW 238 0 min 0,000 mm 0,0 UV-I 0 W/m 12,6 C 6,9 C 49,9 km/h (6 Bft) 96,00 %
24.09.2018 00:56 14,2 C 19,4 C 13,3 C 90 % 1013,2 hPa 0,2 l/m 28,1 km/h (4 Bft) SW 226 0 min 0,000 mm 0,0 UV-I 0 W/m 12,6 C 6,9 C 41,8 km/h (6 Bft) 92,11 %
24.09.2018 00:58 14,2 C 19,4 C 13,3 C 90 % 1013,1 hPa 0,0 l/m 29,3 km/h (5 Bft) W-SW 239 0 min 0,000 mm 0,0 UV-I 0 W/m 12,6 C 6,7 C 45,1 km/h (6 Bft) 92,45 %
24.09.2018 01:00 14,2 C 19,4 C 13,3 C 90 % 1013,1 hPa 0,2 l/m 30,4 km/h (5 Bft) SW 229 0 min 0,025 mm 0,0 UV-I 0 W/m 12,6 C 6,5 C 49,9 km/h (6 Bft) 95,24 %
24.09.2018 01:02 14,2 C 19,4 C 13,3 C 90 % 1013,1 hPa 0,0 l/m 33,2 km/h (5 Bft) W-SW 244 0 min 0,000 mm 0,0 UV-I 0 W/m 12,6 C 6,0 C 54,7 km/h (7 Bft) 96,15 %
24.09.2018 01:04 14,1 C 19,4 C 13,3 C 90 % 1013,1 hPa 0,0 l/m 24,0 km/h (4 Bft) SW 234 0 min 0,000 mm 0,0 UV-I 0 W/m 12,5 C 7,6 C 41,8 km/h (6 Bft) 94,87 %
24.09.2018 01:06 14,1 C 19,4 C 12,8 C 90 % 1013,3 hPa 0,2 l/m 30,6 km/h (5 Bft) SW 236 0 min 0,000 mm 0,0 UV-I 0 W/m 12,5 C 6,3 C 48,3 km/h (6 Bft) 96,00 %
24.09.2018 01:08 14,1 C 19,4 C 12,8 C 90 % 1013,4 hPa 0,0 l/m 34,6 km/h (5 Bft) W-SW 255 0 min 0,000 mm 0,0 UV-I 0 W/m 12,5 C 5,7 C 64,4 km/h (8 Bft) 93,62 %
24.09.2018 01:10 14,1 C 19,4 C 12,8 C 90 % 1013,3 hPa 0,0 l/m 26,5 km/h (4 Bft) W-NW 294 0 min 0,000 mm 0,0 UV-I 0 W/m 12,5 C 7,1 C 43,5 km/h (6 Bft) 94,00 %
24.09.2018 01:12 14,0 C 19,4 C 12,8 C 90 % 1013,3 hPa 0,2 l/m 29,7 km/h (5 Bft) W-SW 244 0 min 0,000 mm 0,0 UV-I 0 W/m 12,4 C 6,3 C 46,7 km/h (6 Bft) 97,37 %
24.09.2018 01:14 14,0 C 19,4 C 12,8 C 90 % 1013,3 hPa 0,0 l/m 27,8 km/h (4 Bft) W-SW 254 0 min 0,000 mm 0,0 UV-I 0 W/m 12,4 C 6,7 C 54,7 km/h (7 Bft) 94,34 %
24.09.2018 01:16 14,0 C 19,4 C 12,8 C 90 % 1013,1 hPa 0,0 l/m 25,7 km/h (4 Bft) W-SW 244 0 min 0,000 mm 0,0 UV-I 0 W/m 12,4 C 7,1 C 38,6 km/h (5 Bft) 93,18 %
24.09.2018 01:18 13,9 C 19,4 C 12,8 C 90 % 1013,5 hPa 0,0 l/m 21,8 km/h (4 Bft) W-SW 252 0 min 0,000 mm 0,0 UV-I 0 W/m 12,3 C 7,9 C 32,2 km/h (5 Bft) 92,11 %
24.09.2018 01:20 13,9 C 19,4 C 12,8 C 90 % 1013,6 hPa 0,0 l/m 23,6 km/h (4 Bft) W-NW 293 0 min 0,000 mm 0,0 UV-I 0 W/m 12,3 C 7,4 C 32,2 km/h (5 Bft) 98,11 %
24.09.2018 01:22 13,9 C 19,4 C 12,8 C 90 % 1013,9 hPa 0,0 l/m 26,8 km/h (4 Bft) W-SW 250 0 min 0,000 mm 0,0 UV-I 0 W/m 12,3 C 6,7 C 41,8 km/h (6 Bft) 96,00 %
24.09.2018 01:24 13,9 C 19,4 C 12,8 C 91 % 1014,2 hPa 0,0 l/m 23,4 km/h (4 Bft) SW 236 0 min 0,000 mm 0,0 UV-I 0 W/m 12,5 C 7,5 C 32,2 km/h (5 Bft) 98,00 %
24.09.2018 01:26 13,9 C 19,4 C 13,3 C 91 % 1014,5 hPa 0,0 l/m 24,1 km/h (4 Bft) W 272 0 min 0,000 mm 0,0 UV-I 0 W/m 12,5 C 7,3 C 32,2 km/h (5 Bft) 97,87 %
24.09.2018 01:28 13,8 C 19,4 C 13,3 C 91 % 1014,3 hPa 0,0 l/m 29,2 km/h (5 Bft) W 262 0 min 0,000 mm 0,0 UV-I 0 W/m 12,4 C 6,1 C 46,7 km/h (6 Bft) 96,00 %
24.09.2018 01:30 13,8 C 19,4 C 12,8 C 91 % 1014,3 hPa 0,0 l/m 21,7 km/h (4 Bft) W 260 0 min 0,000 mm 0,0 UV-I 0 W/m 12,4 C 7,8 C 32,2 km/h (5 Bft) 100,00 %
24.09.2018 01:32 13,8 C 19,4 C 12,8 C 91 % 1014,4 hPa 0,0 l/m 27,0 km/h (4 Bft) W 271 0 min 0,000 mm 0,0 UV-I 0 W/m 12,4 C 6,6 C 48,3 km/h (6 Bft) 98,41 %
24.09.2018 01:34 13,8 C 19,4 C 12,8 C 90 % 1014,6 hPa 0,0 l/m 30,6 km/h (5 Bft) W 261 0 min 0,000 mm 0,0 UV-I 0 W/m 12,2 C 5,9 C 43,5 km/h (6 Bft) 98,11 %
24.09.2018 01:36 13,8 C 19,4 C 12,8 C 89 % 1014,7 hPa 0,0 l/m 27,4 km/h (4 Bft) W 267 0 min 0,000 mm 0,0 UV-I 0 W/m 12,0 C 6,5 C 41,8 km/h (6 Bft) 97,44 %
24.09.2018 01:38 13,8 C 19,4 C 12,8 C 89 % 1014,6 hPa 0,0 l/m 29,5 km/h (5 Bft) W 275 0 min 0,000 mm 0,0 UV-I 0 W/m 12,0 C 6,1 C 46,7 km/h (6 Bft) 100,00 %
24.09.2018 01:40 13,8 C 19,4 C 12,8 C 88 % 1014,7 hPa 0,0 l/m 27,3 km/h (4 Bft) W-NW 293 0 min 0,000 mm 0,0 UV-I 0 W/m 11,8 C 6,5 C 38,6 km/h (5 Bft) 100,00 %
24.09.2018 01:42 13,8 C 19,4 C 12,8 C 88 % 1015,0 hPa 0,2 l/m 35,6 km/h (5 Bft) NW 304 0 min 0,000 mm 0,0 UV-I 0 W/m 11,8 C 5,1 C 51,5 km/h (7 Bft) 100,00 %
24.09.2018 01:44 13,8 C 19,4 C 12,8 C 88 % 1015,1 hPa 0,0 l/m 32,8 km/h (5 Bft) W 259 0 min 0,000 mm 0,0 UV-I 0 W/m 11,8 C 5,5 C 51,5 km/h (7 Bft) 97,87 %
24.09.2018 01:46 13,8 C 19,4 C 12,8 C 88 % 1015,2 hPa 0,0 l/m 31,9 km/h (5 Bft) W-SW 255 0 min 0,000 mm 0,0 UV-I 0 W/m 11,8 C 5,7 C 51,5 km/h (7 Bft) 97,87 %
24.09.2018 01:48 13,7 C 19,4 C 12,8 C 88 % 1015,3 hPa 0,0 l/m 31,7 km/h (5 Bft) W-NW 290 0 min 0,000 mm 0,0 UV-I 0 W/m 11,7 C 5,6 C 49,9 km/h (6 Bft) 100,00 %
24.09.2018 01:50 13,6 C 19,4 C 12,8 C 89 % 1015,4 hPa 0,0 l/m 21,9 km/h (4 Bft) W-NW 294 0 min 0,000 mm 0,0 UV-I 0 W/m 11,8 C 7,4 C 43,5 km/h (6 Bft) 100,00 %
24.09.2018 01:52 13,6 C 19,4 C 12,2 C 88 % 1015,3 hPa 0,2 l/m 25,2 km/h (4 Bft) W-SW 252 0 min 0,000 mm 0,0 UV-I 0 W/m 11,6 C 6,7 C 48,3 km/h (6 Bft) 96,61 %
24.09.2018 01:54 13,4 C 19,4 C 12,2 C 87 % 1015,3 hPa 0,0 l/m 25,7 km/h (4 Bft) W-SW 241 0 min 0,000 mm 0,0 UV-I 0 W/m 11,3 C 6,3 C 43,5 km/h (6 Bft) 100,00 %
24.09.2018 01:56 13,3 C 19,4 C 12,2 C 87 % 1015,2 hPa 0,0 l/m 25,2 km/h (4 Bft) W 270 0 min 0,000 mm 0,0 UV-I 0 W/m 11,2 C 6,3 C 41,8 km/h (6 Bft) 100,00 %
24.09.2018 01:58 13,2 C 19,4 C 12,2 C 87 % 1015,4 hPa 0,0 l/m 24,9 km/h (4 Bft) W 262 0 min 0,000 mm 0,0 UV-I 0 W/m 11,1 C 6,2 C 45,1 km/h (6 Bft) 97,87 %
24.09.2018 02:00 13,1 C 19,4 C 11,7 C 87 % 1015,4 hPa 0,0 l/m 24,0 km/h (4 Bft) W-NW 295 0 min 0,026 mm 0,0 UV-I 0 W/m 11,0 C 6,3 C 37,0 km/h (5 Bft) 100,00 %
24.09.2018 02:02 13,1 C 19,4 C 11,7 C 86 % 1015,8 hPa 0,0 l/m 33,2 km/h (5 Bft) W-SW 248 0 min 0,000 mm 0,0 UV-I 0 W/m 10,8 C 4,5 C 54,7 km/h (7 Bft) 97,37 %
24.09.2018 02:04 13,0 C 19,4 C 11,7 C 86 % 1015,9 hPa 0,0 l/m 23,7 km/h (4 Bft) W 261 0 min 0,000 mm 0,0 UV-I 0 W/m 10,7 C 6,2 C 37,0 km/h (5 Bft) 96,23 %
24.09.2018 02:06 13,0 C 19,4 C 11,7 C 86 % 1016,0 hPa 0,0 l/m 31,1 km/h (5 Bft) W-NW 300 0 min 0,000 mm 0,0 UV-I 0 W/m 10,7 C 4,7 C 49,9 km/h (6 Bft) 97,56 %
24.09.2018 02:08 12,9 C 19,4 C 11,7 C 86 % 1016,0 hPa 0,0 l/m 20,4 km/h (4 Bft) W-SW 250 0 min 0,000 mm 0,0 UV-I 0 W/m 10,6 C 6,9 C 37,0 km/h (5 Bft) 98,00 %
24.09.2018 02:10 12,9 C 19,4 C 11,7 C 86 % 1016,2 hPa 0,0 l/m 18,9 km/h (3 Bft) N-NW 333 0 min 0,000 mm 0,0 UV-I 0 W/m 10,6 C 7,4 C 37,0 km/h (5 Bft) 98,00 %
24.09.2018 02:12 12,9 C 19,4 C 11,7 C 87 % 1016,3 hPa 0,0 l/m 20,1 km/h (4 Bft) W-SW 251 0 min 0,000 mm 0,0 UV-I 0 W/m 10,8 C 7,0 C 41,8 km/h (6 Bft) 97,87 %
24.09.2018 02:14 12,8 C 19,4 C 11,7 C 87 % 1016,6 hPa 0,0 l/m 23,3 km/h (4 Bft) W-NW 296 0 min 0,000 mm 0,0 UV-I 0 W/m 10,7 C 6,0 C 49,9 km/h (6 Bft) 97,87 %
24.09.2018 02:16 12,8 C 19,4 C 11,7 C 87 % 1016,8 hPa 0,0 l/m 23,1 km/h (4 Bft) W 273 0 min 0,000 mm 0,0 UV-I 0 W/m 10,7 C 6,1 C 37,0 km/h (5 Bft) 97,44 %
24.09.2018 02:18 12,7 C 19,4 C 11,7 C 86 % 1016,8 hPa 0,0 l/m 29,2 km/h (5 Bft) N-NW 339 0 min 0,000 mm 0,0 UV-I 0 W/m 10,4 C 4,6 C 56,3 km/h (7 Bft) 96,23 %
24.09.2018 02:20 12,5 C 19,4 C 11,1 C 84 % 1017,0 hPa 0,0 l/m 20,3 km/h (4 Bft) W 267 0 min 0,000 mm 0,0 UV-I 0 W/m 9,9 C 6,4 C 32,2 km/h (5 Bft) 98,08 %
24.09.2018 02:22 12,3 C 19,4 C 11,1 C 85 % 1017,0 hPa 0,0 l/m 26,6 km/h (4 Bft) W-NW 290 0 min 0,000 mm 0,0 UV-I 0 W/m 9,9 C 4,6 C 45,1 km/h (6 Bft) 97,44 %
24.09.2018 02:24 12,3 C 19,4 C 11,1 C 84 % 1017,2 hPa 0,0 l/m 19,2 km/h (3 Bft) W 267 0 min 0,000 mm 0,0 UV-I 0 W/m 9,7 C 6,5 C 30,6 km/h (5 Bft) 98,00 %
24.09.2018 02:26 12,2 C 19,4 C 11,1 C 85 % 1017,3 hPa 0,0 l/m 22,2 km/h (4 Bft) W 277 0 min 0,000 mm 0,0 UV-I 0 W/m 9,8 C 5,5 C 40,2 km/h (6 Bft) 98,00 %
24.09.2018 02:28 12,2 C 19,4 C 11,1 C 85 % 1017,3 hPa 0,0 l/m 18,1 km/h (3 Bft) W 281 0 min 0,000 mm 0,0 UV-I 0 W/m 9,8 C 6,7 C 29,0 km/h (5 Bft) 100,00 %
24.09.2018 02:30 12,1 C 19,4 C 11,1 C 85 % 1017,2 hPa 0,0 l/m 20,6 km/h (4 Bft) W-SW 254 0 min 0,000 mm 0,0 UV-I 0 W/m 9,7 C 5,8 C 32,2 km/h (5 Bft) 100,00 %
24.09.2018 02:32 12,1 C 18,9 C 11,1 C 84 % 1017,4 hPa 0,0 l/m 18,3 km/h (3 Bft) W 277 0 min 0,000 mm 0,0 UV-I 0 W/m 9,5 C 6,5 C 35,4 km/h (5 Bft) 97,14 %
24.09.2018 02:34 12,0 C 18,9 C 11,1 C 83 % 1017,4 hPa 0,0 l/m 20,1 km/h (4 Bft) W 260 0 min 0,000 mm 0,0 UV-I 0 W/m 9,2 C 5,8 C 32,2 km/h (5 Bft) 100,00 %
24.09.2018 02:36 11,9 C 18,9 C 10,6 C 83 % 1017,4 hPa 0,0 l/m 17,5 km/h (3 Bft) W 275 0 min 0,000 mm 0,0 UV-I 0 W/m 9,1 C 6,5 C 27,4 km/h (4 Bft) 100,00 %
24.09.2018 02:38 11,8 C 18,9 C 10,6 C 83 % 1017,5 hPa 0,0 l/m 17,8 km/h (3 Bft) W-NW 288 0 min 0,000 mm 0,0 UV-I 0 W/m 9,0 C 6,3 C 25,7 km/h (4 Bft) 100,00 %
24.09.2018 02:40 11,6 C 18,9 C 10,6 C 83 % 1017,6 hPa 0,0 l/m 14,7 km/h (3 Bft) W-NW 288 0 min 0,000 mm 0,0 UV-I 0 W/m 8,8 C 7,2 C 22,5 km/h (4 Bft) 100,00 %
24.09.2018 02:42 11,5 C 18,9 C 10,6 C 83 % 1017,7 hPa 0,0 l/m 18,9 km/h (3 Bft) W-SW 251 0 min 0,000 mm 0,0 UV-I 0 W/m 8,7 C 5,6 C 27,4 km/h (4 Bft) 100,00 %
24.09.2018 02:44 11,3 C 18,9 C 10,0 C 83 % 1017,6 hPa 0,0 l/m 20,1 km/h (4 Bft) W-SW 245 0 min 0,000 mm 0,0 UV-I 0 W/m 8,5 C 4,9 C 40,2 km/h (6 Bft) 97,37 %
24.09.2018 02:46 11,3 C 18,9 C 10,0 C 83 % 1017,6 hPa 0,0 l/m 20,2 km/h (4 Bft) W 259 0 min 0,000 mm 0,0 UV-I 0 W/m 8,5 C 4,9 C 40,2 km/h (6 Bft) 100,00 %
24.09.2018 02:48 11,2 C 18,9 C 10,0 C 83 % 1017,9 hPa 0,0 l/m 21,7 km/h (4 Bft) W-NW 296 0 min 0,000 mm 0,0 UV-I 0 W/m 8,4 C 4,3 C 32,2 km/h (5 Bft) 100,00 %
24.09.2018 02:50 11,2 C 18,9 C 10,0 C 83 % 1017,9 hPa 0,0 l/m 18,0 km/h (3 Bft) W 279 0 min 0,000 mm 0,0 UV-I 0 W/m 8,4 C 5,5 C 27,4 km/h (4 Bft) 100,00 %
24.09.2018 02:52 11,1 C 18,9 C 10,0 C 83 % 1017,8 hPa 0,0 l/m 15,9 km/h (3 Bft) W-SW 258 0 min 0,000 mm 0,0 UV-I 0 W/m 8,3 C 6,1 C 27,4 km/h (4 Bft) 100,00 %
24.09.2018 02:54 11,0 C 18,9 C 10,0 C 83 % 1017,9 hPa 0,0 l/m 15,0 km/h (3 Bft) N 355 0 min 0,000 mm 0,0 UV-I 0 W/m 8,2 C 6,3 C 24,1 km/h (4 Bft) 98,11 %
24.09.2018 02:56 10,9 C 18,9 C 10,0 C 82 % 1018,0 hPa 0,0 l/m 16,7 km/h (3 Bft) N-NW 338 0 min 0,000 mm 0,0 UV-I 0 W/m 7,9 C 5,6 C 27,4 km/h (4 Bft) 100,00 %
24.09.2018 02:58 10,9 C 18,9 C 10,0 C 82 % 1017,9 hPa 0,0 l/m 15,8 km/h (3 Bft) W 263 0 min 0,000 mm 0,0 UV-I 0 W/m 7,9 C 5,9 C 35,4 km/h (5 Bft) 97,22 %
24.09.2018 03:00 10,9 C 18,9 C 10,0 C 82 % 1018,0 hPa 0,0 l/m 17,8 km/h (3 Bft) W 280 0 min 0,051 mm 0,0 UV-I 0 W/m 7,9 C 5,2 C 25,7 km/h (4 Bft) 100,00 %
24.09.2018 03:02 10,9 C 18,9 C 10,0 C 82 % 1018,2 hPa 0,0 l/m 15,9 km/h (3 Bft) W 281 0 min 0,000 mm 0,0 UV-I 0 W/m 7,9 C 5,9 C 27,4 km/h (4 Bft) 100,00 %
24.09.2018 03:04 10,9 C 18,9 C 10,0 C 83 % 1018,3 hPa 0,0 l/m 18,8 km/h (3 Bft) W-NW 294 0 min 0,000 mm 0,0 UV-I 0 W/m 8,1 C 4,8 C 29,0 km/h (5 Bft) 100,00 %
24.09.2018 03:06 10,8 C 18,9 C 10,0 C 83 % 1018,3 hPa 0,0 l/m 15,5 km/h (3 Bft) W-SW 248 0 min 0,000 mm 0,0 UV-I 0 W/m 8,0 C 5,9 C 24,1 km/h (4 Bft) 100,00 %
24.09.2018 03:08 10,8 C 18,9 C 10,0 C 83 % 1018,2 hPa 0,0 l/m 18,3 km/h (3 Bft) W 263 0 min 0,000 mm 0,0 UV-I 0 W/m 8,0 C 4,9 C 33,8 km/h (5 Bft) 98,21 %
24.09.2018 03:10 10,8 C 18,9 C 10,0 C 82 % 1018,3 hPa 0,0 l/m 22,5 km/h (4 Bft) W 271 0 min 0,000 mm 0,0 UV-I 0 W/m 7,9 C 3,6 C 45,1 km/h (6 Bft) 97,56 %
24.09.2018 03:12 10,8 C 18,9 C 10,0 C 83 % 1018,4 hPa 0,0 l/m 18,3 km/h (3 Bft) SW 223 0 min 0,000 mm 0,0 UV-I 0 W/m 8,0 C 4,9 C 29,0 km/h (5 Bft) 96,23 %
24.09.2018 03:14 10,8 C 18,9 C 10,0 C 83 % 1018,6 hPa 0,0 l/m 17,1 km/h (3 Bft) W-NW 297 0 min 0,000 mm 0,0 UV-I 0 W/m 8,0 C 5,3 C 30,6 km/h (5 Bft) 97,56 %
24.09.2018 03:16 10,7 C 18,9 C 10,0 C 83 % 1018,5 hPa 0,0 l/m 15,2 km/h (3 Bft) W-NW 284 0 min 0,000 mm 0,0 UV-I 0 W/m 7,9 C 5,9 C 32,2 km/h (5 Bft) 98,11 %
24.09.2018 03:18 10,7 C 18,9 C 10,0 C 83 % 1018,6 hPa 0,0 l/m 17,8 km/h (3 Bft) W 262 0 min 0,000 mm 0,0 UV-I 0 W/m 7,9 C 4,9 C 29,0 km/h (5 Bft) 97,87 %
24.09.2018 03:20 10,7 C 18,9 C 10,0 C 83 % 1018,8 hPa 0,0 l/m 20,1 km/h (4 Bft) W-NW 302 0 min 0,000 mm 0,0 UV-I 0 W/m 7,9 C 4,2 C 30,6 km/h (5 Bft) 97,37 %
24.09.2018 03:22 10,6 C 18,9 C 10,0 C 83 % 1018,8 hPa 0,0 l/m 17,8 km/h (3 Bft) W-SW 246 0 min 0,000 mm 0,0 UV-I 0 W/m 7,8 C 4,8 C 30,6 km/h (5 Bft) 98,11 %
24.09.2018 03:24 10,6 C 18,9 C 10,0 C 83 % 1018,6 hPa 0,0 l/m 23,4 km/h (4 Bft) W-NW 285 0 min 0,000 mm 0,0 UV-I 0 W/m 7,8 C 3,1 C 46,7 km/h (6 Bft) 95,45 %
24.09.2018 03:26 10,6 C 18,9 C 10,0 C 83 % 1018,6 hPa 0,0 l/m 21,6 km/h (4 Bft) W 261 0 min 0,000 mm 0,0 UV-I 0 W/m 7,8 C 3,6 C 32,2 km/h (5 Bft) 97,73 %
24.09.2018 03:28 10,6 C 18,9 C 10,0 C 83 % 1018,6 hPa 0,0 l/m 15,2 km/h (3 Bft) W 262 0 min 0,000 mm 0,0 UV-I 0 W/m 7,8 C 5,8 C 27,4 km/h (4 Bft) 95,56 %
24.09.2018 03:30 10,5 C 18,9 C 10,0 C 84 % 1018,7 hPa 0,0 l/m 16,8 km/h (3 Bft) W-NW 294 0 min 0,000 mm 0,0 UV-I 0 W/m 7,9 C 5,0 C 27,4 km/h (4 Bft) 94,23 %
24.09.2018 03:32 10,5 C 18,9 C 10,0 C 84 % 1018,6 hPa 0,0 l/m 13,8 km/h (3 Bft) SW 235 0 min 0,000 mm 0,0 UV-I 0 W/m 7,9 C 6,3 C 24,1 km/h (4 Bft) 96,23 %
24.09.2018 03:34 10,4 C 18,9 C 10,0 C 84 % 1018,7 hPa 0,0 l/m 16,0 km/h (3 Bft) NW 312 0 min 0,000 mm 0,0 UV-I 0 W/m 7,8 C 5,2 C 33,8 km/h (5 Bft) 94,44 %
24.09.2018 03:36 10,4 C 18,9 C 10,0 C 84 % 1018,6 hPa 0,0 l/m 15,7 km/h (3 Bft) NW 315 0 min 0,000 mm 0,0 UV-I 0 W/m 7,8 C 5,3 C 35,4 km/h (5 Bft) 94,64 %
24.09.2018 03:38 10,4 C 18,9 C 10,0 C 84 % 1018,6 hPa 0,0 l/m 17,7 km/h (3 Bft) W-SW 237 0 min 0,000 mm 0,0 UV-I 0 W/m 7,8 C 4,6 C 37,0 km/h (5 Bft) 95,12 %
24.09.2018 03:40 10,4 C 18,9 C 10,0 C 84 % 1018,7 hPa 0,0 l/m 15,2 km/h (3 Bft) W-SW 245 0 min 0,000 mm 0,0 UV-I 0 W/m 7,8 C 5,5 C 25,7 km/h (4 Bft) 95,74 %
24.09.2018 03:42 10,4 C 18,9 C 10,0 C 84 % 1018,7 hPa 0,0 l/m 17,9 km/h (3 Bft) SW 227 0 min 0,000 mm 0,0 UV-I 0 W/m 7,8 C 4,5 C 29,0 km/h (5 Bft) 94,00 %
24.09.2018 03:44 10,4 C 18,9 C 10,0 C 85 % 1018,7 hPa 0,0 l/m 15,0 km/h (3 Bft) W 275 0 min 0,000 mm 0,0 UV-I 0 W/m 8,0 C 5,6 C 27,4 km/h (4 Bft) 95,12 %
24.09.2018 03:46 10,3 C 18,9 C 10,0 C 85 % 1018,6 hPa 0,0 l/m 13,7 km/h (3 Bft) W-SW 253 0 min 0,000 mm 0,0 UV-I 0 W/m 7,9 C 6,1 C 22,5 km/h (4 Bft) 95,74 %
24.09.2018 03:48 10,3 C 18,9 C 10,0 C 85 % 1018,8 hPa 0,0 l/m 10,0 km/h (2 Bft) W-NW 290 0 min 0,000 mm 0,0 UV-I 0 W/m 7,9 C 7,9 C 19,3 km/h (3 Bft) 96,00 %
24.09.2018 03:50 10,3 C 18,9 C 10,0 C 85 % 1018,8 hPa 0,0 l/m 11,5 km/h (2 Bft) W-NW 284 0 min 0,000 mm 0,0 UV-I 0 W/m 7,9 C 7,1 C 17,7 km/h (3 Bft) 97,73 %
24.09.2018 03:52 10,3 C 18,9 C 10,0 C 86 % 1018,8 hPa 0,0 l/m 13,2 km/h (3 Bft) W 264 0 min 0,000 mm 0,0 UV-I 0 W/m 8,1 C 6,3 C 32,2 km/h (5 Bft) 98,00 %
24.09.2018 03:55 10,2 C 18,9 C 9,4 C 85 % 1018,9 hPa 0,0 l/m 12,0 km/h (2 Bft) W 273 0 min 0,000 mm 0,0 UV-I 0 W/m 7,8 C 6,7 C 29,0 km/h (5 Bft) 98,75 %
24.09.2018 03:56 10,2 C 18,9 C 9,4 C 85 % 1018,9 hPa 0,0 l/m 12,6 km/h (3 Bft) W-SW 258 0 min 0,000 mm 0,0 UV-I 0 W/m 7,8 C 6,5 C 19,3 km/h (3 Bft) 100,00 %
24.09.2018 03:58 10,2 C 18,9 C 9,4 C 85 % 1018,9 hPa 0,0 l/m 11,3 km/h (2 Bft) W-NW 290 0 min 0,000 mm 0,0 UV-I 0 W/m 7,8 C 7,1 C 20,9 km/h (4 Bft) 96,43 %
24.09.2018 04:00 10,2 C 18,9 C 9,4 C 85 % 1019,0 hPa 0,0 l/m 11,7 km/h (2 Bft) NW 306 0 min 0,025 mm 0,0 UV-I 0 W/m 7,8 C 6,9 C 25,7 km/h (4 Bft) 97,14 %
24.09.2018 04:02 10,1 C 18,9 C 9,4 C 86 % 1019,0 hPa 0,0 l/m 14,0 km/h (3 Bft) W-SW 250 0 min 0,000 mm 0,0 UV-I 0 W/m 7,9 C 5,7 C 27,4 km/h (4 Bft) 100,00 %
24.09.2018 04:04 10,1 C 18,9 C 9,4 C 86 % 1018,9 hPa 0,0 l/m 19,8 km/h (3 Bft) W-SW 254 0 min 0,000 mm 0,0 UV-I 0 W/m 7,9 C 3,5 C 33,8 km/h (5 Bft) 97,73 %
24.09.2018 04:06 10,0 C 18,9 C 9,4 C 86 % 1019,0 hPa 0,0 l/m 16,6 km/h (3 Bft) W 269 0 min 0,000 mm 0,0 UV-I 0 W/m 7,8 C 4,5 C 25,7 km/h (4 Bft) 98,00 %
24.09.2018 04:08 10,0 C 18,9 C 9,4 C 86 % 1019,0 hPa 0,0 l/m 17,7 km/h (3 Bft) W-NW 289 0 min 0,000 mm 0,0 UV-I 0 W/m 7,8 C 4,1 C 29,0 km/h (5 Bft) 96,30 %
24.09.2018 04:10 10,0 C 18,9 C 9,4 C 86 % 1019,1 hPa 0,0 l/m 15,2 km/h (3 Bft) NW 313 0 min 0,000 mm 0,0 UV-I 0 W/m 7,8 C 5,1 C 29,0 km/h (5 Bft) 95,52 %
24.09.2018 04:12 9,9 C 18,9 C 9,4 C 86 % 1019,1 hPa 0,0 l/m 13,1 km/h (3 Bft) W-SW 248 0 min 0,000 mm 0,0 UV-I 0 W/m 7,7 C 5,9 C 22,5 km/h (4 Bft) 97,62 %
24.09.2018 04:14 9,9 C 18,9 C 9,4 C 87 % 1019,2 hPa 0,0 l/m 9,2 km/h (2 Bft) W 263 0 min 0,000 mm 0,0 UV-I 0 W/m 7,8 C 8,0 C 14,5 km/h (3 Bft) 98,00 %
24.09.2018 04:16 9,9 C 18,9 C 9,4 C 87 % 1019,3 hPa 0,0 l/m 12,6 km/h (3 Bft) W-NW 294 0 min 0,000 mm 0,0 UV-I 0 W/m 7,8 C 6,1 C 22,5 km/h (4 Bft) 97,73 %
24.09.2018 04:18 9,9 C 18,9 C 9,4 C 87 % 1019,1 hPa 0,0 l/m 14,6 km/h (3 Bft) NW 325 0 min 0,000 mm 0,0 UV-I 0 W/m 7,8 C 5,2 C 24,1 km/h (4 Bft) 95,74 %
24.09.2018 04:20 9,9 C 18,9 C 9,4 C 87 % 1019,2 hPa 0,0 l/m 10,3 km/h (2 Bft) W 268 0 min 0,000 mm 0,0 UV-I 0 W/m 7,8 C 7,3 C 16,1 km/h (3 Bft) 97,87 %
24.09.2018 04:22 9,8 C 18,9 C 9,4 C 87 % 1019,1 hPa 0,0 l/m 13,4 km/h (3 Bft) NW 306 0 min 0,000 mm 0,0 UV-I 0 W/m 7,7 C 5,6 C 25,7 km/h (4 Bft) 96,00 %
24.09.2018 04:24 9,8 C 18,9 C 9,4 C 87 % 1019,3 hPa 0,0 l/m 14,7 km/h (3 Bft) W-SW 254 0 min 0,000 mm 0,0 UV-I 0 W/m 7,7 C 5,0 C 25,7 km/h (4 Bft) 96,00 %
24.09.2018 04:26 9,8 C 18,9 C 9,4 C 87 % 1019,3 hPa 0,0 l/m 15,8 km/h (3 Bft) W-SW 256 0 min 0,000 mm 0,0 UV-I 0 W/m 7,7 C 4,6 C 27,4 km/h (4 Bft) 97,37 %
24.09.2018 04:28 9,8 C 18,9 C 9,4 C 88 % 1019,3 hPa 0,0 l/m 11,9 km/h (2 Bft) W-SW 246 0 min 0,000 mm 0,0 UV-I 0 W/m 7,9 C 6,3 C 20,9 km/h (4 Bft) 96,00 %
24.09.2018 04:30 9,8 C 18,9 C 9,4 C 87 % 1019,3 hPa 0,0 l/m 17,7 km/h (3 Bft) W-NW 294 0 min 0,000 mm 0,0 UV-I 0 W/m 7,7 C 3,8 C 30,6 km/h (5 Bft) 94,00 %
24.09.2018 04:32 9,8 C 18,9 C 9,4 C 87 % 1019,3 hPa 0,0 l/m 17,5 km/h (3 Bft) W-NW 295 0 min 0,000 mm 0,0 UV-I 0 W/m 7,7 C 3,9 C 30,6 km/h (5 Bft) 97,87 %
24.09.2018 04:34 9,7 C 18,9 C 9,4 C 86 % 1019,3 hPa 0,0 l/m 14,4 km/h (3 Bft) W-SW 252 0 min 0,000 mm 0,0 UV-I 0 W/m 7,5 C 5,0 C 22,5 km/h (4 Bft) 92,00 %
24.09.2018 04:36 9,7 C 18,9 C 9,4 C 86 % 1019,4 hPa 0,0 l/m 14,4 km/h (3 Bft) W-SW 258 0 min 0,000 mm 0,0 UV-I 0 W/m 7,5 C 5,0 C 20,9 km/h (4 Bft) 97,56 %
24.09.2018 04:38 9,7 C 18,9 C 9,4 C 86 % 1019,5 hPa 0,0 l/m 16,4 km/h (3 Bft) W 270 0 min 0,000 mm 0,0 UV-I 0 W/m 7,5 C 4,2 C 25,7 km/h (4 Bft) 97,87 %
24.09.2018 04:40 9,7 C 18,9 C 9,4 C 86 % 1019,5 hPa 0,0 l/m 17,7 km/h (3 Bft) W 263 0 min 0,000 mm 0,0 UV-I 0 W/m 7,5 C 3,7 C 35,4 km/h (5 Bft) 96,00 %
24.09.2018 04:42 9,7 C 18,9 C 8,9 C 85 % 1019,5 hPa 0,0 l/m 11,3 km/h (2 Bft) W 271 0 min 0,000 mm 0,0 UV-I 0 W/m 7,3 C 6,5 C 19,3 km/h (3 Bft) 97,56 %
24.09.2018 04:44 9,7 C 18,9 C 8,9 C 85 % 1019,6 hPa 0,0 l/m 9,9 km/h (2 Bft) W-NW 286 0 min 0,000 mm 0,0 UV-I 0 W/m 7,3 C 7,3 C 16,1 km/h (3 Bft) 98,11 %
24.09.2018 04:46 9,6 C 18,9 C 8,9 C 85 % 1019,6 hPa 0,0 l/m 17,3 km/h (3 Bft) W 275 0 min 0,000 mm 0,0 UV-I 0 W/m 7,2 C 3,7 C 30,6 km/h (5 Bft) 97,44 %
24.09.2018 04:48 9,6 C 18,9 C 8,9 C 85 % 1019,5 hPa 0,0 l/m 13,4 km/h (3 Bft) W 273 0 min 0,000 mm 0,0 UV-I 0 W/m 7,2 C 5,4 C 19,3 km/h (3 Bft) 96,00 %
24.09.2018 04:50 9,5 C 18,9 C 8,9 C 85 % 1019,5 hPa 0,0 l/m 13,4 km/h (3 Bft) W 272 0 min 0,000 mm 0,0 UV-I 0 W/m 7,1 C 5,2 C 22,5 km/h (4 Bft) 97,37 %
24.09.2018 04:52 9,5 C 18,9 C 8,9 C 85 % 1019,6 hPa 0,0 l/m 16,4 km/h (3 Bft) W 280 0 min 0,000 mm 0,0 UV-I 0 W/m 7,1 C 3,9 C 32,2 km/h (5 Bft) 96,77 %
24.09.2018 04:54 9,5 C 18,9 C 8,9 C 85 % 1019,6 hPa 0,0 l/m 15,4 km/h (3 Bft) W-SW 242 0 min 0,000 mm 0,0 UV-I 0 W/m 7,1 C 4,4 C 30,6 km/h (5 Bft) 93,62 %
24.09.2018 04:56 9,5 C 18,9 C 8,9 C 85 % 1019,7 hPa 0,0 l/m 15,0 km/h (3 Bft) N-NW 342 0 min 0,000 mm 0,0 UV-I 0 W/m 7,1 C 4,5 C 22,5 km/h (4 Bft) 97,37 %
24.09.2018 04:58 9,4 C 18,9 C 8,9 C 85 % 1019,7 hPa 0,0 l/m 12,6 km/h (3 Bft) W 259 0 min 0,000 mm 0,0 UV-I 0 W/m 7,0 C 5,5 C 27,4 km/h (4 Bft) 97,56 %
24.09.2018 05:01 9,4 C 18,9 C 8,9 C 85 % 1019,8 hPa 0,0 l/m 9,4 km/h (2 Bft) W 266 0 min 0,025 mm 0,0 UV-I 0 W/m 7,0 C 7,3 C 19,3 km/h (3 Bft) 97,56 %
24.09.2018 05:02 9,4 C 18,9 C 8,9 C 85 % 1019,8 hPa 0,0 l/m 9,3 km/h (2 Bft) W 279 0 min 0,000 mm 0,0 UV-I 0 W/m 7,0 C 7,4 C 16,1 km/h (3 Bft) 100,00 %
24.09.2018 05:04 9,4 C 18,9 C 8,9 C 85 % 1019,8 hPa 0,0 l/m 13,6 km/h (3 Bft) W-NW 295 0 min 0,000 mm 0,0 UV-I 0 W/m 7,0 C 5,0 C 20,9 km/h (4 Bft) 97,37 %
24.09.2018 05:06 9,4 C 18,9 C 8,9 C 85 % 1019,9 hPa 0,0 l/m 12,9 km/h (3 Bft) W 281 0 min 0,000 mm 0,0 UV-I 0 W/m 7,0 C 5,4 C 20,9 km/h (4 Bft) 97,87 %
24.09.2018 05:08 9,4 C 18,9 C 8,9 C 86 % 1020,0 hPa 0,0 l/m 10,9 km/h (2 Bft) W 261 0 min 0,000 mm 0,0 UV-I 0 W/m 7,2 C 6,4 C 17,7 km/h (3 Bft) 96,23 %
24.09.2018 05:10 9,4 C 18,9 C 8,9 C 85 % 1020,0 hPa 0,0 l/m 11,5 km/h (2 Bft) W 271 0 min 0,000 mm 0,0 UV-I 0 W/m 7,0 C 6,1 C 17,7 km/h (3 Bft) 97,14 %
24.09.2018 05:12 9,4 C 18,9 C 8,9 C 86 % 1020,1 hPa 0,0 l/m 9,5 km/h (2 Bft) NW 306 0 min 0,000 mm 0,0 UV-I 0 W/m 7,2 C 7,2 C 17,7 km/h (3 Bft) 98,31 %
24.09.2018 05:14 9,4 C 18,9 C 8,9 C 86 % 1020,2 hPa 0,0 l/m 14,1 km/h (3 Bft) W-SW 242 0 min 0,000 mm 0,0 UV-I 0 W/m 7,2 C 4,8 C 25,7 km/h (4 Bft) 95,12 %
24.09.2018 05:16 9,4 C 18,9 C 8,9 C 86 % 1020,1 hPa 0,0 l/m 11,2 km/h (2 Bft) W 261 0 min 0,000 mm 0,0 UV-I 0 W/m 7,2 C 6,2 C 17,7 km/h (3 Bft) 94,00 %
24.09.2018 05:18 9,3 C 18,9 C 8,9 C 86 % 1020,2 hPa 0,0 l/m 11,3 km/h (2 Bft) W 270 0 min 0,000 mm 0,0 UV-I 0 W/m 7,1 C 6,1 C 17,7 km/h (3 Bft) 94,34 %
24.09.2018 05:20 9,3 C 18,9 C 8,9 C 86 % 1020,3 hPa 0,0 l/m 10,4 km/h (2 Bft) NW 317 0 min 0,000 mm 0,0 UV-I 0 W/m 7,1 C 6,6 C 16,1 km/h (3 Bft) 95,12 %
24.09.2018 05:22 9,3 C 18,9 C 8,9 C 87 % 1020,3 hPa 0,0 l/m 10,4 km/h (2 Bft) N-NW 342 0 min 0,000 mm 0,0 UV-I 0 W/m 7,2 C 6,6 C 17,7 km/h (3 Bft) 97,73 %
24.09.2018 05:24 9,3 C 18,9 C 8,9 C 87 % 1020,4 hPa 0,0 l/m 13,8 km/h (3 Bft) W-SW 257 0 min 0,000 mm 0,0 UV-I 0 W/m 7,2 C 4,8 C 22,5 km/h (4 Bft) 98,11 %
24.09.2018 05:26 9,3 C 18,9 C 8,9 C 86 % 1020,4 hPa 0,0 l/m 21,0 km/h (4 Bft) W-NW 302 0 min 0,000 mm 0,0 UV-I 0 W/m 7,1 C 2,1 C 35,4 km/h (5 Bft) 97,44 %
24.09.2018 05:28 9,3 C 18,9 C 8,9 C 86 % 1020,5 hPa 0,0 l/m 15,7 km/h (3 Bft) W 266 0 min 0,000 mm 0,0 UV-I 0 W/m 7,1 C 4,0 C 25,7 km/h (4 Bft) 98,11 %
24.09.2018 05:30 9,4 C 18,9 C 8,9 C 87 % 1020,6 hPa 0,0 l/m 12,1 km/h (2 Bft) W-SW 246 0 min 0,000 mm 0,0 UV-I 0 W/m 7,3 C 5,8 C 16,1 km/h (3 Bft) 97,87 %
24.09.2018 05:32 9,4 C 18,9 C 8,9 C 86 % 1020,5 hPa 0,0 l/m 10,2 km/h (2 Bft) W-SW 249 0 min 0,000 mm 0,0 UV-I 0 W/m 7,2 C 6,8 C 17,7 km/h (3 Bft) 97,56 %
24.09.2018 05:34 9,4 C 18,9 C 8,9 C 87 % 1020,6 hPa 0,0 l/m 7,6 km/h (2 Bft) W-SW 242 0 min 0,000 mm 0,0 UV-I 0 W/m 7,3 C 8,5 C 14,5 km/h (3 Bft) 96,23 %
24.09.2018 05:36 9,4 C 18,9 C 8,9 C 87 % 1020,7 hPa 0,0 l/m 8,4 km/h (2 Bft) W 260 0 min 0,000 mm 0,0 UV-I 0 W/m 7,3 C 7,9 C 14,5 km/h (3 Bft) 98,00 %
24.09.2018 05:38 9,3 C 18,9 C 8,9 C 87 % 1020,8 hPa 0,0 l/m 15,5 km/h (3 Bft) NW 306 0 min 0,000 mm 0,0 UV-I 0 W/m 7,2 C 4,1 C 22,5 km/h (4 Bft) 97,14 %
24.09.2018 05:40 9,3 C 18,9 C 8,9 C 87 % 1020,8 hPa 0,0 l/m 12,7 km/h (3 Bft) W 269 0 min 0,000 mm 0,0 UV-I 0 W/m 7,2 C 5,4 C 20,9 km/h (4 Bft) 98,00 %
24.09.2018 05:42 9,3 C 18,9 C 8,9 C 87 % 1020,8 hPa 0,0 l/m 13,3 km/h (3 Bft) W-SW 241 0 min 0,000 mm 0,0 UV-I 0 W/m 7,2 C 5,1 C 24,1 km/h (4 Bft) 98,00 %
24.09.2018 05:44 9,3 C 18,9 C 8,9 C 87 % 1020,9 hPa 0,0 l/m 10,3 km/h (2 Bft) W-SW 253 0 min 0,000 mm 0,0 UV-I 0 W/m 7,2 C 6,6 C 17,7 km/h (3 Bft) 98,11 %
24.09.2018 05:46 9,3 C 18,9 C 8,9 C 87 % 1021,0 hPa 0,0 l/m 15,1 km/h (3 Bft) W 266 0 min 0,000 mm 0,0 UV-I 0 W/m 7,2 C 4,2 C 25,7 km/h (4 Bft) 97,37 %
24.09.2018 05:48 9,3 C 18,9 C 8,9 C 87 % 1021,0 hPa 0,0 l/m 9,0 km/h (2 Bft) W 281 0 min 0,000 mm 0,0 UV-I 0 W/m 7,2 C 7,4 C 20,9 km/h (4 Bft) 96,00 %
24.09.2018 05:50 9,3 C 18,9 C 8,9 C 87 % 1021,0 hPa 0,0 l/m 12,3 km/h (3 Bft) W-NW 290 0 min 0,000 mm 0,0 UV-I 0 W/m 7,2 C 5,6 C 17,7 km/h (3 Bft) 100,00 %
24.09.2018 05:52 9,3 C 18,9 C 8,9 C 87 % 1021,0 hPa 0,0 l/m 12,4 km/h (3 Bft) W-NW 285 0 min 0,000 mm 0,0 UV-I 0 W/m 7,2 C 5,5 C 22,5 km/h (4 Bft) 100,00 %
24.09.2018 05:54 9,3 C 18,9 C 8,9 C 86 % 1021,1 hPa 0,0 l/m 15,0 km/h (3 Bft) NW 310 0 min 0,000 mm 0,0 UV-I 0 W/m 7,1 C 4,3 C 24,1 km/h (4 Bft) 100,00 %
24.09.2018 05:56 9,3 C 18,9 C 8,9 C 86 % 1021,1 hPa 0,0 l/m 13,8 km/h (3 Bft) W-NW 284 0 min 0,000 mm 0,0 UV-I 0 W/m 7,1 C 4,8 C 20,9 km/h (4 Bft) 100,00 %
24.09.2018 05:58 9,3 C 18,9 C 8,9 C 86 % 1021,1 hPa 0,0 l/m 12,6 km/h (3 Bft) W 265 0 min 0,000 mm 0,0 UV-I 0 W/m 7,1 C 5,4 C 22,5 km/h (4 Bft) 100,00 %
24.09.2018 06:00 9,3 C 18,9 C 8,9 C 86 % 1021,2 hPa 0,0 l/m 9,4 km/h (2 Bft) W 269 0 min 0,000 mm 0,0 UV-I 0 W/m 7,1 C 7,2 C 12,9 km/h (3 Bft) 100,00 %
24.09.2018 06:02 9,3 C 18,9 C 8,9 C 86 % 1021,1 hPa 0,0 l/m 12,6 km/h (3 Bft) W-SW 249 0 min 0,026 mm 0,0 UV-I 0 W/m 7,1 C 5,4 C 19,3 km/h (3 Bft) 100,00 %
24.09.2018 06:04 9,3 C 18,9 C 8,9 C 86 % 1021,1 hPa 0,0 l/m 15,5 km/h (3 Bft) W-SW 248 0 min 0,000 mm 0,0 UV-I 0 W/m 7,1 C 4,1 C 25,7 km/h (4 Bft) 100,00 %
24.09.2018 06:06 9,3 C 18,9 C 8,9 C 86 % 1021,2 hPa 0,0 l/m 12,3 km/h (3 Bft) W-SW 254 0 min 0,000 mm 0,0 UV-I 0 W/m 7,1 C 5,6 C 19,3 km/h (3 Bft) 100,00 %
24.09.2018 06:08 9,3 C 18,9 C 8,9 C 86 % 1021,1 hPa 0,0 l/m 17,2 km/h (3 Bft) W-NW 292 0 min 0,000 mm 0,0 UV-I 0 W/m 7,1 C 3,4 C 24,1 km/h (4 Bft) 100,00 %
24.09.2018 06:10 9,3 C 18,9 C 8,9 C 86 % 1021,2 hPa 0,0 l/m 12,2 km/h (2 Bft) W 261 0 min 0,000 mm 0,0 UV-I 0 W/m 7,1 C 5,6 C 25,7 km/h (4 Bft) 100,00 %
24.09.2018 06:12 9,3 C 18,9 C 8,9 C 85 % 1021,3 hPa 0,0 l/m 13,8 km/h (3 Bft) W-NW 296 0 min 0,000 mm 0,0 UV-I 0 W/m 6,9 C 4,8 C 22,5 km/h (4 Bft) 100,00 %
24.09.2018 06:14 9,3 C 18,9 C 8,9 C 85 % 1021,2 hPa 0,0 l/m 16,3 km/h (3 Bft) W-NW 302 0 min 0,000 mm 0,0 UV-I 0 W/m 6,9 C 3,7 C 25,7 km/h (4 Bft) 100,00 %
24.09.2018 06:16 9,3 C 18,9 C 8,9 C 85 % 1021,3 hPa 0,0 l/m 14,0 km/h (3 Bft) W 259 0 min 0,000 mm 0,0 UV-I 0 W/m 6,9 C 4,7 C 20,9 km/h (4 Bft) 98,00 %
24.09.2018 06:18 9,2 C 18,9 C 8,3 C 85 % 1021,4 hPa 0,0 l/m 14,9 km/h (3 Bft) W 259 0 min 0,000 mm 0,0 UV-I 0 W/m 6,8 C 4,2 C 22,5 km/h (4 Bft) 97,87 %
24.09.2018 06:20 9,2 C 18,9 C 8,3 C 84 % 1021,5 hPa 0,0 l/m 14,1 km/h (3 Bft) W-SW 257 0 min 0,000 mm 0,0 UV-I 0 W/m 6,6 C 4,6 C 24,1 km/h (4 Bft) 97,87 %
24.09.2018 06:22 9,2 C 18,9 C 8,3 C 84 % 1021,6 hPa 0,0 l/m 17,7 km/h (3 Bft) W 259 0 min 0,000 mm 0,0 UV-I 0 W/m 6,6 C 3,1 C 24,1 km/h (4 Bft) 98,00 %
24.09.2018 06:24 9,2 C 18,9 C 8,9 C 84 % 1021,6 hPa 0,0 l/m 15,6 km/h (3 Bft) W-SW 244 0 min 0,000 mm 0,0 UV-I 0 W/m 6,6 C 3,9 C 27,4 km/h (4 Bft) 97,87 %
24.09.2018 06:26 9,2 C 18,9 C 8,9 C 84 % 1021,6 hPa 0,0 l/m 14,3 km/h (3 Bft) W-SW 256 0 min 0,000 mm 0,0 UV-I 0 W/m 6,6 C 4,5 C 24,1 km/h (4 Bft) 97,14 %
24.09.2018 06:28 9,2 C 18,9 C 8,9 C 84 % 1021,7 hPa 0,0 l/m 12,9 km/h (3 Bft) W 267 0 min 0,000 mm 0,0 UV-I 0 W/m 6,6 C 5,1 C 19,3 km/h (3 Bft) 98,00 %
24.09.2018 06:30 9,2 C 18,9 C 8,9 C 84 % 1021,8 hPa 0,0 l/m 13,0 km/h (3 Bft) W-NW 302 0 min 0,000 mm 0,0 UV-I 0 W/m 6,6 C 5,1 C 19,3 km/h (3 Bft) 98,00 %
24.09.2018 06:32 9,2 C 18,9 C 8,9 C 84 % 1021,7 hPa 0,0 l/m 14,9 km/h (3 Bft) W 271 0 min 0,000 mm 0,0 UV-I 0 W/m 6,6 C 4,2 C 25,7 km/h (4 Bft) 97,87 %
24.09.2018 06:34 9,2 C 18,9 C 8,3 C 84 % 1021,7 hPa 0,0 l/m 14,6 km/h (3 Bft) W 273 0 min 0,000 mm 0,0 UV-I 0 W/m 6,6 C 4,3 C 22,5 km/h (4 Bft) 97,87 %
24.09.2018 06:36 9,1 C 18,9 C 8,3 C 84 % 1021,8 hPa 0,0 l/m 17,5 km/h (3 Bft) W-NW 284 0 min 0,000 mm 0,0 UV-I 0 W/m 6,5 C 3,0 C 25,7 km/h (4 Bft) 94,87 %
24.09.2018 06:38 9,1 C 18,9 C 8,3 C 84 % 1021,8 hPa 0,0 l/m 15,4 km/h (3 Bft) W 267 0 min 0,000 mm 0,0 UV-I 0 W/m 6,5 C 3,9 C 24,1 km/h (4 Bft) 94,64 %
24.09.2018 06:40 9,1 C 18,9 C 8,3 C 84 % 1021,9 hPa 0,0 l/m 20,1 km/h (4 Bft) W-SW 245 0 min 0,000 mm 0,0 UV-I 0 W/m 6,5 C 2,1 C 32,2 km/h (5 Bft) 100,00 %
24.09.2018 06:42 9,0 C 18,9 C 8,3 C 84 % 1022,0 hPa 0,0 l/m 15,6 km/h (3 Bft) W 259 0 min 0,000 mm 0,0 UV-I 0 W/m 6,4 C 3,7 C 25,7 km/h (4 Bft) 100,00 %
24.09.2018 06:44 9,0 C 18,9 C 8,3 C 84 % 1022,0 hPa 0,0 l/m 15,6 km/h (3 Bft) W 264 0 min 0,000 mm 0,0 UV-I 0 W/m 6,4 C 3,7 C 22,5 km/h (4 Bft) 100,00 %
24.09.2018 06:46 9,0 C 18,9 C 8,3 C 84 % 1022,1 hPa 0,0 l/m 13,6 km/h (3 Bft) W-NW 282 0 min 0,000 mm 0,0 UV-I 0 W/m 6,4 C 4,6 C 24,1 km/h (4 Bft) 98,00 %
24.09.2018 06:48 8,9 C 18,9 C 8,9 C 83 % 1022,2 hPa 0,0 l/m 15,6 km/h (3 Bft) W 266 0 min 0,000 mm 0,0 UV-I 0 W/m 6,2 C 3,5 C 22,5 km/h (4 Bft) 95,12 %
24.09.2018 06:50 8,9 C 18,9 C 8,9 C 83 % 1022,3 hPa 0,0 l/m 15,3 km/h (3 Bft) W 259 0 min 0,000 mm 0,0 UV-I 0 W/m 6,2 C 3,7 C 24,1 km/h (4 Bft) 100,00 %
24.09.2018 06:52 8,9 C 18,9 C 8,9 C 83 % 1022,3 hPa 0,0 l/m 15,5 km/h (3 Bft) W-SW 243 0 min 0,000 mm 0,0 UV-I 2 W/m 6,2 C 3,6 C 27,4 km/h (4 Bft) 97,56 %
24.09.2018 06:54 8,9 C 18,9 C 8,9 C 83 % 1022,4 hPa 0,0 l/m 18,7 km/h (3 Bft) W-SW 257 0 min 0,000 mm 0,0 UV-I 5 W/m 6,2 C 2,3 C 29,0 km/h (5 Bft) 100,00 %
24.09.2018 06:56 8,9 C 18,9 C 8,9 C 83 % 1022,4 hPa 0,0 l/m 17,0 km/h (3 Bft) W-SW 253 0 min 0,000 mm 0,0 UV-I 5 W/m 6,2 C 3,0 C 25,7 km/h (4 Bft) 100,00 %
24.09.2018 06:58 8,9 C 18,9 C 8,3 C 83 % 1022,4 hPa 0,0 l/m 16,3 km/h (3 Bft) W 261 0 min 0,000 mm 0,0 UV-I 5 W/m 6,2 C 3,2 C 30,6 km/h (5 Bft) 100,00 %
24.09.2018 07:00 8,9 C 18,9 C 8,3 C 83 % 1022,4 hPa 0,0 l/m 13,2 km/h (3 Bft) W 265 0 min 0,025 mm 0,0 UV-I 5 W/m 6,2 C 4,6 C 22,5 km/h (4 Bft) 100,00 %
24.09.2018 07:02 8,8 C 18,9 C 8,3 C 83 % 1022,5 hPa 0,0 l/m 12,8 km/h (3 Bft) W 281 0 min 0,000 mm 0,0 UV-I 7 W/m 6,1 C 4,7 C 17,7 km/h (3 Bft) 100,00 %
24.09.2018 07:04 8,8 C 18,3 C 8,3 C 83 % 1022,7 hPa 0,0 l/m 8,4 km/h (2 Bft) W 277 0 min 0,000 mm 0,0 UV-I 7 W/m 6,1 C 7,3 C 12,9 km/h (3 Bft) 100,00 %
24.09.2018 07:06 8,8 C 18,9 C 8,3 C 83 % 1022,7 hPa 0,0 l/m 11,4 km/h (2 Bft) W 267 0 min 0,000 mm 0,0 UV-I 9 W/m 6,1 C 5,5 C 17,7 km/h (3 Bft) 100,00 %
24.09.2018 07:08 8,8 C 18,3 C 8,3 C 83 % 1022,8 hPa 0,0 l/m 14,0 km/h (3 Bft) W 274 0 min 0,000 mm 0,0 UV-I 9 W/m 6,1 C 4,1 C 19,3 km/h (3 Bft) 100,00 %
24.09.2018 07:10 8,8 C 18,3 C 8,3 C 83 % 1022,9 hPa 0,0 l/m 14,2 km/h (3 Bft) W 274 0 min 0,000 mm 0,0 UV-I 11 W/m 6,1 C 4,0 C 24,1 km/h (4 Bft) 100,00 %
24.09.2018 07:12 8,8 C 18,9 C 8,3 C 83 % 1022,9 hPa 0,0 l/m 13,2 km/h (3 Bft) W-SW 240 0 min 0,000 mm 0,0 UV-I 11 W/m 6,1 C 4,5 C 20,9 km/h (4 Bft) 100,00 %
24.09.2018 07:14 8,8 C 18,3 C 8,3 C 83 % 1023,0 hPa 0,0 l/m 15,3 km/h (3 Bft) W 265 0 min 0,000 mm 0,0 UV-I 12 W/m 6,1 C 3,5 C 25,7 km/h (4 Bft) 100,00 %
24.09.2018 07:16 8,7 C 18,3 C 8,3 C 83 % 1023,1 hPa 0,0 l/m 13,3 km/h (3 Bft) W-SW 250 0 min 0,000 mm 0,0 UV-I 14 W/m 6,0 C 4,4 C 24,1 km/h (4 Bft) 96,00 %
24.09.2018 07:18 8,7 C 18,3 C 8,3 C 83 % 1023,2 hPa 0,0 l/m 9,7 km/h (2 Bft) W 259 0 min 0,000 mm 0,0 UV-I 16 W/m 6,0 C 6,3 C 14,5 km/h (3 Bft) 97,22 %
24.09.2018 07:20 8,7 C 18,3 C 8,3 C 83 % 1023,2 hPa 0,0 l/m 13,2 km/h (3 Bft) W-SW 240 0 min 0,000 mm 0,0 UV-I 18 W/m 6,0 C 4,4 C 20,9 km/h (4 Bft) 96,61 %
24.09.2018 07:22 8,7 C 18,3 C 8,3 C 82 % 1023,2 hPa 0,0 l/m 16,0 km/h (3 Bft) W 267 0 min 0,000 mm 0,0 UV-I 19 W/m 5,8 C 3,1 C 24,1 km/h (4 Bft) 97,37 %
24.09.2018 07:24 8,7 C 18,3 C 8,3 C 82 % 1023,4 hPa 0,0 l/m 11,6 km/h (2 Bft) NW 310 0 min 0,000 mm 0,0 UV-I 20 W/m 5,8 C 5,2 C 19,3 km/h (3 Bft) 98,21 %
24.09.2018 07:26 8,7 C 18,3 C 8,3 C 81 % 1023,4 hPa 0,0 l/m 12,8 km/h (3 Bft) W 261 0 min 0,000 mm 0,0 UV-I 21 W/m 5,6 C 4,6 C 19,3 km/h (3 Bft) 97,87 %
24.09.2018 07:28 8,7 C 18,3 C 8,3 C 82 % 1023,5 hPa 0,0 l/m 14,4 km/h (3 Bft) W-NW 294 0 min 0,000 mm 0,0 UV-I 22 W/m 5,8 C 3,8 C 25,7 km/h (4 Bft) 95,74 %
24.09.2018 07:30 8,7 C 18,3 C 8,3 C 82 % 1023,5 hPa 0,0 l/m 12,0 km/h (2 Bft) W-NW 292 0 min 0,000 mm 0,0 UV-I 24 W/m 5,8 C 5,0 C 20,9 km/h (4 Bft) 97,56 %
24.09.2018 07:32 8,7 C 18,3 C 8,3 C 82 % 1023,5 hPa 0,0 l/m 10,1 km/h (2 Bft) W 265 0 min 0,000 mm 0,0 UV-I 26 W/m 5,8 C 6,1 C 19,3 km/h (3 Bft) 94,00 %
24.09.2018 07:34 8,7 C 18,3 C 8,3 C 82 % 1023,5 hPa 0,0 l/m 12,1 km/h (2 Bft) W-NW 301 0 min 0,000 mm 0,0 UV-I 26 W/m 5,8 C 5,0 C 16,1 km/h (3 Bft) 100,00 %
24.09.2018 07:36 8,7 C 18,3 C 8,3 C 82 % 1023,6 hPa 0,0 l/m 8,9 km/h (2 Bft) W 265 0 min 0,000 mm 0,0 UV-I 26 W/m 5,8 C 6,9 C 16,1 km/h (3 Bft) 92,11 %
24.09.2018 07:38 8,7 C 18,3 C 8,3 C 82 % 1023,7 hPa 0,0 l/m 8,4 km/h (2 Bft) W-NW 299 0 min 0,000 mm 0,0 UV-I 28 W/m 5,8 C 7,2 C 16,1 km/h (3 Bft) 96,00 %
24.09.2018 07:40 8,7 C 18,3 C 8,3 C 82 % 1023,7 hPa 0,0 l/m 15,0 km/h (3 Bft) W 281 0 min 0,000 mm 0,0 UV-I 28 W/m 5,8 C 3,6 C 22,5 km/h (4 Bft) 94,34 %
24.09.2018 07:42 8,7 C 18,3 C 8,3 C 82 % 1023,7 hPa 0,0 l/m 13,2 km/h (3 Bft) W-NW 288 0 min 0,000 mm 0,0 UV-I 31 W/m 5,8 C 4,4 C 19,3 km/h (3 Bft) 94,74 %
24.09.2018 07:44 8,7 C 18,3 C 8,3 C 83 % 1023,8 hPa 0,0 l/m 13,3 km/h (3 Bft) W 265 0 min 0,000 mm 0,0 UV-I 33 W/m 6,0 C 4,4 C 22,5 km/h (4 Bft) 91,49 %
24.09.2018 07:46 8,7 C 18,3 C 8,9 C 83 % 1023,8 hPa 0,0 l/m 17,7 km/h (3 Bft) W 270 0 min 0,000 mm 0,0 UV-I 35 W/m 6,0 C 2,4 C 25,7 km/h (4 Bft) 91,49 %
24.09.2018 07:48 8,7 C 18,3 C 8,9 C 83 % 1023,8 hPa 0,0 l/m 12,2 km/h (2 Bft) W 271 0 min 0,000 mm 0,0 UV-I 39 W/m 6,0 C 4,9 C 20,9 km/h (4 Bft) 94,00 %
24.09.2018 07:50 8,7 C 18,3 C 8,9 C 83 % 1023,8 hPa 0,0 l/m 13,6 km/h (3 Bft) W 270 0 min 0,000 mm 0,0 UV-I 40 W/m 6,0 C 4,2 C 20,9 km/h (4 Bft) 95,74 %
24.09.2018 07:52 8,8 C 18,3 C 8,9 C 83 % 1023,8 hPa 0,0 l/m 14,5 km/h (3 Bft) W-SW 257 0 min 0,000 mm 0,0 UV-I 42 W/m 6,1 C 3,9 C 17,7 km/h (3 Bft) 96,00 %
24.09.2018 07:54 8,8 C 18,3 C 8,9 C 83 % 1023,9 hPa 0,0 l/m 18,2 km/h (3 Bft) W 262 0 min 0,000 mm 0,0 UV-I 43 W/m 6,1 C 2,4 C 25,7 km/h (4 Bft) 93,18 %
24.09.2018 07:56 8,8 C 18,3 C 8,9 C 83 % 1024,0 hPa 0,0 l/m 13,8 km/h (3 Bft) W-SW 247 0 min 0,000 mm 0,0 UV-I 45 W/m 6,1 C 4,2 C 19,3 km/h (3 Bft) 96,00 %
24.09.2018 07:58 8,8 C 18,3 C 8,9 C 83 % 1024,0 hPa 0,0 l/m 12,7 km/h (3 Bft) W 263 0 min 0,000 mm 0,0 UV-I 49 W/m 6,1 C 4,8 C 20,9 km/h (4 Bft) 94,87 %
24.09.2018 08:00 8,8 C 18,3 C 8,9 C 83 % 1024,0 hPa 0,0 l/m 13,4 km/h (3 Bft) W 270 0 min 0,026 mm 0,0 UV-I 50 W/m 6,1 C 4,4 C 24,1 km/h (4 Bft) 94,34 %
24.09.2018 08:02 8,8 C 18,3 C 8,9 C 83 % 1024,1 hPa 0,0 l/m 13,4 km/h (3 Bft) W-SW 254 0 min 0,000 mm 0,0 UV-I 53 W/m 6,1 C 4,4 C 22,5 km/h (4 Bft) 96,00 %
24.09.2018 08:04 8,8 C 18,3 C 8,9 C 83 % 1024,1 hPa 0,0 l/m 19,9 km/h (4 Bft) W 263 0 min 0,000 mm 0,0 UV-I 59 W/m 6,1 C 1,8 C 30,6 km/h (5 Bft) 97,87 %
24.09.2018 08:06 8,8 C 18,3 C 9,4 C 82 % 1024,1 hPa 0,0 l/m 15,1 km/h (3 Bft) W 272 0 min 0,000 mm 0,0 UV-I 64 W/m 5,9 C 3,6 C 24,1 km/h (4 Bft) 97,73 %
24.09.2018 08:08 8,8 C 18,3 C 9,4 C 82 % 1024,2 hPa 0,0 l/m 13,9 km/h (3 Bft) W-SW 257 0 min 0,000 mm 0,0 UV-I 65 W/m 5,9 C 4,2 C 22,5 km/h (4 Bft) 97,56 %
24.09.2018 08:10 8,8 C 18,3 C 9,4 C 82 % 1024,3 hPa 0,0 l/m 17,5 km/h (3 Bft) SW 236 0 min 0,000 mm 0,0 UV-I 57 W/m 5,9 C 2,6 C 24,1 km/h (4 Bft) 97,56 %
24.09.2018 08:12 8,8 C 18,3 C 9,4 C 83 % 1024,3 hPa 0,0 l/m 16,2 km/h (3 Bft) W 270 0 min 0,000 mm 0,0 UV-I 57 W/m 6,1 C 3,2 C 24,1 km/h (4 Bft) 98,21 %
24.09.2018 08:14 8,8 C 18,3 C 8,9 C 82 % 1024,3 hPa 0,0 l/m 14,7 km/h (3 Bft) W 267 0 min 0,000 mm 0,0 UV-I 41 W/m 5,9 C 3,8 C 20,9 km/h (4 Bft) 96,00 %
24.09.2018 08:16 8,8 C 18,3 C 8,9 C 82 % 1024,4 hPa 0,0 l/m 12,3 km/h (3 Bft) W-SW 257 0 min 0,000 mm 0,0 UV-I 43 W/m 5,9 C 5,0 C 19,3 km/h (3 Bft) 95,74 %
24.09.2018 08:19 8,8 C 18,3 C 9,4 C 82 % 1024,5 hPa 0,0 l/m 17,6 km/h (3 Bft) W-NW 297 0 min 0,000 mm 0,0 UV-I 84 W/m 5,9 C 2,6 C 25,7 km/h (4 Bft) 96,92 %
24.09.2018 08:20 8,8 C 18,3 C 9,4 C 82 % 1024,5 hPa 0,0 l/m 27,5 km/h (4 Bft) W-SW 254 0 min 0,000 mm 0,0 UV-I 90 W/m 5,9 C -0,4 C 35,4 km/h (5 Bft) 100,00 %
24.09.2018 08:22 8,8 C 18,3 C 9,4 C 82 % 1024,6 hPa 0,0 l/m 21,1 km/h (4 Bft) W-SW 254 0 min 0,000 mm 0,0 UV-I 97 W/m 5,9 C 1,4 C 33,8 km/h (5 Bft) 96,30 %
24.09.2018 08:24 8,9 C 18,3 C 9,4 C 82 % 1024,6 hPa 0,0 l/m 22,0 km/h (4 Bft) W-SW 254 0 min 0,000 mm 0,0 UV-I 102 W/m 6,0 C 1,2 C 35,4 km/h (5 Bft) 98,51 %
24.09.2018 08:26 8,9 C 18,3 C 9,4 C 82 % 1024,8 hPa 0,0 l/m 14,4 km/h (3 Bft) W-SW 256 0 min 0,000 mm 0,0 UV-I 89 W/m 6,0 C 4,1 C 22,5 km/h (4 Bft) 95,12 %
24.09.2018 08:28 8,9 C 18,3 C 9,4 C 82 % 1024,9 hPa 0,0 l/m 20,7 km/h (4 Bft) W-NW 286 0 min 0,000 mm 0,0 UV-I 52 W/m 6,0 C 1,6 C 29,0 km/h (5 Bft) 95,74 %
24.09.2018 08:30 8,9 C 18,3 C 9,4 C 81 % 1025,0 hPa 0,0 l/m 12,7 km/h (3 Bft) W 273 0 min 0,000 mm 0,0 UV-I 50 W/m 5,8 C 4,9 C 20,9 km/h (4 Bft) 97,87 %
24.09.2018 08:32 8,8 C 18,3 C 9,4 C 81 % 1025,0 hPa 0,0 l/m 16,6 km/h (3 Bft) W-SW 254 0 min 0,000 mm 0,0 UV-I 63 W/m 5,7 C 3,0 C 24,1 km/h (4 Bft) 96,00 %
24.09.2018 08:34 8,8 C 18,3 C 9,4 C 82 % 1025,0 hPa 0,0 l/m 16,1 km/h (3 Bft) W 275 0 min 0,000 mm 0,0 UV-I 64 W/m 5,9 C 3,2 C 22,5 km/h (4 Bft) 97,87 %
24.09.2018 08:36 8,8 C 18,3 C 9,4 C 82 % 1025,1 hPa 0,0 l/m 17,1 km/h (3 Bft) W 265 0 min 0,000 mm 0,0 UV-I 90 W/m 5,9 C 2,8 C 29,0 km/h (5 Bft) 97,92 %
24.09.2018 08:38 8,9 C 18,3 C 9,4 C 82 % 1025,2 hPa 0,0 l/m 13,8 km/h (3 Bft) W 262 0 min 0,000 mm 0,0 UV-I 96 W/m 6,0 C 4,3 C 19,3 km/h (3 Bft) 97,87 %
24.09.2018 08:40 8,9 C 18,3 C 10,0 C 82 % 1025,1 hPa 0,0 l/m 20,1 km/h (4 Bft) W 259 0 min 0,000 mm 0,0 UV-I 135 W/m 6,0 C 1,8 C 33,8 km/h (5 Bft) 95,12 %
24.09.2018 08:42 8,9 C 18,3 C 10,0 C 81 % 1025,1 hPa 0,0 l/m 19,4 km/h (3 Bft) W 275 2 min 0,000 mm 0,0 UV-I 162 W/m 5,8 C 2,1 C 33,8 km/h (5 Bft) 93,62 %
24.09.2018 08:45 8,9 C 18,3 C 10,0 C 81 % 1025,3 hPa 0,0 l/m 13,6 km/h (3 Bft) W 261 0 min 0,000 mm 0,0 UV-I 147 W/m 5,8 C 4,4 C 27,4 km/h (4 Bft) 96,05 %
24.09.2018 08:46 8,9 C 18,3 C 10,0 C 81 % 1025,3 hPa 0,0 l/m 17,3 km/h (3 Bft) W 263 0 min 0,000 mm 0,0 UV-I 145 W/m 5,8 C 2,8 C 22,5 km/h (4 Bft) 100,00 %
24.09.2018 08:48 8,9 C 18,3 C 10,0 C 80 % 1025,3 hPa 0,0 l/m 17,4 km/h (3 Bft) W-SW 257 0 min 0,000 mm 0,0 UV-I 152 W/m 5,6 C 2,8 C 29,0 km/h (5 Bft) 96,23 %
24.09.2018 08:50 8,9 C 18,3 C 10,0 C 80 % 1025,3 hPa 0,0 l/m 20,4 km/h (4 Bft) W-NW 284 0 min 0,000 mm 0,0 UV-I 106 W/m 5,6 C 1,7 C 30,6 km/h (5 Bft) 100,00 %
24.09.2018 08:52 8,9 C 18,3 C 9,4 C 80 % 1025,4 hPa 0,0 l/m 19,6 km/h (3 Bft) W 279 0 min 0,000 mm 0,0 UV-I 83 W/m 5,6 C 2,0 C 25,7 km/h (4 Bft) 100,00 %
24.09.2018 08:54 8,8 C 18,3 C 9,4 C 80 % 1025,5 hPa 0,0 l/m 18,9 km/h (3 Bft) W 279 0 min 0,000 mm 0,0 UV-I 66 W/m 5,5 C 2,1 C 30,6 km/h (5 Bft) 96,23 %
24.09.2018 08:56 8,8 C 18,3 C 9,4 C 80 % 1025,5 hPa 0,0 l/m 12,5 km/h (3 Bft) W 274 0 min 0,000 mm 0,0 UV-I 52 W/m 5,5 C 4,9 C 19,3 km/h (3 Bft) 100,00 %
24.09.2018 08:58 8,8 C 18,3 C 9,4 C 81 % 1025,6 hPa 0,0 l/m 12,3 km/h (3 Bft) W 269 0 min 0,000 mm 0,3 UV-I 79 W/m 5,7 C 5,0 C 19,3 km/h (3 Bft) 100,00 %
24.09.2018 09:00 8,8 C 18,3 C 9,4 C 80 % 1025,7 hPa 0,0 l/m 15,2 km/h (3 Bft) W-NW 294 0 min 0,076 mm 0,5 UV-I 88 W/m 5,5 C 3,6 C 24,1 km/h (4 Bft) 100,00 %
24.09.2018 09:02 8,8 C 18,3 C 9,4 C 80 % 1025,7 hPa 0,0 l/m 12,6 km/h (3 Bft) W 277 0 min 0,000 mm 0,5 UV-I 93 W/m 5,5 C 4,8 C 19,3 km/h (3 Bft) 97,87 %
24.09.2018 09:04 8,8 C 18,3 C 9,4 C 80 % 1025,8 hPa 0,0 l/m 17,0 km/h (3 Bft) W-NW 293 0 min 0,000 mm 0,5 UV-I 92 W/m 5,5 C 2,8 C 32,2 km/h (5 Bft) 98,00 %
24.09.2018 09:06 8,8 C 18,3 C 9,4 C 80 % 1025,8 hPa 0,0 l/m 19,7 km/h (3 Bft) W 269 0 min 0,000 mm 0,6 UV-I 98 W/m 5,5 C 1,8 C 29,0 km/h (5 Bft) 100,00 %
24.09.2018 09:08 8,8 C 18,3 C 9,4 C 79 % 1025,9 hPa 0,0 l/m 13,2 km/h (3 Bft) W 262 0 min 0,000 mm 0,6 UV-I 99 W/m 5,4 C 4,5 C 22,5 km/h (4 Bft) 97,44 %
24.09.2018 09:10 8,8 C 18,3 C 9,4 C 79 % 1025,9 hPa 0,0 l/m 16,4 km/h (3 Bft) W-SW 251 0 min 0,000 mm 0,6 UV-I 123 W/m 5,4 C 3,1 C 25,7 km/h (4 Bft) 98,08 %
24.09.2018 09:12 8,9 C 18,3 C 10,0 C 80 % 1026,1 hPa 0,0 l/m 12,9 km/h (3 Bft) W 280 0 min 0,000 mm 0,6 UV-I 176 W/m 5,6 C 4,8 C 25,7 km/h (4 Bft) 98,00 %
24.09.2018 09:14 9,1 C 18,3 C 10,0 C 80 % 1026,0 hPa 0,0 l/m 14,5 km/h (3 Bft) W 261 2 min 0,000 mm 0,7 UV-I 280 W/m 5,8 C 4,3 C 22,5 km/h (4 Bft) 93,62 %
24.09.2018 09:16 9,1 C 18,3 C 9,4 C 79 % 1026,1 hPa 0,0 l/m 15,7 km/h (3 Bft) W-NW 288 0 min 0,000 mm 0,8 UV-I 206 W/m 5,7 C 3,7 C 30,6 km/h (5 Bft) 93,75 %
24.09.2018 09:18 9,2 C 18,3 C 10,0 C 80 % 1026,1 hPa 0,0 l/m 14,6 km/h (3 Bft) W 279 2 min 0,000 mm 0,9 UV-I 428 W/m 5,9 C 4,3 C 22,5 km/h (4 Bft) 94,74 %
24.09.2018 09:20 9,4 C 18,3 C 10,0 C 79 % 1026,2 hPa 0,0 l/m 17,4 km/h (3 Bft) W-SW 257 2 min 0,000 mm 0,8 UV-I 412 W/m 5,9 C 3,4 C 30,6 km/h (5 Bft) 96,43 %
24.09.2018 09:22 9,5 C 18,3 C 10,6 C 77 % 1026,2 hPa 0,0 l/m 20,7 km/h (4 Bft) N 5 2 min 0,000 mm 0,8 UV-I 281 W/m 5,7 C 2,4 C 35,4 km/h (5 Bft) 94,74 %
24.09.2018 09:24 9,6 C 18,3 C 10,6 C 77 % 1026,4 hPa 0,0 l/m 19,5 km/h (3 Bft) W-NW 282 2 min 0,000 mm 0,8 UV-I 449 W/m 5,8 C 2,9 C 29,0 km/h (5 Bft) 96,00 %
24.09.2018 09:26 9,5 C 18,3 C 10,6 C 76 % 1026,4 hPa 0,0 l/m 20,8 km/h (4 Bft) W 265 0 min 0,000 mm 0,6 UV-I 161 W/m 5,5 C 2,4 C 33,8 km/h (5 Bft) 97,87 %
24.09.2018 09:28 9,4 C 18,3 C 10,6 C 77 % 1026,4 hPa 0,0 l/m 15,5 km/h (3 Bft) W 276 0 min 0,000 mm 0,7 UV-I 169 W/m 5,6 C 4,2 C 25,7 km/h (4 Bft) 98,00 %
24.09.2018 09:30 9,4 C 18,3 C 11,1 C 77 % 1026,5 hPa 0,0 l/m 10,8 km/h (2 Bft) S-SW 211 0 min 0,000 mm 0,6 UV-I 178 W/m 5,6 C 6,5 C 19,3 km/h (3 Bft) 97,73 %
24.09.2018 09:32 9,4 C 18,3 C 11,1 C 77 % 1026,6 hPa 0,0 l/m 19,3 km/h (3 Bft) W 259 0 min 0,000 mm 0,6 UV-I 151 W/m 5,6 C 2,7 C 35,4 km/h (5 Bft) 97,56 %
24.09.2018 09:34 9,4 C 18,3 C 10,6 C 77 % 1026,6 hPa 0,0 l/m 19,1 km/h (3 Bft) W-NW 287 0 min 0,000 mm 0,7 UV-I 159 W/m 5,6 C 2,8 C 33,8 km/h (5 Bft) 96,23 %
24.09.2018 09:36 9,3 C 18,3 C 10,6 C 76 % 1026,6 hPa 0,0 l/m 20,6 km/h (4 Bft) W 265 0 min 0,000 mm 0,7 UV-I 177 W/m 5,3 C 2,2 C 30,6 km/h (5 Bft) 98,00 %
24.09.2018 09:38 9,3 C 18,3 C 10,6 C 76 % 1026,6 hPa 0,0 l/m 30,7 km/h (5 Bft) W 263 0 min 0,000 mm 0,7 UV-I 231 W/m 5,3 C -0,5 C 41,8 km/h (6 Bft) 97,87 %
24.09.2018 09:40 9,3 C 18,3 C 10,6 C 76 % 1026,8 hPa 0,0 l/m 16,7 km/h (3 Bft) W-NW 282 0 min 0,000 mm 0,8 UV-I 135 W/m 5,3 C 3,6 C 30,6 km/h (5 Bft) 97,37 %
24.09.2018 09:42 9,3 C 18,3 C 10,6 C 76 % 1026,8 hPa 0,0 l/m 16,2 km/h (3 Bft) W 275 0 min 0,000 mm 1,0 UV-I 178 W/m 5,3 C 3,8 C 22,5 km/h (4 Bft) 96,23 %
24.09.2018 09:44 9,3 C 18,3 C 10,6 C 76 % 1027,0 hPa 0,0 l/m 13,2 km/h (3 Bft) W-NW 286 0 min 0,000 mm 0,9 UV-I 163 W/m 5,3 C 5,1 C 32,2 km/h (5 Bft) 97,44 %
24.09.2018 09:46 9,3 C 18,3 C 10,6 C 75 % 1026,9 hPa 0,0 l/m 15,0 km/h (3 Bft) W-SW 253 0 min 0,000 mm 0,9 UV-I 130 W/m 5,1 C 4,3 C 27,4 km/h (4 Bft) 100,00 %
24.09.2018 09:48 9,3 C 18,3 C 11,1 C 76 % 1026,9 hPa 0,0 l/m 12,6 km/h (3 Bft) W-SW 252 0 min 0,000 mm 1,1 UV-I 182 W/m 5,3 C 5,4 C 19,3 km/h (3 Bft) 100,00 %
24.09.2018 09:50 9,4 C 18,3 C 11,7 C 76 % 1026,9 hPa 0,0 l/m 19,8 km/h (3 Bft) W 271 0 min 0,000 mm 1,1 UV-I 191 W/m 5,4 C 2,6 C 32,2 km/h (5 Bft) 100,00 %
24.09.2018 09:52 9,5 C 18,3 C 11,7 C 75 % 1026,9 hPa 0,0 l/m 20,3 km/h (4 Bft) NW 320 0 min 0,000 mm 1,0 UV-I 207 W/m 5,3 C 2,5 C 37,0 km/h (5 Bft) 100,00 %
24.09.2018 09:54 9,6 C 18,3 C 12,2 C 76 % 1026,9 hPa 0,0 l/m 16,6 km/h (3 Bft) W-SW 250 0 min 0,000 mm 1,2 UV-I 248 W/m 5,6 C 4,0 C 24,1 km/h (4 Bft) 100,00 %
24.09.2018 09:56 9,7 C 18,3 C 12,2 C 74 % 1026,9 hPa 0,0 l/m 16,9 km/h (3 Bft) W-SW 250 0 min 0,000 mm 1,0 UV-I 255 W/m 5,3 C 4,0 C 30,6 km/h (5 Bft) 100,00 %
24.09.2018 09:58 9,8 C 18,3 C 12,2 C 74 % 1026,9 hPa 0,0 l/m 18,7 km/h (3 Bft) NW 311 0 min 0,000 mm 0,9 UV-I 216 W/m 5,4 C 3,5 C 24,1 km/h (4 Bft) 100,00 %
24.09.2018 10:00 9,8 C 18,3 C 12,2 C 73 % 1026,9 hPa 0,0 l/m 17,6 km/h (3 Bft) W-SW 244 0 min 0,127 mm 0,8 UV-I 203 W/m 5,2 C 3,9 C 29,0 km/h (5 Bft) 100,00 %
24.09.2018 10:02 9,8 C 18,3 C 11,7 C 72 % 1026,9 hPa 0,0 l/m 16,9 km/h (3 Bft) W 275 0 min 0,000 mm 0,8 UV-I 159 W/m 5,0 C 4,1 C 32,2 km/h (5 Bft) 100,00 %
24.09.2018 10:04 9,7 C 18,3 C 11,1 C 72 % 1026,9 hPa 0,0 l/m 18,8 km/h (3 Bft) W 268 0 min 0,000 mm 0,9 UV-I 144 W/m 4,9 C 3,3 C 35,4 km/h (5 Bft) 100,00 %
24.09.2018 10:06 9,8 C 18,3 C 12,2 C 73 % 1026,9 hPa 0,0 l/m 17,2 km/h (3 Bft) W-SW 240 0 min 0,000 mm 1,2 UV-I 222 W/m 5,2 C 4,0 C 27,4 km/h (4 Bft) 100,00 %
24.09.2018 10:08 9,8 C 18,3 C 12,2 C 72 % 1027,0 hPa 0,0 l/m 18,2 km/h (3 Bft) W 264 2 min 0,000 mm 1,2 UV-I 318 W/m 5,0 C 3,6 C 32,2 km/h (5 Bft) 100,00 %
24.09.2018 10:10 9,9 C 18,3 C 13,3 C 72 % 1027,0 hPa 0,0 l/m 16,6 km/h (3 Bft) NW 313 2 min 0,000 mm 1,4 UV-I 311 W/m 5,1 C 4,4 C 24,1 km/h (4 Bft) 98,11 %
24.09.2018 10:12 9,9 C 18,3 C 13,3 C 72 % 1027,0 hPa 0,0 l/m 19,4 km/h (3 Bft) W-NW 284 0 min 0,000 mm 1,2 UV-I 179 W/m 5,1 C 3,4 C 40,2 km/h (6 Bft) 100,00 %
24.09.2018 10:14 9,9 C 18,3 C 13,9 C 70 % 1027,1 hPa 0,0 l/m 23,0 km/h (4 Bft) W-NW 283 0 min 0,000 mm 1,4 UV-I 179 W/m 4,7 C 2,2 C 35,4 km/h (5 Bft) 100,00 %
24.09.2018 10:16 10,0 C 18,3 C 13,9 C 71 % 1027,1 hPa 0,0 l/m 19,2 km/h (3 Bft) NW 323 0 min 0,000 mm 1,4 UV-I 179 W/m 5,0 C 3,6 C 38,6 km/h (5 Bft) 100,00 %
24.09.2018 10:18 10,1 C 18,3 C 13,3 C 72 % 1027,2 hPa 0,0 l/m 14,8 km/h (3 Bft) NW 325 0 min 0,000 mm 1,2 UV-I 226 W/m 5,3 C 5,3 C 25,7 km/h (4 Bft) 100,00 %
24.09.2018 10:20 10,1 C 18,3 C 13,3 C 72 % 1027,2 hPa 0,0 l/m 15,8 km/h (3 Bft) W 266 0 min 0,000 mm 1,3 UV-I 254 W/m 5,3 C 4,9 C 29,0 km/h (5 Bft) 97,87 %
24.09.2018 10:22 10,0 C 18,3 C 13,9 C 71 % 1027,2 hPa 0,0 l/m 20,3 km/h (4 Bft) W-SW 257 2 min 0,000 mm 1,3 UV-I 332 W/m 5,0 C 3,2 C 35,4 km/h (5 Bft) 97,14 %
24.09.2018 10:24 10,1 C 18,3 C 13,3 C 72 % 1027,3 hPa 0,0 l/m 11,9 km/h (2 Bft) W-SW 247 0 min 0,000 mm 1,4 UV-I 249 W/m 5,3 C 6,7 C 20,9 km/h (4 Bft) 95,24 %
24.09.2018 10:26 10,2 C 18,3 C 16,1 C 73 % 1027,3 hPa 0,0 l/m 15,3 km/h (3 Bft) NW 306 2 min 0,000 mm 1,8 UV-I 383 W/m 5,6 C 5,3 C 27,4 km/h (4 Bft) 96,88 %
24.09.2018 10:28 10,4 C 18,3 C 18,3 C 73 % 1027,3 hPa 0,0 l/m 16,2 km/h (3 Bft) W-SW 251 2 min 0,000 mm 1,8 UV-I 636 W/m 5,8 C 5,1 C 24,1 km/h (4 Bft) 95,74 %
24.09.2018 10:30 10,7 C 18,3 C 20,0 C 72 % 1027,3 hPa 0,0 l/m 20,1 km/h (4 Bft) W-NW 285 2 min 0,000 mm 1,9 UV-I 669 W/m 5,9 C 4,2 C 33,8 km/h (5 Bft) 95,56 %
24.09.2018 10:32 10,9 C 18,3 C 20,0 C 71 % 1027,4 hPa 0,0 l/m 14,1 km/h (3 Bft) W-NW 293 2 min 0,000 mm 1,8 UV-I 743 W/m 5,9 C 6,6 C 27,4 km/h (4 Bft) 94,00 %
24.09.2018 10:34 11,0 C 18,3 C 18,9 C 69 % 1027,3 hPa 0,0 l/m 16,2 km/h (3 Bft) N-NW 330 2 min 0,000 mm 1,5 UV-I 405 W/m 5,5 C 5,9 C 27,4 km/h (4 Bft) 97,87 %
24.09.2018 10:36 10,8 C 18,3 C 16,7 C 67 % 1027,4 hPa 0,0 l/m 10,2 km/h (2 Bft) W 275 2 min 0,000 mm 1,2 UV-I 300 W/m 4,9 C 8,4 C 19,3 km/h (3 Bft) 97,56 %
24.09.2018 10:38 10,6 C 18,3 C 14,4 C 68 % 1027,3 hPa 0,0 l/m 19,7 km/h (3 Bft) W 265 0 min 0,000 mm 1,1 UV-I 242 W/m 4,9 C 4,2 C 37,0 km/h (5 Bft) 97,87 %
24.09.2018 10:40 10,4 C 18,3 C 13,3 C 68 % 1027,5 hPa 0,0 l/m 20,6 km/h (4 Bft) W 270 0 min 0,000 mm 1,0 UV-I 201 W/m 4,8 C 3,6 C 33,8 km/h (5 Bft) 98,11 %
24.09.2018 10:42 10,2 C 18,3 C 12,2 C 68 % 1027,6 hPa 0,0 l/m 20,3 km/h (4 Bft) W 259 0 min 0,000 mm 0,8 UV-I 170 W/m 4,6 C 3,4 C 32,2 km/h (5 Bft) 97,37 %
24.09.2018 10:44 10,0 C 18,3 C 12,2 C 69 % 1027,6 hPa 0,0 l/m 16,1 km/h (3 Bft) W 266 0 min 0,000 mm 1,0 UV-I 199 W/m 4,6 C 4,7 C 25,7 km/h (4 Bft) 96,23 %
24.09.2018 10:46 9,9 C 18,3 C 12,2 C 71 % 1027,6 hPa 0,0 l/m 16,5 km/h (3 Bft) W 264 0 min 0,000 mm 1,1 UV-I 254 W/m 4,9 C 4,4 C 22,5 km/h (4 Bft) 100,00 %
24.09.2018 10:48 9,9 C 18,3 C 12,2 C 71 % 1027,7 hPa 0,0 l/m 18,7 km/h (3 Bft) W 271 0 min 0,000 mm 1,1 UV-I 229 W/m 4,9 C 3,6 C 24,1 km/h (4 Bft) 100,00 %
24.09.2018 10:50 9,8 C 18,3 C 12,2 C 73 % 1027,6 hPa 0,0 l/m 13,6 km/h (3 Bft) W 262 0 min 0,000 mm 1,2 UV-I 227 W/m 5,2 C 5,5 C 20,9 km/h (4 Bft) 100,00 %
24.09.2018 10:52 9,8 C 18,3 C 12,2 C 72 % 1027,6 hPa 0,0 l/m 20,5 km/h (4 Bft) W-SW 244 0 min 0,000 mm 1,3 UV-I 252 W/m 5,0 C 2,9 C 33,8 km/h (5 Bft) 100,00 %
24.09.2018 10:54 9,9 C 18,3 C 12,8 C 72 % 1027,6 hPa 0,0 l/m 17,9 km/h (3 Bft) NW 313 0 min 0,000 mm 1,4 UV-I 275 W/m 5,1 C 3,9 C 29,0 km/h (5 Bft) 100,00 %
24.09.2018 10:56 9,8 C 18,3 C 12,8 C 71 % 1027,5 hPa 0,0 l/m 17,9 km/h (3 Bft) W-SW 243 0 min 0,000 mm 1,4 UV-I 263 W/m 4,8 C 3,8 C 32,2 km/h (5 Bft) 98,00 %
24.09.2018 10:58 9,9 C 18,3 C 13,3 C 72 % 1027,6 hPa 0,0 l/m 16,6 km/h (3 Bft) W-SW 251 0 min 0,000 mm 1,7 UV-I 260 W/m 5,1 C 4,4 C 30,6 km/h (5 Bft) 94,00 %
24.09.2018 11:00 9,9 C 18,3 C 12,8 C 71 % 1027,6 hPa 0,0 l/m 15,7 km/h (3 Bft) W-SW 246 0 min 0,000 mm 1,5 UV-I 231 W/m 4,9 C 4,7 C 24,1 km/h (4 Bft) 100,00 %
24.09.2018 11:02 10,0 C 18,3 C 13,3 C 71 % 1027,6 hPa 0,0 l/m 20,7 km/h (4 Bft) W 264 0 min 0,203 mm 1,5 UV-I 225 W/m 5,0 C 3,1 C 40,2 km/h (6 Bft) 98,11 %
24.09.2018 11:04 10,1 C 18,3 C 13,9 C 71 % 1027,7 hPa 0,0 l/m 19,6 km/h (3 Bft) W 263 0 min 0,000 mm 1,6 UV-I 222 W/m 5,1 C 3,5 C 30,6 km/h (5 Bft) 98,00 %
24.09.2018 11:06 10,0 C 18,3 C 12,8 C 71 % 1027,6 hPa 0,0 l/m 19,6 km/h (3 Bft) W-SW 248 0 min 0,000 mm 1,4 UV-I 210 W/m 5,0 C 3,4 C 29,0 km/h (5 Bft) 98,00 %
24.09.2018 11:08 10,1 C 18,3 C 13,3 C 72 % 1027,6 hPa 0,0 l/m 20,6 km/h (4 Bft) W-SW 250 0 min 0,000 mm 1,5 UV-I 249 W/m 5,3 C 3,2 C 27,4 km/h (4 Bft) 97,22 %
24.09.2018 11:10 10,2 C 18,3 C 15,6 C 71 % 1027,6 hPa 0,0 l/m 15,2 km/h (3 Bft) W 261 0 min 0,000 mm 2,0 UV-I 308 W/m 5,2 C 5,3 C 25,7 km/h (4 Bft) 98,21 %
24.09.2018 11:12 10,3 C 18,3 C 16,1 C 71 % 1027,6 hPa 0,0 l/m 15,9 km/h (3 Bft) W 276 2 min 0,000 mm 1,9 UV-I 346 W/m 5,3 C 5,1 C 27,4 km/h (4 Bft) 95,65 %
24.09.2018 11:14 10,5 C 18,3 C 16,7 C 70 % 1027,6 hPa 0,0 l/m 22,0 km/h (4 Bft) W 269 2 min 0,000 mm 1,7 UV-I 332 W/m 5,3 C 3,3 C 32,2 km/h (5 Bft) 98,46 %
24.09.2018 11:16 10,5 C 18,3 C 16,1 C 70 % 1027,6 hPa 0,0 l/m 12,1 km/h (2 Bft) W-SW 248 2 min 0,000 mm 1,7 UV-I 337 W/m 5,3 C 7,0 C 20,9 km/h (4 Bft) 97,56 %
24.09.2018 11:19 10,6 C 18,3 C 14,4 C 70 % 1027,7 hPa 0,0 l/m 21,4 km/h (4 Bft) W 264 0 min 0,000 mm 1,5 UV-I 315 W/m 5,4 C 3,6 C 41,8 km/h (6 Bft) 97,47 %
24.09.2018 11:20 10,5 C 18,3 C 14,4 C 69 % 1027,7 hPa 0,0 l/m 19,5 km/h (3 Bft) W-SW 241 0 min 0,000 mm 1,5 UV-I 295 W/m 5,1 C 4,1 C 25,7 km/h (4 Bft) 96,30 %
24.09.2018 11:22 10,6 C 18,3 C 17,2 C 70 % 1027,7 hPa 0,0 l/m 16,5 km/h (3 Bft) W-SW 250 2 min 0,000 mm 2,2 UV-I 397 W/m 5,4 C 5,3 C 25,7 km/h (4 Bft) 97,37 %
24.09.2018 11:24 10,7 C 18,3 C 16,7 C 70 % 1027,7 hPa 0,0 l/m 17,3 km/h (3 Bft) W 272 2 min 0,000 mm 1,7 UV-I 832 W/m 5,5 C 5,1 C 30,6 km/h (5 Bft) 98,21 %
24.09.2018 11:26 10,8 C 18,3 C 15,6 C 69 % 1027,6 hPa 0,0 l/m 24,2 km/h (4 Bft) W 265 2 min 0,000 mm 1,4 UV-I 392 W/m 5,3 C 3,1 C 38,6 km/h (5 Bft) 97,14 %
24.09.2018 11:28 10,7 C 18,3 C 15,0 C 70 % 1027,7 hPa 0,0 l/m 11,9 km/h (2 Bft) W 274 0 min 0,000 mm 1,2 UV-I 329 W/m 5,5 C 7,4 C 20,9 km/h (4 Bft) 98,21 %
24.09.2018 11:30 10,6 C 18,3 C 13,9 C 70 % 1027,8 hPa 0,0 l/m 15,5 km/h (3 Bft) W 259 0 min 0,000 mm 1,0 UV-I 206 W/m 5,4 C 5,7 C 22,5 km/h (4 Bft) 96,55 %
24.09.2018 11:32 10,6 C 18,3 C 13,3 C 69 % 1027,8 hPa 0,0 l/m 15,1 km/h (3 Bft) W 259 0 min 0,000 mm 1,0 UV-I 201 W/m 5,2 C 5,8 C 20,9 km/h (4 Bft) 98,46 %
24.09.2018 11:34 10,4 C 18,3 C 12,8 C 68 % 1027,7 hPa 0,0 l/m 17,1 km/h (3 Bft) W-NW 302 0 min 0,000 mm 1,2 UV-I 209 W/m 4,8 C 4,8 C 30,6 km/h (5 Bft) 100,00 %
24.09.2018 11:36 10,4 C 18,3 C 13,9 C 69 % 1027,8 hPa 0,0 l/m 15,3 km/h (3 Bft) W 263 0 min 0,000 mm 1,9 UV-I 252 W/m 5,0 C 5,5 C 25,7 km/h (4 Bft) 100,00 %
24.09.2018 11:38 10,6 C 18,3 C 15,6 C 69 % 1027,8 hPa 0,0 l/m 20,5 km/h (4 Bft) NW 311 2 min 0,000 mm 2,4 UV-I 446 W/m 5,2 C 3,9 C 35,4 km/h (5 Bft) 100,00 %
24.09.2018 11:40 10,7 C 18,3 C 15,6 C 68 % 1027,8 hPa 0,0 l/m 13,4 km/h (3 Bft) W 267 2 min 0,000 mm 2,1 UV-I 598 W/m 5,0 C 6,7 C 22,5 km/h (4 Bft) 100,00 %
24.09.2018 11:42 10,8 C 18,3 C 15,0 C 69 % 1027,8 hPa 0,0 l/m 13,9 km/h (3 Bft) W 272 0 min 0,000 mm 1,5 UV-I 338 W/m 5,3 C 6,6 C 29,0 km/h (5 Bft) 96,72 %
24.09.2018 11:44 10,8 C 18,3 C 15,0 C 69 % 1027,8 hPa 0,0 l/m 11,3 km/h (2 Bft) W-NW 298 0 min 0,000 mm 1,5 UV-I 284 W/m 5,3 C 7,8 C 20,9 km/h (4 Bft) 97,62 %
24.09.2018 11:46 10,8 C 18,3 C 13,9 C 68 % 1027,9 hPa 0,0 l/m 11,4 km/h (2 Bft) W 260 0 min 0,000 mm 1,1 UV-I 214 W/m 5,1 C 7,7 C 20,9 km/h (4 Bft) 97,87 %
24.09.2018 11:49 10,6 C 18,3 C 12,8 C 69 % 1027,8 hPa 0,0 l/m 10,0 km/h (2 Bft) NW 307 0 min 0,000 mm 1,0 UV-I 142 W/m 5,2 C 8,3 C 27,4 km/h (4 Bft) 97,47 %
24.09.2018 11:50 10,5 C 18,3 C 12,2 C 70 % 1027,8 hPa 0,0 l/m 8,0 km/h (2 Bft) SW 231 0 min 0,000 mm 0,9 UV-I 116 W/m 5,3 C 9,4 C 16,1 km/h (3 Bft) 100,00 %
24.09.2018 11:52 10,4 C 18,3 C 12,2 C 69 % 1027,9 hPa 0,0 l/m 12,0 km/h (2 Bft) W-NW 290 0 min 0,000 mm 0,8 UV-I 131 W/m 5,0 C 7,0 C 19,3 km/h (3 Bft) 97,87 %
24.09.2018 11:54 10,3 C 18,3 C 11,7 C 70 % 1028,0 hPa 0,0 l/m 12,6 km/h (3 Bft) NW 320 0 min 0,000 mm 0,7 UV-I 134 W/m 5,1 C 6,6 C 24,1 km/h (4 Bft) 97,73 %
24.09.2018 11:56 10,3 C 18,3 C 11,7 C 70 % 1028,0 hPa 0,0 l/m 14,9 km/h (3 Bft) W-NW 299 0 min 0,000 mm 0,7 UV-I 138 W/m 5,1 C 5,5 C 24,1 km/h (4 Bft) 98,11 %
24.09.2018 11:58 10,3 C 18,3 C 11,7 C 70 % 1028,0 hPa 0,0 l/m 16,4 km/h (3 Bft) W 266 0 min 0,000 mm 0,7 UV-I 132 W/m 5,1 C 4,9 C 33,8 km/h (5 Bft) 97,87 %
24.09.2018 12:00 10,3 C 18,3 C 11,1 C 68 % 1028,2 hPa 0,0 l/m 22,3 km/h (4 Bft) N-NW 327 0 min 0,203 mm 0,7 UV-I 131 W/m 4,7 C 3,0 C 37,0 km/h (5 Bft) 96,23 %
24.09.2018 12:02 10,3 C 18,3 C 11,1 C 68 % 1028,0 hPa 0,0 l/m 13,8 km/h (3 Bft) W 264 0 min 0,000 mm 0,7 UV-I 126 W/m 4,7 C 6,0 C 22,5 km/h (4 Bft) 97,87 %
24.09.2018 12:04 10,3 C 18,3 C 11,7 C 68 % 1028,1 hPa 0,0 l/m 13,8 km/h (3 Bft) W-SW 253 0 min 0,000 mm 0,7 UV-I 129 W/m 4,7 C 6,0 C 22,5 km/h (4 Bft) 94,74 %
24.09.2018 12:06 10,3 C 18,3 C 11,7 C 67 % 1028,1 hPa 0,0 l/m 17,7 km/h (3 Bft) W 269 0 min 0,000 mm 0,9 UV-I 159 W/m 4,4 C 4,5 C 25,7 km/h (4 Bft) 100,00 %
24.09.2018 12:08 10,3 C 18,3 C 12,2 C 68 % 1028,1 hPa 0,0 l/m 15,3 km/h (3 Bft) W 265 0 min 0,000 mm 1,1 UV-I 200 W/m 4,7 C 5,4 C 32,2 km/h (5 Bft) 100,00 %
24.09.2018 12:10 10,3 C 18,3 C 12,2 C 67 % 1028,1 hPa 0,0 l/m 10,1 km/h (2 Bft) W-SW 246 0 min 0,000 mm 1,4 UV-I 219 W/m 4,4 C 7,9 C 19,3 km/h (3 Bft) 97,56 %
24.09.2018 12:12 10,4 C 18,3 C 12,8 C 68 % 1028,1 hPa 0,0 l/m 12,9 km/h (3 Bft) NW 309 0 min 0,000 mm 1,7 UV-I 262 W/m 4,8 C 6,5 C 24,1 km/h (4 Bft) 98,11 %
24.09.2018 12:14 10,6 C 18,3 C 14,4 C 69 % 1028,1 hPa 0,0 l/m 13,0 km/h (3 Bft) W 269 0 min 0,000 mm 1,9 UV-I 309 W/m 5,2 C 6,7 C 22,5 km/h (4 Bft) 100,00 %
24.09.2018 12:16 10,7 C 18,3 C 14,4 C 68 % 1028,1 hPa 0,0 l/m 12,2 km/h (2 Bft) N-NO 28 0 min 0,000 mm 1,9 UV-I 323 W/m 5,0 C 7,2 C 29,0 km/h (5 Bft) 97,87 %
24.09.2018 12:18 10,8 C 18,3 C 14,4 C 68 % 1028,1 hPa 0,0 l/m 12,8 km/h (3 Bft) N-NW 329 0 min 0,000 mm 1,8 UV-I 323 W/m 5,1 C 7,1 C 25,7 km/h (4 Bft) 97,22 %
24.09.2018 12:20 10,9 C 18,3 C 14,4 C 67 % 1028,1 hPa 0,0 l/m 15,9 km/h (3 Bft) W 271 0 min 0,000 mm 1,9 UV-I 352 W/m 5,0 C 5,9 C 25,7 km/h (4 Bft) 98,08 %
24.09.2018 12:22 11,0 C 18,3 C 15,0 C 66 % 1028,2 hPa 0,0 l/m 16,6 km/h (3 Bft) W-SW 242 2 min 0,000 mm 1,8 UV-I 360 W/m 4,9 C 5,7 C 29,0 km/h (5 Bft) 97,62 %
24.09.2018 12:24 11,1 C 18,3 C 14,4 C 65 % 1028,1 hPa 0,0 l/m 21,5 km/h (4 Bft) W-NW 285 0 min 0,000 mm 1,7 UV-I 329 W/m 4,8 C 4,3 C 41,8 km/h (6 Bft) 94,34 %
24.09.2018 12:26 11,1 C 18,3 C 14,4 C 63 % 1028,1 hPa 0,0 l/m 16,7 km/h (3 Bft) W 268 0 min 0,000 mm 1,6 UV-I 310 W/m 4,3 C 5,8 C 37,0 km/h (5 Bft) 97,56 %
24.09.2018 12:28 11,1 C 18,3 C 13,9 C 65 % 1028,1 hPa 0,0 l/m 17,4 km/h (3 Bft) W 269 0 min 0,000 mm 1,3 UV-I 247 W/m 4,8 C 5,6 C 30,6 km/h (5 Bft) 96,23 %
24.09.2018 12:30 11,1 C 18,3 C 13,9 C 64 % 1027,9 hPa 0,0 l/m 16,8 km/h (3 Bft) W 267 0 min 0,000 mm 1,3 UV-I 246 W/m 4,6 C 5,8 C 32,2 km/h (5 Bft) 97,87 %
24.09.2018 12:32 11,0 C 18,3 C 13,9 C 64 % 1028,1 hPa 0,0 l/m 16,6 km/h (3 Bft) W 263 0 min 0,000 mm 1,6 UV-I 287 W/m 4,5 C 5,7 C 24,1 km/h (4 Bft) 98,00 %
24.09.2018 12:34 11,1 C 18,3 C 14,4 C 64 % 1028,0 hPa 0,0 l/m 20,9 km/h (4 Bft) W 279 2 min 0,000 mm 1,9 UV-I 392 W/m 4,6 C 4,4 C 38,6 km/h (5 Bft) 97,37 %
24.09.2018 12:36 11,2 C 18,3 C 15,6 C 64 % 1028,1 hPa 0,0 l/m 12,4 km/h (3 Bft) W-SW 256 2 min 0,000 mm 2,1 UV-I 415 W/m 4,6 C 7,7 C 20,9 km/h (4 Bft) 98,11 %
24.09.2018 12:38 11,3 C 18,3 C 15,6 C 65 % 1028,1 hPa 0,0 l/m 12,4 km/h (3 Bft) W 281 2 min 0,000 mm 2,0 UV-I 376 W/m 5,0 C 7,8 C 22,5 km/h (4 Bft) 94,74 %
24.09.2018 12:40 11,4 C 18,3 C 15,6 C 64 % 1028,1 hPa 0,0 l/m 13,7 km/h (3 Bft) W-NW 295 0 min 0,000 mm 2,0 UV-I 342 W/m 4,8 C 7,4 C 20,9 km/h (4 Bft) 98,21 %
24.09.2018 12:42 11,4 C 18,3 C 15,0 C 63 % 1028,0 hPa 0,0 l/m 28,8 km/h (4 Bft) N-NW 339 0 min 0,000 mm 1,9 UV-I 328 W/m 4,6 C 2,9 C 51,5 km/h (7 Bft) 97,37 %
24.09.2018 12:44 11,4 C 18,3 C 14,4 C 63 % 1028,1 hPa 0,0 l/m 19,9 km/h (4 Bft) W-SW 257 0 min 0,000 mm 1,8 UV-I 323 W/m 4,6 C 5,1 C 33,8 km/h (5 Bft) 98,00 %
24.09.2018 12:46 11,3 C 18,3 C 14,4 C 62 % 1028,1 hPa 0,0 l/m 23,6 km/h (4 Bft) W-NW 283 0 min 0,000 mm 1,5 UV-I 284 W/m 4,3 C 3,9 C 38,6 km/h (5 Bft) 96,00 %
24.09.2018 12:48 11,3 C 18,3 C 13,9 C 63 % 1028,1 hPa 0,0 l/m 20,4 km/h (4 Bft) W 272 0 min 0,000 mm 1,4 UV-I 275 W/m 4,5 C 4,8 C 35,4 km/h (5 Bft) 98,11 %
24.09.2018 12:50 11,2 C 18,3 C 13,3 C 63 % 1028,1 hPa 0,0 l/m 22,4 km/h (4 Bft) W 274 0 min 0,000 mm 1,1 UV-I 209 W/m 4,4 C 4,1 C 33,8 km/h (5 Bft) 97,37 %
24.09.2018 12:52 11,2 C 18,3 C 13,9 C 64 % 1028,2 hPa 0,0 l/m 17,1 km/h (3 Bft) W-NW 291 0 min 0,000 mm 1,5 UV-I 270 W/m 4,6 C 5,8 C 25,7 km/h (4 Bft) 98,11 %
24.09.2018 12:54 11,2 C 18,3 C 13,9 C 64 % 1028,1 hPa 0,0 l/m 24,8 km/h (4 Bft) W 269 0 min 0,000 mm 1,9 UV-I 342 W/m 4,6 C 3,5 C 45,1 km/h (6 Bft) 94,29 %
24.09.2018 12:56 11,2 C 18,3 C 13,9 C 64 % 1028,1 hPa 0,0 l/m 22,2 km/h (4 Bft) W 265 0 min 0,000 mm 1,9 UV-I 309 W/m 4,6 C 4,2 C 32,2 km/h (5 Bft) 96,43 %
24.09.2018 12:58 11,2 C 18,3 C 14,4 C 63 % 1028,1 hPa 0,0 l/m 23,7 km/h (4 Bft) W-NW 294 0 min 0,000 mm 2,0 UV-I 311 W/m 4,4 C 3,8 C 38,6 km/h (5 Bft) 96,00 %
24.09.2018 13:00 11,1 C 18,3 C 14,4 C 63 % 1028,2 hPa 0,0 l/m 25,2 km/h (4 Bft) W 275 0 min 0,000 mm 2,1 UV-I 334 W/m 4,3 C 3,3 C 40,2 km/h (6 Bft) 93,62 %
24.09.2018 13:02 11,1 C 18,3 C 14,4 C 63 % 1028,0 hPa 0,0 l/m 23,3 km/h (4 Bft) W 263 0 min 0,203 mm 2,2 UV-I 332 W/m 4,3 C 3,8 C 38,6 km/h (5 Bft) 97,44 %
24.09.2018 13:04 11,2 C 18,3 C 14,4 C 64 % 1028,1 hPa 0,0 l/m 19,5 km/h (3 Bft) W-SW 241 0 min 0,000 mm 2,3 UV-I 323 W/m 4,6 C 5,0 C 27,4 km/h (4 Bft) 95,45 %
24.09.2018 13:06 11,2 C 18,3 C 16,1 C 64 % 1028,0 hPa 0,0 l/m 17,4 km/h (3 Bft) W-SW 251 0 min 0,000 mm 2,6 UV-I 256 W/m 4,6 C 5,7 C 30,6 km/h (5 Bft) 91,07 %
24.09.2018 13:08 11,3 C 18,3 C 16,1 C 65 % 1028,1 hPa 0,0 l/m 17,9 km/h (3 Bft) W-NW 289 0 min 0,000 mm 2,5 UV-I 255 W/m 5,0 C 5,6 C 27,4 km/h (4 Bft) 91,49 %
24.09.2018 13:10 11,6 C 18,3 C 18,9 C 65 % 1028,1 hPa 0,0 l/m 13,4 km/h (3 Bft) W 263 2 min 0,000 mm 3,0 UV-I 600 W/m 5,2 C 7,7 C 30,6 km/h (5 Bft) 93,62 %
24.09.2018 13:12 11,8 C 18,3 C 19,4 C 62 % 1028,1 hPa 0,0 l/m 27,1 km/h (4 Bft) W 268 2 min 0,000 mm 3,1 UV-I 720 W/m 4,8 C 3,8 C 51,5 km/h (7 Bft) 92,68 %
24.09.2018 13:14 12,0 C 18,3 C 19,4 C 61 % 1028,1 hPa 0,0 l/m 17,7 km/h (3 Bft) W-NW 288 2 min 0,000 mm 2,7 UV-I 719 W/m 4,7 C 6,6 C 27,4 km/h (4 Bft) 94,64 %
24.09.2018 13:16 12,0 C 18,3 C 17,2 C 60 % 1028,0 hPa 0,0 l/m 23,2 km/h (4 Bft) W-SW 241 2 min 0,000 mm 2,1 UV-I 719 W/m 4,5 C 5,0 C 38,6 km/h (5 Bft) 93,62 %
24.09.2018 13:18 11,9 C 18,3 C 18,3 C 60 % 1028,1 hPa 0,0 l/m 17,7 km/h (3 Bft) W-SW 238 2 min 0,000 mm 2,9 UV-I 719 W/m 4,4 C 6,5 C 29,0 km/h (5 Bft) 89,47 %
24.09.2018 13:20 12,0 C 18,3 C 20,0 C 60 % 1028,1 hPa 0,0 l/m 17,9 km/h (3 Bft) W-NW 283 2 min 0,000 mm 3,1 UV-I 712 W/m 4,5 C 6,5 C 29,0 km/h (5 Bft) 92,00 %
24.09.2018 13:22 12,2 C 18,3 C 20,6 C 59 % 1028,1 hPa 0,0 l/m 18,3 km/h (3 Bft) W 265 2 min 0,000 mm 3,1 UV-I 682 W/m 4,4 C 6,7 C 33,8 km/h (5 Bft) 94,34 %
24.09.2018 13:24 12,3 C 18,3 C 20,6 C 60 % 1028,1 hPa 0,0 l/m 20,0 km/h (4 Bft) W 275 2 min 0,000 mm 3,1 UV-I 702 W/m 4,8 C 6,3 C 35,4 km/h (5 Bft) 95,12 %
24.09.2018 13:26 12,3 C 18,3 C 19,4 C 59 % 1028,2 hPa 0,0 l/m 19,7 km/h (3 Bft) W-NW 293 2 min 0,000 mm 2,6 UV-I 720 W/m 4,5 C 6,3 C 32,2 km/h (5 Bft) 97,56 %
24.09.2018 13:28 12,3 C 18,3 C 20,6 C 59 % 1028,2 hPa 0,0 l/m 22,7 km/h (4 Bft) SW 216 2 min 0,000 mm 3,2 UV-I 769 W/m 4,5 C 5,5 C 43,5 km/h (6 Bft) 95,74 %
24.09.2018 13:30 12,3 C 18,3 C 19,4 C 58 % 1028,1 hPa 0,0 l/m 22,4 km/h (4 Bft) W-NW 299 2 min 0,000 mm 2,6 UV-I 737 W/m 4,3 C 5,6 C 43,5 km/h (6 Bft) 96,43 %
24.09.2018 13:32 12,3 C 18,3 C 19,4 C 60 % 1028,2 hPa 0,0 l/m 22,3 km/h (4 Bft) W 275 2 min 0,000 mm 3,0 UV-I 775 W/m 4,8 C 5,6 C 43,5 km/h (6 Bft) 100,00 %
24.09.2018 13:34 12,2 C 18,3 C 17,2 C 60 % 1028,3 hPa 0,0 l/m 22,1 km/h (4 Bft) W-NW 286 0 min 0,000 mm 1,8 UV-I 339 W/m 4,7 C 5,5 C 37,0 km/h (5 Bft) 97,73 %
24.09.2018 13:36 12,0 C 18,3 C 15,0 C 59 % 1028,3 hPa 0,0 l/m 20,3 km/h (4 Bft) W-SW 258 0 min 0,000 mm 1,7 UV-I 143 W/m 4,2 C 5,8 C 37,0 km/h (5 Bft) 96,23 %
24.09.2018 13:38 11,9 C 18,3 C 18,3 C 60 % 1028,2 hPa 0,0 l/m 15,6 km/h (3 Bft) W 268 2 min 0,000 mm 3,0 UV-I 519 W/m 4,4 C 7,2 C 32,2 km/h (5 Bft) 100,00 %
24.09.2018 13:40 12,0 C 18,3 C 16,7 C 61 % 1028,3 hPa 0,0 l/m 24,2 km/h (4 Bft) W-SW 242 2 min 0,000 mm 2,2 UV-I 718 W/m 4,7 C 4,7 C 40,2 km/h (6 Bft) 97,22 %
24.09.2018 13:42 12,0 C 18,3 C 17,8 C 61 % 1028,2 hPa 0,0 l/m 20,7 km/h (4 Bft) W-SW 238 2 min 0,000 mm 2,8 UV-I 718 W/m 4,7 C 5,7 C 35,4 km/h (5 Bft) 98,21 %
24.09.2018 13:44 12,2 C 18,3 C 20,0 C 60 % 1028,2 hPa 0,0 l/m 17,3 km/h (3 Bft) N-NW 329 2 min 0,000 mm 2,9 UV-I 728 W/m 4,7 C 7,0 C 41,8 km/h (6 Bft) 100,00 %
24.09.2018 13:46 12,3 C 18,3 C 20,0 C 59 % 1028,2 hPa 0,0 l/m 22,4 km/h (4 Bft) W 264 2 min 0,000 mm 2,8 UV-I 705 W/m 4,5 C 5,6 C 30,6 km/h (5 Bft) 100,00 %
24.09.2018 13:48 12,5 C 18,3 C 20,6 C 60 % 1028,3 hPa 0,0 l/m 22,8 km/h (4 Bft) W-NW 285 2 min 0,000 mm 2,9 UV-I 708 W/m 5,0 C 5,8 C 33,8 km/h (5 Bft) 100,00 %
24.09.2018 13:50 12,6 C 18,3 C 20,6 C 59 % 1028,3 hPa 0,0 l/m 24,9 km/h (4 Bft) W 264 2 min 0,000 mm 2,9 UV-I 712 W/m 4,8 C 5,4 C 37,0 km/h (5 Bft) 100,00 %
24.09.2018 13:52 12,6 C 18,3 C 20,6 C 60 % 1028,3 hPa 0,0 l/m 27,1 km/h (4 Bft) W 270 2 min 0,000 mm 2,9 UV-I 702 W/m 5,0 C 4,9 C 38,6 km/h (5 Bft) 97,73 %
24.09.2018 13:54 12,6 C 18,3 C 20,6 C 59 % 1028,4 hPa 0,0 l/m 20,8 km/h (4 Bft) NW 305 2 min 0,000 mm 2,8 UV-I 688 W/m 4,8 C 6,4 C 32,2 km/h (5 Bft) 100,00 %
24.09.2018 13:56 12,6 C 18,3 C 20,0 C 59 % 1028,4 hPa 0,0 l/m 29,2 km/h (5 Bft) W 266 2 min 0,000 mm 2,9 UV-I 704 W/m 4,8 C 4,5 C 40,2 km/h (6 Bft) 100,00 %
24.09.2018 13:59 12,7 C 18,3 C 21,1 C 60 % 1028,2 hPa 0,0 l/m 26,1 km/h (4 Bft) W 273 3 min 0,000 mm 2,8 UV-I 746 W/m 5,1 C 5,2 C 43,5 km/h (6 Bft) 98,75 %
24.09.2018 14:00 12,8 C 18,3 C 20,6 C 58 % 1028,2 hPa 0,0 l/m 31,3 km/h (5 Bft) W 262 1 min 0,000 mm 2,7 UV-I 714 W/m 4,7 C 4,4 C 45,1 km/h (6 Bft) 95,65 %
24.09.2018 14:02 12,7 C 18,3 C 18,3 C 57 % 1028,3 hPa 0,0 l/m 24,3 km/h (4 Bft) W-SW 258 2 min 0,381 mm 2,1 UV-I 543 W/m 4,4 C 5,7 C 54,7 km/h (7 Bft) 100,00 %
24.09.2018 14:04 12,5 C 18,3 C 16,7 C 58 % 1028,3 hPa 0,0 l/m 30,0 km/h (5 Bft) W-NW 284 0 min 0,000 mm 2,4 UV-I 221 W/m 4,5 C 4,2 C 43,5 km/h (6 Bft) 100,00 %
24.09.2018 14:06 12,3 C 18,3 C 17,2 C 58 % 1028,2 hPa 0,0 l/m 20,2 km/h (4 Bft) W 270 0 min 0,000 mm 2,3 UV-I 225 W/m 4,3 C 6,2 C 30,6 km/h (5 Bft) 100,00 %
24.09.2018 14:08 12,3 C 18,3 C 17,8 C 59 % 1028,3 hPa 0,0 l/m 19,5 km/h (3 Bft) W-NW 297 0 min 0,000 mm 2,5 UV-I 225 W/m 4,5 C 6,4 C 30,6 km/h (5 Bft) 100,00 %
24.09.2018 14:10 12,4 C 18,3 C 18,9 C 58 % 1028,3 hPa 0,0 l/m 18,2 km/h (3 Bft) N-NW 327 2 min 0,000 mm 2,8 UV-I 634 W/m 4,4 C 6,9 C 35,4 km/h (5 Bft) 100,00 %
24.09.2018 14:12 12,7 C 18,3 C 20,0 C 59 % 1028,4 hPa 0,0 l/m 20,0 km/h (4 Bft) W 269 2 min 0,000 mm 2,7 UV-I 672 W/m 4,9 C 6,8 C 32,2 km/h (5 Bft) 100,00 %
24.09.2018 14:14 12,8 C 18,3 C 20,6 C 56 % 1028,4 hPa 0,0 l/m 23,6 km/h (4 Bft) W 281 2 min 0,000 mm 2,7 UV-I 685 W/m 4,2 C 6,0 C 45,1 km/h (6 Bft) 100,00 %
24.09.2018 14:16 12,8 C 18,3 C 20,6 C 55 % 1028,4 hPa 0,0 l/m 18,3 km/h (3 Bft) W 277 2 min 0,000 mm 2,7 UV-I 708 W/m 4,0 C 7,4 C 40,2 km/h (6 Bft) 100,00 %
24.09.2018 14:18 12,8 C 18,3 C 18,9 C 56 % 1028,5 hPa 0,0 l/m 21,0 km/h (4 Bft) W 269 2 min 0,000 mm 2,2 UV-I 765 W/m 4,2 C 6,6 C 35,4 km/h (5 Bft) 100,00 %
24.09.2018 14:20 12,6 C 18,3 C 17,2 C 56 % 1028,4 hPa 0,0 l/m 19,9 km/h (4 Bft) W 265 2 min 0,000 mm 2,0 UV-I 765 W/m 4,1 C 6,7 C 32,2 km/h (5 Bft) 100,00 %
24.09.2018 14:22 12,4 C 18,3 C 15,6 C 56 % 1028,4 hPa 0,0 l/m 23,9 km/h (4 Bft) W-SW 256 0 min 0,000 mm 1,4 UV-I 290 W/m 3,9 C 5,3 C 41,8 km/h (6 Bft) 97,73 %
24.09.2018 14:24 12,2 C 18,3 C 15,0 C 58 % 1028,5 hPa 0,0 l/m 26,8 km/h (4 Bft) W 277 0 min 0,000 mm 1,9 UV-I 211 W/m 4,2 C 4,4 C 51,5 km/h (7 Bft) 100,00 %
24.09.2018 14:26 12,1 C 18,3 C 17,2 C 59 % 1028,4 hPa 0,0 l/m 13,5 km/h (3 Bft) W 263 2 min 0,000 mm 2,4 UV-I 544 W/m 4,3 C 8,3 C 24,1 km/h (4 Bft) 95,74 %
24.09.2018 14:28 12,2 C 18,3 C 17,2 C 59 % 1028,4 hPa 0,0 l/m 20,4 km/h (4 Bft) W 271 2 min 0,000 mm 2,5 UV-I 639 W/m 4,4 C 6,0 C 30,6 km/h (5 Bft) 96,15 %
24.09.2018 14:30 12,2 C 18,3 C 18,9 C 59 % 1028,4 hPa 0,0 l/m 14,3 km/h (3 Bft) W-NW 291 2 min 0,000 mm 2,5 UV-I 619 W/m 4,4 C 8,1 C 20,9 km/h (4 Bft) 96,77 %
24.09.2018 14:32 12,4 C 18,3 C 19,4 C 60 % 1028,4 hPa 0,0 l/m 12,6 km/h (3 Bft) W 281 2 min 0,000 mm 2,5 UV-I 608 W/m 4,9 C 9,0 C 22,5 km/h (4 Bft) 97,73 %
24.09.2018 14:34 12,6 C 18,3 C 20,6 C 61 % 1028,4 hPa 0,0 l/m 12,9 km/h (3 Bft) W-NW 282 2 min 0,000 mm 2,4 UV-I 599 W/m 5,3 C 9,1 C 22,5 km/h (4 Bft) 96,23 %
24.09.2018 14:36 12,8 C 18,3 C 20,0 C 60 % 1028,4 hPa 0,0 l/m 13,2 km/h (3 Bft) W-SW 244 2 min 0,000 mm 2,4 UV-I 580 W/m 5,2 C 9,2 C 19,3 km/h (3 Bft) 97,56 %
24.09.2018 14:39 12,9 C 18,3 C 18,9 C 60 % 1028,4 hPa 0,0 l/m 14,7 km/h (3 Bft) W 281 3 min 0,000 mm 2,1 UV-I 602 W/m 5,3 C 8,8 C 22,5 km/h (4 Bft) 97,30 %
24.09.2018 14:40 12,9 C 18,3 C 18,9 C 60 % 1028,4 hPa 0,0 l/m 17,9 km/h (3 Bft) W-SW 240 1 min 0,000 mm 2,2 UV-I 601 W/m 5,3 C 7,7 C 25,7 km/h (4 Bft) 96,55 %
24.09.2018 14:42 12,7 C 18,3 C 16,1 C 58 % 1028,3 hPa 0,0 l/m 20,8 km/h (4 Bft) W-SW 257 0 min 0,000 mm 1,4 UV-I 272 W/m 4,7 C 6,5 C 35,4 km/h (5 Bft) 95,74 %
24.09.2018 14:44 12,5 C 18,3 C 15,6 C 59 % 1028,4 hPa 0,0 l/m 16,9 km/h (3 Bft) SW 235 0 min 0,000 mm 2,0 UV-I 280 W/m 4,7 C 7,5 C 25,7 km/h (4 Bft) 93,62 %
24.09.2018 14:46 12,4 C 18,3 C 16,1 C 58 % 1028,5 hPa 0,0 l/m 22,9 km/h (4 Bft) W-NW 290 2 min 0,000 mm 2,2 UV-I 560 W/m 4,4 C 5,6 C 45,1 km/h (6 Bft) 95,74 %
24.09.2018 14:48 12,5 C 18,3 C 17,2 C 59 % 1028,5 hPa 0,0 l/m 15,4 km/h (3 Bft) W-SW 244 2 min 0,000 mm 2,1 UV-I 607 W/m 4,7 C 8,0 C 27,4 km/h (4 Bft) 94,74 %
24.09.2018 14:50 12,7 C 18,3 C 18,3 C 58 % 1028,4 hPa 0,0 l/m 21,0 km/h (4 Bft) W-NW 290 2 min 0,000 mm 2,2 UV-I 584 W/m 4,7 C 6,5 C 35,4 km/h (5 Bft) 96,23 %
24.09.2018 14:52 12,7 C 18,3 C 18,3 C 56 % 1028,4 hPa 0,0 l/m 19,9 km/h (4 Bft) W-SW 246 2 min 0,000 mm 2,2 UV-I 569 W/m 4,2 C 6,8 C 37,0 km/h (5 Bft) 97,62 %
24.09.2018 14:54 12,8 C 18,3 C 18,9 C 57 % 1028,4 hPa 0,0 l/m 12,8 km/h (3 Bft) W 277 2 min 0,000 mm 2,2 UV-I 559 W/m 4,5 C 9,4 C 22,5 km/h (4 Bft) 98,11 %
24.09.2018 14:56 12,8 C 18,3 C 18,9 C 56 % 1028,4 hPa 0,0 l/m 17,5 km/h (3 Bft) W 259 2 min 0,000 mm 2,2 UV-I 552 W/m 4,2 C 7,7 C 32,2 km/h (5 Bft) 95,12 %
24.09.2018 14:58 13,0 C 18,3 C 18,9 C 57 % 1028,4 hPa 0,0 l/m 21,1 km/h (4 Bft) W-SW 250 2 min 0,000 mm 2,1 UV-I 551 W/m 4,7 C 6,9 C 33,8 km/h (5 Bft) 98,00 %
24.09.2018 15:00 13,1 C 18,3 C 18,9 C 56 % 1028,4 hPa 0,0 l/m 21,2 km/h (4 Bft) W-SW 253 2 min 0,331 mm 2,1 UV-I 551 W/m 4,5 C 7,0 C 37,0 km/h (5 Bft) 97,87 %
24.09.2018 15:02 13,0 C 18,3 C 18,3 C 55 % 1028,3 hPa 0,0 l/m 29,1 km/h (5 Bft) W-NW 300 2 min 0,000 mm 2,1 UV-I 551 W/m 4,2 C 5,0 C 53,1 km/h (7 Bft) 96,23 %
24.09.2018 15:04 13,0 C 18,3 C 18,9 C 55 % 1028,5 hPa 0,0 l/m 22,1 km/h (4 Bft) NW 308 2 min 0,000 mm 2,0 UV-I 552 W/m 4,2 C 6,6 C 33,8 km/h (5 Bft) 97,56 %
24.09.2018 15:06 13,0 C 18,3 C 18,9 C 54 % 1028,3 hPa 0,0 l/m 17,7 km/h (3 Bft) SW 231 2 min 0,000 mm 2,0 UV-I 568 W/m 3,9 C 7,9 C 25,7 km/h (4 Bft) 97,56 %
24.09.2018 15:08 13,0 C 18,3 C 18,9 C 56 % 1028,5 hPa 0,0 l/m 17,6 km/h (3 Bft) W 277 2 min 0,000 mm 2,0 UV-I 574 W/m 4,4 C 7,9 C 32,2 km/h (5 Bft) 98,11 %
24.09.2018 15:10 13,1 C 18,3 C 17,8 C 58 % 1028,5 hPa 0,0 l/m 20,0 km/h (4 Bft) W-SW 254 2 min 0,000 mm 1,9 UV-I 575 W/m 5,0 C 7,3 C 30,6 km/h (5 Bft) 100,00 %
24.09.2018 15:12 13,0 C 18,3 C 16,1 C 55 % 1028,5 hPa 0,0 l/m 21,5 km/h (4 Bft) W-NW 286 2 min 0,000 mm 1,5 UV-I 575 W/m 4,2 C 6,8 C 30,6 km/h (5 Bft) 100,00 %
24.09.2018 15:14 12,8 C 18,3 C 15,0 C 56 % 1028,6 hPa 0,0 l/m 14,0 km/h (3 Bft) W-SW 257 2 min 0,000 mm 1,4 UV-I 575 W/m 4,2 C 8,9 C 22,5 km/h (4 Bft) 100,00 %
24.09.2018 15:16 12,6 C 18,3 C 16,1 C 56 % 1028,4 hPa 0,0 l/m 15,7 km/h (3 Bft) W 259 0 min 0,000 mm 1,6 UV-I 210 W/m 4,1 C 8,0 C 25,7 km/h (4 Bft) 100,00 %
24.09.2018 15:18 12,7 C 18,3 C 17,2 C 56 % 1028,4 hPa 0,0 l/m 20,3 km/h (4 Bft) N-NW 340 2 min 0,000 mm 1,8 UV-I 548 W/m 4,2 C 6,7 C 41,8 km/h (6 Bft) 98,21 %
24.09.2018 15:20 12,8 C 18,3 C 17,2 C 57 % 1028,3 hPa 0,0 l/m 20,1 km/h (4 Bft) SW 236 2 min 0,000 mm 1,8 UV-I 547 W/m 4,5 C 6,9 C 27,4 km/h (4 Bft) 95,12 %
24.09.2018 15:22 12,9 C 18,3 C 17,2 C 57 % 1028,4 hPa 0,0 l/m 21,1 km/h (4 Bft) W 268 2 min 0,000 mm 1,8 UV-I 534 W/m 4,6 C 6,7 C 33,8 km/h (5 Bft) 96,00 %
24.09.2018 15:24 13,0 C 18,3 C 16,1 C 55 % 1028,4 hPa 0,0 l/m 20,0 km/h (4 Bft) W-NW 296 2 min 0,000 mm 1,7 UV-I 519 W/m 4,2 C 7,2 C 32,2 km/h (5 Bft) 100,00 %
24.09.2018 15:26 12,9 C 18,3 C 15,6 C 55 % 1028,3 hPa 0,0 l/m 22,8 km/h (4 Bft) W-SW 257 2 min 0,000 mm 1,7 UV-I 520 W/m 4,1 C 6,3 C 33,8 km/h (5 Bft) 100,00 %
24.09.2018 15:28 12,9 C 18,3 C 15,0 C 56 % 1028,2 hPa 0,0 l/m 23,0 km/h (4 Bft) W-NW 283 2 min 0,000 mm 1,2 UV-I 294 W/m 4,3 C 6,2 C 35,4 km/h (5 Bft) 100,00 %
24.09.2018 15:30 12,7 C 18,3 C 14,4 C 55 % 1028,3 hPa 0,0 l/m 15,6 km/h (3 Bft) W 274 0 min 0,000 mm 1,3 UV-I 125 W/m 3,9 C 8,2 C 33,8 km/h (5 Bft) 94,64 %
24.09.2018 15:32 12,5 C 18,3 C 13,3 C 55 % 1028,3 hPa 0,0 l/m 24,3 km/h (4 Bft) W-SW 250 0 min 0,000 mm 1,2 UV-I 104 W/m 3,7 C 5,4 C 41,8 km/h (6 Bft) 100,00 %
24.09.2018 15:34 12,4 C 18,3 C 13,3 C 57 % 1028,3 hPa 0,0 l/m 13,2 km/h (3 Bft) NW 306 2 min 0,000 mm 1,5 UV-I 336 W/m 4,1 C 8,8 C 20,9 km/h (4 Bft) 100,00 %
24.09.2018 15:36 12,4 C 18,3 C 13,3 C 59 % 1028,3 hPa 0,0 l/m 11,8 km/h (2 Bft) W-NW 288 2 min 0,000 mm 1,4 UV-I 503 W/m 4,6 C 9,4 C 19,3 km/h (3 Bft) 100,00 %
24.09.2018 15:38 12,4 C 18,3 C 13,3 C 57 % 1028,4 hPa 0,0 l/m 16,0 km/h (3 Bft) W 259 2 min 0,000 mm 1,6 UV-I 481 W/m 4,1 C 7,7 C 25,7 km/h (4 Bft) 100,00 %
24.09.2018 15:40 12,6 C 18,3 C 13,3 C 57 % 1028,3 hPa 0,0 l/m 20,7 km/h (4 Bft) W-SW 258 2 min 0,000 mm 1,5 UV-I 489 W/m 4,3 C 6,4 C 32,2 km/h (5 Bft) 98,00 %
24.09.2018 15:42 12,7 C 18,3 C 13,9 C 57 % 1028,4 hPa 0,0 l/m 17,6 km/h (3 Bft) W 266 2 min 0,000 mm 1,5 UV-I 511 W/m 4,4 C 7,5 C 25,7 km/h (4 Bft) 100,00 %
24.09.2018 15:44 12,9 C 18,3 C 13,9 C 56 % 1028,3 hPa 0,0 l/m 15,7 km/h (3 Bft) W 271 2 min 0,000 mm 1,5 UV-I 514 W/m 4,3 C 8,4 C 25,7 km/h (4 Bft) 100,00 %
24.09.2018 15:46 13,0 C 18,3 C 13,9 C 56 % 1028,3 hPa 0,0 l/m 17,0 km/h (3 Bft) SW 235 2 min 0,000 mm 1,5 UV-I 499 W/m 4,4 C 8,1 C 30,6 km/h (5 Bft) 98,11 %
24.09.2018 15:48 13,1 C 18,3 C 13,9 C 54 % 1028,3 hPa 0,0 l/m 20,2 km/h (4 Bft) W-NW 296 2 min 0,000 mm 1,4 UV-I 473 W/m 4,0 C 7,2 C 35,4 km/h (5 Bft) 100,00 %
24.09.2018 15:50 13,1 C 18,3 C 13,9 C 56 % 1028,3 hPa 0,0 l/m 14,9 km/h (3 Bft) W-SW 257 2 min 0,000 mm 1,4 UV-I 458 W/m 4,5 C 8,9 C 25,7 km/h (4 Bft) 97,73 %
24.09.2018 15:52 13,2 C 18,3 C 13,9 C 56 % 1028,3 hPa 0,0 l/m 11,7 km/h (2 Bft) N 9 2 min 0,000 mm 1,4 UV-I 461 W/m 4,6 C 10,3 C 20,9 km/h (4 Bft) 96,00 %
24.09.2018 15:54 13,3 C 18,3 C 14,4 C 56 % 1028,2 hPa 0,0 l/m 12,0 km/h (2 Bft) W 276 2 min 0,000 mm 1,3 UV-I 495 W/m 4,7 C 10,3 C 17,7 km/h (3 Bft) 97,56 %
24.09.2018 15:56 13,3 C 18,3 C 13,9 C 53 % 1028,2 hPa 0,0 l/m 22,3 km/h (4 Bft) W-SW 257 2 min 0,000 mm 1,3 UV-I 476 W/m 3,9 C 6,9 C 40,2 km/h (6 Bft) 98,00 %
24.09.2018 15:58 13,2 C 18,3 C 13,9 C 53 % 1028,1 hPa 0,0 l/m 25,0 km/h (4 Bft) W 265 2 min 0,000 mm 1,3 UV-I 436 W/m 3,8 C 6,2 C 37,0 km/h (5 Bft) 98,00 %
24.09.2018 16:00 13,1 C 18,3 C 13,3 C 53 % 1028,2 hPa 0,0 l/m 23,3 km/h (4 Bft) NW 317 2 min 0,000 mm 1,3 UV-I 433 W/m 3,7 C 6,4 C 35,4 km/h (5 Bft) 95,74 %
24.09.2018 16:02 13,1 C 18,3 C 13,3 C 54 % 1028,3 hPa 0,0 l/m 19,5 km/h (3 Bft) W 278 2 min 0,304 mm 1,3 UV-I 449 W/m 4,0 C 7,4 C 37,0 km/h (5 Bft) 97,37 %
24.09.2018 16:04 12,9 C 18,3 C 13,3 C 54 % 1028,3 hPa 0,0 l/m 18,0 km/h (3 Bft) W-SW 250 2 min 0,000 mm 1,3 UV-I 435 W/m 3,8 C 7,6 C 29,0 km/h (5 Bft) 96,23 %
24.09.2018 16:06 13,0 C 18,3 C 13,3 C 55 % 1028,4 hPa 0,0 l/m 20,2 km/h (4 Bft) W 259 2 min 0,000 mm 1,3 UV-I 434 W/m 4,2 C 7,1 C 30,6 km/h (5 Bft) 95,12 %
24.09.2018 16:08 12,9 C 18,3 C 13,3 C 55 % 1028,4 hPa 0,0 l/m 17,4 km/h (3 Bft) W 275 2 min 0,000 mm 1,2 UV-I 418 W/m 4,1 C 7,8 C 30,6 km/h (5 Bft) 97,92 %
24.09.2018 16:10 12,9 C 18,3 C 13,3 C 55 % 1028,3 hPa 0,0 l/m 21,2 km/h (4 Bft) W-SW 256 2 min 0,000 mm 1,0 UV-I 315 W/m 4,1 C 6,7 C 35,4 km/h (5 Bft) 97,73 %
24.09.2018 16:12 12,7 C 18,3 C 13,3 C 56 % 1028,4 hPa 0,0 l/m 17,0 km/h (3 Bft) W 277 0 min 0,000 mm 1,0 UV-I 132 W/m 4,2 C 7,7 C 25,7 km/h (4 Bft) 98,00 %
24.09.2018 16:14 12,7 C 18,3 C 13,3 C 55 % 1028,3 hPa 0,0 l/m 16,7 km/h (3 Bft) W 261 2 min 0,000 mm 1,1 UV-I 457 W/m 3,9 C 7,8 C 24,1 km/h (4 Bft) 100,00 %
24.09.2018 16:16 12,8 C 18,3 C 13,9 C 57 % 1028,4 hPa 0,0 l/m 17,0 km/h (3 Bft) W-NW 289 2 min 0,000 mm 1,1 UV-I 454 W/m 4,5 C 7,8 C 30,6 km/h (5 Bft) 100,00 %
24.09.2018 16:18 12,8 C 18,9 C 13,3 C 56 % 1028,3 hPa 0,0 l/m 11,6 km/h (2 Bft) W-SW 253 2 min 0,000 mm 1,0 UV-I 431 W/m 4,2 C 9,9 C 17,7 km/h (3 Bft) 100,00 %
24.09.2018 16:20 12,9 C 18,3 C 13,3 C 56 % 1028,2 hPa 0,0 l/m 19,5 km/h (3 Bft) W 267 2 min 0,000 mm 0,9 UV-I 267 W/m 4,3 C 7,2 C 29,0 km/h (5 Bft) 100,00 %
24.09.2018 16:22 12,8 C 18,3 C 13,3 C 56 % 1028,3 hPa 0,0 l/m 15,0 km/h (3 Bft) W 261 0 min 0,000 mm 0,7 UV-I 107 W/m 4,2 C 8,5 C 24,1 km/h (4 Bft) 100,00 %
24.09.2018 16:24 12,6 C 18,3 C 12,8 C 56 % 1028,4 hPa 0,0 l/m 18,7 km/h (3 Bft) W 265 0 min 0,000 mm 0,7 UV-I 118 W/m 4,1 C 7,0 C 30,6 km/h (5 Bft) 100,00 %
24.09.2018 16:26 12,3 C 18,3 C 12,8 C 56 % 1028,4 hPa 0,0 l/m 21,4 km/h (4 Bft) W-NW 282 0 min 0,000 mm 0,7 UV-I 134 W/m 3,8 C 5,9 C 33,8 km/h (5 Bft) 98,00 %
24.09.2018 16:28 12,2 C 18,3 C 12,8 C 56 % 1028,3 hPa 0,0 l/m 24,0 km/h (4 Bft) SW 229 0 min 0,000 mm 0,7 UV-I 132 W/m 3,7 C 5,1 C 40,2 km/h (6 Bft) 96,00 %
24.09.2018 16:30 12,1 C 18,3 C 12,8 C 56 % 1028,3 hPa 0,0 l/m 21,6 km/h (4 Bft) W 269 0 min 0,000 mm 0,6 UV-I 112 W/m 3,6 C 5,5 C 30,6 km/h (5 Bft) 97,87 %
24.09.2018 16:32 12,1 C 18,3 C 12,2 C 56 % 1028,2 hPa 0,0 l/m 19,3 km/h (3 Bft) W 279 0 min 0,000 mm 0,6 UV-I 81 W/m 3,6 C 6,2 C 29,0 km/h (5 Bft) 97,37 %
24.09.2018 16:34 12,0 C 18,3 C 12,2 C 57 % 1028,3 hPa 0,0 l/m 15,7 km/h (3 Bft) W-NW 298 0 min 0,000 mm 0,5 UV-I 91 W/m 3,8 C 7,3 C 22,5 km/h (4 Bft) 98,00 %
24.09.2018 16:36 11,9 C 18,3 C 12,2 C 57 % 1028,3 hPa 0,0 l/m 18,0 km/h (3 Bft) NW 305 0 min 0,000 mm 0,7 UV-I 105 W/m 3,7 C 6,4 C 25,7 km/h (4 Bft) 97,73 %
24.09.2018 16:38 12,1 C 18,3 C 12,2 C 57 % 1028,3 hPa 0,0 l/m 15,3 km/h (3 Bft) SW 221 2 min 0,000 mm 0,8 UV-I 348 W/m 3,8 C 7,6 C 27,4 km/h (4 Bft) 98,00 %
24.09.2018 16:40 12,2 C 18,3 C 12,2 C 57 % 1028,4 hPa 0,0 l/m 12,7 km/h (3 Bft) W-NW 283 2 min 0,000 mm 0,8 UV-I 328 W/m 3,9 C 8,7 C 22,5 km/h (4 Bft) 96,00 %
24.09.2018 16:42 12,2 C 18,3 C 12,2 C 56 % 1028,3 hPa 0,0 l/m 19,8 km/h (3 Bft) W-NW 298 2 min 0,000 mm 0,8 UV-I 303 W/m 3,7 C 6,2 C 27,4 km/h (4 Bft) 95,74 %
24.09.2018 16:44 12,3 C 18,3 C 12,2 C 56 % 1028,3 hPa 0,0 l/m 10,7 km/h (2 Bft) W 279 2 min 0,000 mm 0,7 UV-I 321 W/m 3,8 C 9,8 C 19,3 km/h (3 Bft) 97,87 %
24.09.2018 16:46 12,3 C 18,3 C 12,2 C 57 % 1028,4 hPa 0,0 l/m 13,4 km/h (3 Bft) W-SW 246 2 min 0,000 mm 0,7 UV-I 313 W/m 4,0 C 8,6 C 22,5 km/h (4 Bft) 97,44 %
24.09.2018 16:48 12,5 C 18,3 C 12,2 C 57 % 1028,4 hPa 0,0 l/m 14,7 km/h (3 Bft) W 261 2 min 0,000 mm 0,7 UV-I 314 W/m 4,2 C 8,3 C 22,5 km/h (4 Bft) 96,36 %
24.09.2018 16:50 12,6 C 18,3 C 12,2 C 57 % 1028,4 hPa 0,0 l/m 13,6 km/h (3 Bft) W-SW 255 2 min 0,000 mm 0,6 UV-I 281 W/m 4,3 C 8,8 C 22,5 km/h (4 Bft) 97,62 %
24.09.2018 16:52 12,6 C 18,3 C 12,2 C 56 % 1028,3 hPa 0,0 l/m 13,6 km/h (3 Bft) W-NW 283 0 min 0,000 mm 0,6 UV-I 111 W/m 4,1 C 8,8 C 19,3 km/h (3 Bft) 96,00 %
24.09.2018 16:54 12,6 C 18,3 C 12,2 C 57 % 1028,4 hPa 0,0 l/m 9,1 km/h (2 Bft) W 263 0 min 0,000 mm 0,6 UV-I 109 W/m 4,3 C 10,9 C 17,7 km/h (3 Bft) 100,00 %
24.09.2018 16:56 12,6 C 18,3 C 12,8 C 56 % 1028,4 hPa 0,0 l/m 14,4 km/h (3 Bft) W-NW 291 0 min 0,000 mm 0,6 UV-I 154 W/m 4,1 C 8,5 C 22,5 km/h (4 Bft) 98,53 %
24.09.2018 16:58 12,6 C 18,3 C 12,8 C 57 % 1028,4 hPa 0,0 l/m 10,5 km/h (2 Bft) W 259 2 min 0,000 mm 0,5 UV-I 279 W/m 4,3 C 10,2 C 20,9 km/h (4 Bft) 100,00 %
24.09.2018 17:00 12,6 C 18,3 C 12,8 C 56 % 1028,4 hPa 0,0 l/m 8,8 km/h (2 Bft) N-NW 327 2 min 0,000 mm 0,5 UV-I 264 W/m 4,1 C 11,1 C 19,3 km/h (3 Bft) 100,00 %
24.09.2018 17:02 12,5 C 18,3 C 12,8 C 58 % 1028,4 hPa 0,0 l/m 7,2 km/h (2 Bft) W-NW 286 0 min 0,204 mm 0,0 UV-I 99 W/m 4,5 C 12,0 C 16,1 km/h (3 Bft) 100,00 %
24.09.2018 17:04 12,4 C 18,3 C 12,8 C 57 % 1028,5 hPa 0,0 l/m 10,1 km/h (2 Bft) W-SW 252 0 min 0,000 mm 0,0 UV-I 94 W/m 4,1 C 10,2 C 16,1 km/h (3 Bft) 100,00 %
24.09.2018 17:06 12,3 C 18,3 C 12,8 C 57 % 1028,5 hPa 0,0 l/m 9,9 km/h (2 Bft) W-NW 293 0 min 0,000 mm 0,0 UV-I 107 W/m 4,0 C 10,2 C 20,9 km/h (4 Bft) 100,00 %
24.09.2018 17:08 12,3 C 18,3 C 12,8 C 59 % 1028,5 hPa 0,0 l/m 8,5 km/h (2 Bft) W 266 0 min 0,000 mm 0,0 UV-I 105 W/m 4,5 C 11,0 C 14,5 km/h (3 Bft) 100,00 %
24.09.2018 17:10 12,2 C 18,3 C 12,2 C 58 % 1028,5 hPa 0,0 l/m 6,7 km/h (2 Bft) W 261 0 min 0,000 mm 0,0 UV-I 98 W/m 4,2 C 12,0 C 11,3 km/h (2 Bft) 100,00 %
24.09.2018 17:12 12,3 C 18,3 C 12,2 C 59 % 1028,5 hPa 0,0 l/m 12,5 km/h (3 Bft) N-NW 333 2 min 0,000 mm 0,4 UV-I 176 W/m 4,5 C 8,9 C 19,3 km/h (3 Bft) 95,74 %
24.09.2018 17:14 12,4 C 18,3 C 12,2 C 58 % 1028,6 hPa 0,0 l/m 9,0 km/h (2 Bft) NW 313 2 min 0,000 mm 0,2 UV-I 250 W/m 4,4 C 10,8 C 17,7 km/h (3 Bft) 97,37 %
24.09.2018 17:16 12,5 C 18,3 C 12,2 C 57 % 1028,6 hPa 0,0 l/m 11,6 km/h (2 Bft) W 277 2 min 0,000 mm 0,0 UV-I 250 W/m 4,2 C 9,6 C 17,7 km/h (3 Bft) 98,00 %
24.09.2018 17:18 12,5 C 18,3 C 12,2 C 57 % 1028,6 hPa 0,0 l/m 11,1 km/h (2 Bft) W-SW 251 2 min 0,000 mm 0,0 UV-I 252 W/m 4,2 C 9,8 C 19,3 km/h (3 Bft) 97,87 %
24.09.2018 17:20 12,6 C 18,3 C 12,2 C 58 % 1028,6 hPa 0,0 l/m 8,9 km/h (2 Bft) W 263 2 min 0,000 mm 0,0 UV-I 238 W/m 4,6 C 11,1 C 16,1 km/h (3 Bft) 95,12 %
24.09.2018 17:22 12,6 C 18,3 C 12,2 C 57 % 1028,6 hPa 0,0 l/m 13,8 km/h (3 Bft) N 5 0 min 0,000 mm 0,0 UV-I 107 W/m 4,3 C 8,7 C 20,9 km/h (4 Bft) 98,21 %
24.09.2018 17:24 12,3 C 18,3 C 12,2 C 56 % 1028,6 hPa 0,0 l/m 12,5 km/h (3 Bft) W 275 0 min 0,000 mm 0,0 UV-I 70 W/m 3,8 C 8,9 C 19,3 km/h (3 Bft) 91,67 %
24.09.2018 17:26 12,2 C 18,3 C 12,2 C 57 % 1028,7 hPa 0,0 l/m 9,0 km/h (2 Bft) W 267 0 min 0,000 mm 0,0 UV-I 77 W/m 3,9 C 10,6 C 20,9 km/h (4 Bft) 97,14 %
24.09.2018 17:28 12,1 C 18,3 C 12,2 C 56 % 1028,7 hPa 0,0 l/m 16,3 km/h (3 Bft) NW 304 0 min 0,000 mm 0,0 UV-I 88 W/m 3,6 C 7,2 C 27,4 km/h (4 Bft) 97,22 %
24.09.2018 17:30 12,1 C 18,3 C 12,2 C 56 % 1028,6 hPa 0,0 l/m 15,0 km/h (3 Bft) W 265 0 min 0,000 mm 0,0 UV-I 92 W/m 3,6 C 7,7 C 29,0 km/h (5 Bft) 98,00 %
24.09.2018 17:32 12,0 C 18,3 C 12,2 C 57 % 1028,6 hPa 0,0 l/m 17,8 km/h (3 Bft) W 267 0 min 0,000 mm 0,0 UV-I 111 W/m 3,8 C 6,6 C 29,0 km/h (5 Bft) 97,87 %
24.09.2018 17:34 12,0 C 18,3 C 12,2 C 58 % 1028,6 hPa 0,0 l/m 11,7 km/h (2 Bft) W 271 2 min 0,000 mm 0,0 UV-I 205 W/m 4,0 C 9,0 C 17,7 km/h (3 Bft) 98,00 %
24.09.2018 17:36 12,1 C 18,3 C 12,2 C 56 % 1028,7 hPa 0,0 l/m 15,7 km/h (3 Bft) W-NW 285 2 min 0,000 mm 0,0 UV-I 210 W/m 3,6 C 7,4 C 25,7 km/h (4 Bft) 100,00 %
24.09.2018 17:38 12,2 C 18,3 C 12,8 C 58 % 1028,7 hPa 0,0 l/m 8,7 km/h (2 Bft) W 268 2 min 0,000 mm 0,0 UV-I 220 W/m 4,2 C 10,7 C 19,3 km/h (3 Bft) 100,00 %
24.09.2018 17:40 12,3 C 18,3 C 12,8 C 56 % 1028,7 hPa 0,0 l/m 16,1 km/h (3 Bft) W-SW 257 2 min 0,000 mm 0,0 UV-I 194 W/m 3,8 C 7,5 C 24,1 km/h (4 Bft) 100,00 %
24.09.2018 17:42 12,3 C 18,3 C 12,8 C 56 % 1028,8 hPa 0,0 l/m 12,9 km/h (3 Bft) W 261 2 min 0,000 mm 0,0 UV-I 185 W/m 3,8 C 8,8 C 20,9 km/h (4 Bft) 100,00 %
24.09.2018 17:44 12,3 C 18,3 C 12,2 C 56 % 1028,8 hPa 0,0 l/m 19,4 km/h (3 Bft) W-SW 250 2 min 0,000 mm 0,0 UV-I 153 W/m 3,8 C 6,4 C 33,8 km/h (5 Bft) 100,00 %
24.09.2018 17:46 12,2 C 18,3 C 12,2 C 54 % 1028,8 hPa 0,0 l/m 16,0 km/h (3 Bft) W-SW 255 0 min 0,000 mm 0,0 UV-I 65 W/m 3,2 C 7,4 C 24,1 km/h (4 Bft) 98,00 %
24.09.2018 17:48 12,1 C 18,3 C 11,7 C 55 % 1028,9 hPa 0,0 l/m 17,0 km/h (3 Bft) W 270 0 min 0,000 mm 0,0 UV-I 57 W/m 3,3 C 7,0 C 25,7 km/h (4 Bft) 100,00 %
24.09.2018 17:50 12,0 C 18,3 C 11,7 C 55 % 1028,9 hPa 0,0 l/m 14,2 km/h (3 Bft) W 259 0 min 0,000 mm 0,0 UV-I 54 W/m 3,2 C 7,9 C 22,5 km/h (4 Bft) 98,11 %
24.09.2018 17:52 11,9 C 18,3 C 11,1 C 54 % 1028,9 hPa 0,0 l/m 14,3 km/h (3 Bft) W 277 0 min 0,000 mm 0,0 UV-I 51 W/m 2,9 C 7,7 C 20,9 km/h (4 Bft) 100,00 %
24.09.2018 17:54 11,8 C 18,3 C 11,1 C 55 % 1028,9 hPa 0,0 l/m 14,2 km/h (3 Bft) W 266 0 min 0,000 mm 0,0 UV-I 45 W/m 3,1 C 7,6 C 24,1 km/h (4 Bft) 100,00 %
24.09.2018 17:56 11,7 C 18,3 C 11,1 C 56 % 1028,9 hPa 0,0 l/m 13,0 km/h (3 Bft) SW 233 0 min 0,000 mm 0,0 UV-I 41 W/m 3,2 C 8,0 C 17,7 km/h (3 Bft) 100,00 %
24.09.2018 17:58 11,7 C 18,3 C 10,6 C 56 % 1029,0 hPa 0,0 l/m 15,9 km/h (3 Bft) W-NW 290 0 min 0,000 mm 0,0 UV-I 40 W/m 3,2 C 6,9 C 22,5 km/h (4 Bft) 100,00 %
24.09.2018 18:00 11,6 C 18,3 C 10,6 C 56 % 1029,0 hPa 0,0 l/m 14,1 km/h (3 Bft) W-SW 252 0 min 0,000 mm 0,0 UV-I 40 W/m 3,1 C 7,4 C 22,5 km/h (4 Bft) 100,00 %
24.09.2018 18:02 11,6 C 18,3 C 10,6 C 56 % 1029,0 hPa 0,0 l/m 10,5 km/h (2 Bft) W 269 0 min 0,127 mm 0,0 UV-I 67 W/m 3,1 C 9,1 C 16,1 km/h (3 Bft) 100,00 %
24.09.2018 18:04 11,5 C 18,3 C 10,6 C 57 % 1029,0 hPa 0,0 l/m 10,3 km/h (2 Bft) W-NW 299 2 min 0,000 mm 0,0 UV-I 108 W/m 3,3 C 9,1 C 16,1 km/h (3 Bft) 100,00 %
24.09.2018 18:06 11,6 C 18,3 C 11,1 C 57 % 1029,0 hPa 0,0 l/m 12,3 km/h (3 Bft) W-SW 254 0 min 0,000 mm 0,0 UV-I 63 W/m 3,4 C 8,2 C 17,7 km/h (3 Bft) 96,36 %
24.09.2018 18:09 11,6 C 18,3 C 11,1 C 56 % 1029,0 hPa 0,0 l/m 13,9 km/h (3 Bft) W-SW 249 0 min 0,000 mm 0,0 UV-I 64 W/m 3,1 C 7,5 C 24,1 km/h (4 Bft) 96,92 %
24.09.2018 18:10 11,6 C 18,3 C 11,1 C 56 % 1029,0 hPa 0,0 l/m 13,8 km/h (3 Bft) W 265 0 min 0,000 mm 0,0 UV-I 65 W/m 3,1 C 7,6 C 19,3 km/h (3 Bft) 96,30 %
24.09.2018 18:12 11,6 C 18,3 C 11,1 C 57 % 1029,1 hPa 0,0 l/m 11,5 km/h (2 Bft) NW 311 0 min 0,000 mm 0,0 UV-I 63 W/m 3,4 C 8,6 C 20,9 km/h (4 Bft) 97,73 %
24.09.2018 18:14 11,5 C 18,3 C 11,1 C 57 % 1029,2 hPa 0,0 l/m 9,5 km/h (2 Bft) W-SW 251 2 min 0,000 mm 0,0 UV-I 62 W/m 3,3 C 9,5 C 14,5 km/h (3 Bft) 96,23 %
24.09.2018 18:16 11,5 C 18,3 C 11,1 C 58 % 1029,2 hPa 0,0 l/m 9,0 km/h (2 Bft) W-SW 254 2 min 0,000 mm 0,0 UV-I 91 W/m 3,5 C 9,8 C 14,5 km/h (3 Bft) 95,74 %
24.09.2018 18:18 11,5 C 18,3 C 11,1 C 59 % 1029,1 hPa 0,0 l/m 8,8 km/h (2 Bft) W-NW 282 2 min 0,000 mm 0,0 UV-I 88 W/m 3,8 C 9,9 C 12,9 km/h (3 Bft) 92,11 %
24.09.2018 18:20 11,5 C 18,3 C 11,1 C 59 % 1029,1 hPa 0,0 l/m 9,0 km/h (2 Bft) W 273 2 min 0,000 mm 0,0 UV-I 76 W/m 3,8 C 9,8 C 14,5 km/h (3 Bft) 97,56 %
24.09.2018 18:22 11,4 C 18,3 C 11,1 C 58 % 1029,1 hPa 0,0 l/m 11,0 km/h (2 Bft) W 269 2 min 0,000 mm 0,0 UV-I 56 W/m 3,4 C 8,6 C 17,7 km/h (3 Bft) 96,23 %
24.09.2018 18:24 11,4 C 18,3 C 11,1 C 58 % 1029,2 hPa 0,0 l/m 8,3 km/h (2 Bft) W 271 0 min 0,000 mm 0,0 UV-I 43 W/m 3,4 C 10,1 C 16,1 km/h (3 Bft) 94,34 %
24.09.2018 18:26 11,4 C 18,3 C 11,1 C 59 % 1029,2 hPa 0,0 l/m 12,0 km/h (2 Bft) NW 316 0 min 0,000 mm 0,0 UV-I 39 W/m 3,7 C 8,1 C 16,1 km/h (3 Bft) 94,74 %
24.09.2018 18:28 11,4 C 18,3 C 11,1 C 59 % 1029,2 hPa 0,0 l/m 11,5 km/h (2 Bft) W-SW 248 0 min 0,000 mm 0,0 UV-I 36 W/m 3,7 C 8,4 C 22,5 km/h (4 Bft) 96,23 %
24.09.2018 18:30 11,4 C 18,3 C 11,1 C 58 % 1029,3 hPa 0,0 l/m 11,5 km/h (2 Bft) W-SW 245 0 min 0,000 mm 0,0 UV-I 35 W/m 3,4 C 8,4 C 24,1 km/h (4 Bft) 93,62 %
24.09.2018 18:32 11,4 C 18,3 C 11,1 C 58 % 1029,3 hPa 0,0 l/m 12,7 km/h (3 Bft) W-SW 254 2 min 0,000 mm 0,0 UV-I 37 W/m 3,4 C 7,8 C 17,7 km/h (3 Bft) 92,00 %
24.09.2018 18:34 11,4 C 18,3 C 11,1 C 59 % 1029,4 hPa 0,0 l/m 14,1 km/h (3 Bft) W-NW 286 2 min 0,000 mm 0,0 UV-I 37 W/m 3,7 C 7,2 C 24,1 km/h (4 Bft) 89,36 %
24.09.2018 18:36 11,4 C 18,3 C 11,1 C 58 % 1029,4 hPa 0,0 l/m 11,5 km/h (2 Bft) W 277 2 min 0,000 mm 0,0 UV-I 37 W/m 3,4 C 8,4 C 19,3 km/h (3 Bft) 92,11 %
24.09.2018 18:38 11,4 C 18,3 C 10,6 C 58 % 1029,4 hPa 0,0 l/m 8,5 km/h (2 Bft) W 263 2 min 0,000 mm 0,0 UV-I 33 W/m 3,4 C 10,0 C 16,1 km/h (3 Bft) 94,64 %
24.09.2018 18:40 11,3 C 18,3 C 10,6 C 59 % 1029,4 hPa 0,0 l/m 9,0 km/h (2 Bft) W 259 2 min 0,000 mm 0,0 UV-I 31 W/m 3,6 C 9,6 C 12,9 km/h (3 Bft) 90,24 %
24.09.2018 18:42 11,3 C 18,3 C 10,6 C 59 % 1029,5 hPa 0,0 l/m 8,5 km/h (2 Bft) NW 304 2 min 0,000 mm 0,0 UV-I 24 W/m 3,6 C 9,9 C 12,9 km/h (3 Bft) 92,86 %
24.09.2018 18:44 11,2 C 18,3 C 10,6 C 59 % 1029,5 hPa 0,0 l/m 10,9 km/h (2 Bft) W-NW 287 2 min 0,000 mm 0,0 UV-I 19 W/m 3,5 C 8,4 C 17,7 km/h (3 Bft) 94,34 %
24.09.2018 18:46 11,2 C 18,3 C 10,6 C 59 % 1029,5 hPa 0,0 l/m 8,4 km/h (2 Bft) W-NW 300 2 min 0,000 mm 0,0 UV-I 18 W/m 3,5 C 9,9 C 17,7 km/h (3 Bft) 93,62 %
24.09.2018 18:48 11,1 C 18,3 C 10,0 C 59 % 1029,5 hPa 0,0 l/m 12,0 km/h (2 Bft) NW 304 0 min 0,000 mm 0,0 UV-I 18 W/m 3,4 C 7,8 C 19,3 km/h (3 Bft) 91,49 %
24.09.2018 18:50 11,1 C 18,3 C 10,0 C 59 % 1029,6 hPa 0,0 l/m 7,8 km/h (2 Bft) W-SW 252 0 min 0,000 mm 0,0 UV-I 16 W/m 3,4 C 10,1 C 14,5 km/h (3 Bft) 95,74 %
24.09.2018 18:52 11,1 C 18,3 C 10,0 C 59 % 1029,6 hPa 0,0 l/m 10,0 km/h (2 Bft) W 277 0 min 0,000 mm 0,0 UV-I 12 W/m 3,4 C 8,8 C 19,3 km/h (3 Bft) 96,00 %
24.09.2018 18:54 11,0 C 18,3 C 10,0 C 59 % 1029,6 hPa 0,0 l/m 11,9 km/h (2 Bft) W 270 0 min 0,000 mm 0,0 UV-I 11 W/m 3,3 C 7,7 C 20,9 km/h (4 Bft) 94,29 %
24.09.2018 18:56 10,9 C 18,3 C 9,4 C 59 % 1029,6 hPa 0,0 l/m 8,7 km/h (2 Bft) W 259 0 min 0,000 mm 0,0 UV-I 9 W/m 3,2 C 9,4 C 14,5 km/h (3 Bft) 95,12 %
24.09.2018 18:58 10,9 C 18,3 C 9,4 C 59 % 1029,6 hPa 0,0 l/m 8,9 km/h (2 Bft) W 277 0 min 0,000 mm 0,0 UV-I 9 W/m 3,2 C 9,2 C 14,5 km/h (3 Bft) 96,23 %
24.09.2018 19:00 10,8 C 18,3 C 9,4 C 59 % 1029,6 hPa 0,0 l/m 9,0 km/h (2 Bft) W-SW 250 0 min 0,000 mm 0,0 UV-I 8 W/m 3,1 C 9,1 C 14,5 km/h (3 Bft) 96,23 %
24.09.2018 19:02 10,7 C 18,3 C 9,4 C 59 % 1029,6 hPa 0,0 l/m 11,6 km/h (2 Bft) W 266 0 min 0,076 mm 0,0 UV-I 7 W/m 3,0 C 7,5 C 20,9 km/h (4 Bft) 97,87 %
24.09.2018 19:04 10,7 C 18,3 C 9,4 C 59 % 1029,7 hPa 0,0 l/m 8,3 km/h (2 Bft) W-SW 254 0 min 0,000 mm 0,0 UV-I 7 W/m 3,0 C 9,4 C 16,1 km/h (3 Bft) 96,00 %
24.09.2018 19:06 10,7 C 18,3 C 9,4 C 60 % 1029,7 hPa 0,0 l/m 9,1 km/h (2 Bft) W-NW 289 0 min 0,000 mm 0,0 UV-I 6 W/m 3,3 C 8,9 C 12,9 km/h (3 Bft) 97,37 %
24.09.2018 19:08 10,6 C 18,3 C 8,9 C 60 % 1029,7 hPa 0,0 l/m 8,3 km/h (2 Bft) W 271 0 min 0,000 mm 0,0 UV-I 5 W/m 3,2 C 9,3 C 12,9 km/h (3 Bft) 98,00 %
24.09.2018 19:10 10,6 C 18,3 C 8,9 C 60 % 1029,7 hPa 0,0 l/m 9,0 km/h (2 Bft) W 270 0 min 0,000 mm 0,0 UV-I 5 W/m 3,2 C 8,8 C 16,1 km/h (3 Bft) 98,11 %
24.09.2018 19:12 10,4 C 18,3 C 8,9 C 61 % 1029,8 hPa 0,0 l/m 10,7 km/h (2 Bft) W-SW 252 0 min 0,000 mm 0,0 UV-I 5 W/m 3,2 C 7,6 C 16,1 km/h (3 Bft) 100,00 %
24.09.2018 19:14 10,4 C 18,3 C 8,9 C 61 % 1029,8 hPa 0,0 l/m 7,2 km/h (2 Bft) W 261 0 min 0,000 mm 0,0 UV-I 1 W/m 3,2 C 9,8 C 12,9 km/h (3 Bft) 100,00 %
24.09.2018 19:16 10,3 C 18,3 C 8,9 C 61 % 1029,8 hPa 0,0 l/m 7,6 km/h (2 Bft) W-SW 258 0 min 0,000 mm 0,0 UV-I 0 W/m 3,1 C 9,4 C 11,3 km/h (2 Bft) 100,00 %
24.09.2018 19:18 10,3 C 18,3 C 8,3 C 62 % 1029,9 hPa 0,0 l/m 6,5 km/h (2 Bft) W-SW 246 0 min 0,000 mm 0,0 UV-I 0 W/m 3,3 C 10,3 C 11,3 km/h (2 Bft) 100,00 %
24.09.2018 19:20 10,2 C 18,3 C 8,3 C 62 % 1029,9 hPa 0,0 l/m 6,1 km/h (2 Bft) W 265 0 min 0,000 mm 0,0 UV-I 0 W/m 3,3 C 10,2 C 8,0 km/h (2 Bft) 100,00 %
24.09.2018 19:22 10,1 C 18,3 C 8,3 C 62 % 1029,9 hPa 0,0 l/m 7,0 km/h (2 Bft) W 262 0 min 0,000 mm 0,0 UV-I 0 W/m 3,2 C 9,7 C 11,3 km/h (2 Bft) 100,00 %
24.09.2018 19:24 10,1 C 18,3 C 8,3 C 62 % 1029,9 hPa 0,0 l/m 5,6 km/h (1 Bft) W-SW 247 0 min 0,000 mm 0,0 UV-I 0 W/m 3,2 C 10,1 C 9,7 km/h (2 Bft) 100,00 %
24.09.2018 19:26 10,0 C 18,3 C 7,8 C 63 % 1029,9 hPa 0,0 l/m 4,7 km/h (1 Bft) W-SW 250 0 min 0,000 mm 0,0 UV-I 0 W/m 3,3 C 10,0 C 9,7 km/h (2 Bft) 100,00 %
24.09.2018 19:28 9,9 C 18,3 C 7,8 C 64 % 1029,9 hPa 0,0 l/m 6,5 km/h (2 Bft) W-SW 239 0 min 0,000 mm 0,0 UV-I 0 W/m 3,4 C 9,9 C 9,7 km/h (2 Bft) 100,00 %
24.09.2018 19:30 9,9 C 18,3 C 7,8 C 64 % 1030,0 hPa 0,0 l/m 5,4 km/h (1 Bft) W-SW 237 0 min 0,000 mm 0,0 UV-I 0 W/m 3,4 C 9,9 C 8,0 km/h (2 Bft) 96,00 %
24.09.2018 19:32 9,8 C 18,3 C 7,8 C 65 % 1030,0 hPa 0,0 l/m 5,9 km/h (2 Bft) SW 235 0 min 0,000 mm 0,0 UV-I 0 W/m 3,5 C 9,8 C 8,0 km/h (2 Bft) 100,00 %
24.09.2018 19:34 9,8 C 18,3 C 7,8 C 65 % 1030,1 hPa 0,0 l/m 6,5 km/h (2 Bft) W-SW 246 0 min 0,000 mm 0,0 UV-I 0 W/m 3,5 C 9,8 C 8,0 km/h (2 Bft) 100,00 %
24.09.2018 19:36 9,7 C 18,3 C 7,8 C 65 % 1030,1 hPa 0,0 l/m 7,6 km/h (2 Bft) SW 219 0 min 0,000 mm 0,0 UV-I 0 W/m 3,4 C 8,8 C 9,7 km/h (2 Bft) 100,00 %
24.09.2018 19:38 9,7 C 18,3 C 8,3 C 65 % 1030,2 hPa 0,0 l/m 6,1 km/h (2 Bft) SW 235 0 min 0,000 mm 0,0 UV-I 0 W/m 3,4 C 9,7 C 8,0 km/h (2 Bft) 100,00 %
24.09.2018 19:40 9,7 C 18,3 C 8,3 C 65 % 1030,2 hPa 0,0 l/m 6,6 km/h (2 Bft) SW 219 0 min 0,000 mm 0,0 UV-I 0 W/m 3,4 C 9,6 C 8,0 km/h (2 Bft) 100,00 %
24.09.2018 19:42 9,8 C 18,3 C 8,3 C 64 % 1030,2 hPa 0,0 l/m 5,9 km/h (2 Bft) SW 221 0 min 0,000 mm 0,0 UV-I 0 W/m 3,3 C 9,8 C 8,0 km/h (2 Bft) 100,00 %
24.09.2018 19:44 9,8 C 18,3 C 8,3 C 64 % 1030,3 hPa 0,0 l/m 6,7 km/h (2 Bft) SW 222 0 min 0,000 mm 0,0 UV-I 0 W/m 3,3 C 9,6 C 9,7 km/h (2 Bft) 100,00 %
24.09.2018 19:46 9,8 C 18,3 C 8,3 C 65 % 1030,3 hPa 0,0 l/m 6,0 km/h (2 Bft) S-SW 213 0 min 0,000 mm 0,0 UV-I 0 W/m 3,5 C 9,8 C 8,0 km/h (2 Bft) 100,00 %
24.09.2018 19:48 9,8 C 18,3 C 8,9 C 65 % 1030,3 hPa 0,0 l/m 6,6 km/h (2 Bft) SW 216 0 min 0,000 mm 0,0 UV-I 0 W/m 3,5 C 9,7 C 9,7 km/h (2 Bft) 100,00 %
24.09.2018 19:50 9,8 C 18,3 C 8,9 C 65 % 1030,3 hPa 0,0 l/m 7,1 km/h (2 Bft) SW 219 0 min 0,000 mm 0,0 UV-I 0 W/m 3,5 C 9,3 C 11,3 km/h (2 Bft) 100,00 %
24.09.2018 19:52 9,8 C 18,3 C 8,9 C 66 % 1030,3 hPa 0,0 l/m 6,5 km/h (2 Bft) SW 234 0 min 0,000 mm 0,0 UV-I 0 W/m 3,8 C 9,8 C 9,7 km/h (2 Bft) 100,00 %
24.09.2018 19:54 9,8 C 18,3 C 8,9 C 67 % 1030,3 hPa 0,0 l/m 6,2 km/h (2 Bft) SW 227 0 min 0,000 mm 0,0 UV-I 0 W/m 4,0 C 9,8 C 9,7 km/h (2 Bft) 100,00 %
24.09.2018 19:56 9,7 C 18,3 C 8,9 C 66 % 1030,4 hPa 0,0 l/m 6,2 km/h (2 Bft) W-SW 238 0 min 0,000 mm 0,0 UV-I 0 W/m 3,7 C 9,7 C 11,3 km/h (2 Bft) 96,23 %
24.09.2018 19:58 9,7 C 18,3 C 8,9 C 67 % 1030,4 hPa 0,0 l/m 7,1 km/h (2 Bft) W-SW 243 0 min 0,000 mm 0,0 UV-I 0 W/m 3,9 C 9,2 C 11,3 km/h (2 Bft) 97,73 %
24.09.2018 20:00 9,7 C 18,3 C 8,9 C 67 % 1030,5 hPa 0,0 l/m 6,4 km/h (2 Bft) W-SW 252 0 min 0,000 mm 0,0 UV-I 0 W/m 3,9 C 9,7 C 8,0 km/h (2 Bft) 100,00 %
24.09.2018 20:02 9,7 C 18,3 C 8,9 C 68 % 1030,5 hPa 0,0 l/m 7,8 km/h (2 Bft) W-SW 243 0 min 0,025 mm 0,0 UV-I 0 W/m 4,1 C 8,7 C 11,3 km/h (2 Bft) 98,00 %
24.09.2018 20:04 9,6 C 18,3 C 8,9 C 69 % 1030,6 hPa 0,0 l/m 8,2 km/h (2 Bft) SW 229 0 min 0,000 mm 0,0 UV-I 0 W/m 4,2 C 8,3 C 12,9 km/h (3 Bft) 97,37 %
24.09.2018 20:06 9,6 C 18,3 C 8,9 C 69 % 1030,6 hPa 0,0 l/m 8,4 km/h (2 Bft) W-SW 243 0 min 0,000 mm 0,0 UV-I 0 W/m 4,2 C 8,2 C 12,9 km/h (3 Bft) 96,00 %
24.09.2018 20:09 9,4 C 18,3 C 8,9 C 70 % 1030,6 hPa 0,0 l/m 6,8 km/h (2 Bft) W-SW 254 0 min 0,000 mm 0,0 UV-I 0 W/m 4,2 C 9,1 C 11,3 km/h (2 Bft) 98,51 %
24.09.2018 20:10 9,4 C 18,3 C 8,9 C 70 % 1030,6 hPa 0,0 l/m 7,2 km/h (2 Bft) W-SW 245 0 min 0,000 mm 0,0 UV-I 0 W/m 4,2 C 8,8 C 11,3 km/h (2 Bft) 96,30 %
24.09.2018 20:12 9,4 C 18,3 C 8,3 C 71 % 1030,6 hPa 0,0 l/m 8,2 km/h (2 Bft) SW 232 0 min 0,000 mm 0,0 UV-I 0 W/m 4,4 C 8,1 C 12,9 km/h (3 Bft) 97,56 %
24.09.2018 20:14 9,4 C 18,3 C 8,3 C 70 % 1030,6 hPa 0,0 l/m 10,0 km/h (2 Bft) SW 232 0 min 0,000 mm 0,0 UV-I 0 W/m 4,2 C 6,9 C 14,5 km/h (3 Bft) 97,87 %
24.09.2018 20:16 9,4 C 18,3 C 8,3 C 70 % 1030,6 hPa 0,0 l/m 9,9 km/h (2 Bft) SW 232 0 min 0,000 mm 0,0 UV-I 0 W/m 4,2 C 7,0 C 12,9 km/h (3 Bft) 98,00 %
24.09.2018 20:19 9,4 C 18,3 C 8,3 C 71 % 1030,6 hPa 0,0 l/m 9,4 km/h (2 Bft) W-SW 240 0 min 0,000 mm 0,0 UV-I 0 W/m 4,4 C 7,3 C 14,5 km/h (3 Bft) 98,65 %
24.09.2018 20:20 9,3 C 18,3 C 8,3 C 71 % 1030,6 hPa 0,0 l/m 8,1 km/h (2 Bft) W-SW 258 0 min 0,000 mm 0,0 UV-I 0 W/m 4,3 C 8,0 C 12,9 km/h (3 Bft) 95,65 %
24.09.2018 20:22 9,3 C 18,3 C 8,3 C 71 % 1030,6 hPa 0,0 l/m 8,0 km/h (2 Bft) W 259 0 min 0,000 mm 0,0 UV-I 0 W/m 4,3 C 8,1 C 11,3 km/h (2 Bft) 97,56 %
24.09.2018 20:24 9,3 C 18,3 C 7,8 C 71 % 1030,6 hPa 0,0 l/m 10,2 km/h (2 Bft) W-SW 237 0 min 0,000 mm 0,0 UV-I 0 W/m 4,3 C 6,7 C 14,5 km/h (3 Bft) 96,00 %
24.09.2018 20:26 9,2 C 18,3 C 7,8 C 71 % 1030,6 hPa 0,0 l/m 7,5 km/h (2 Bft) W-SW 244 0 min 0,000 mm 0,0 UV-I 0 W/m 4,2 C 8,4 C 11,3 km/h (2 Bft) 95,45 %
24.09.2018 20:29 9,1 C 18,3 C 7,8 C 71 % 1030,6 hPa 0,0 l/m 9,0 km/h (2 Bft) W-SW 248 0 min 0,000 mm 0,0 UV-I 0 W/m 4,1 C 7,2 C 14,5 km/h (3 Bft) 94,59 %
24.09.2018 20:30 9,1 C 18,3 C 7,8 C 71 % 1030,6 hPa 0,0 l/m 10,6 km/h (2 Bft) W-SW 254 0 min 0,000 mm 0,0 UV-I 0 W/m 4,1 C 6,2 C 14,5 km/h (3 Bft) 100,00 %
24.09.2018 20:32 9,1 C 17,8 C 7,2 C 71 % 1030,7 hPa 0,0 l/m 10,3 km/h (2 Bft) W-SW 252 0 min 0,000 mm 0,0 UV-I 0 W/m 4,1 C 6,4 C 17,7 km/h (3 Bft) 94,87 %
24.09.2018 20:34 9,1 C 18,3 C 7,2 C 72 % 1030,7 hPa 0,0 l/m 8,9 km/h (2 Bft) W-SW 245 0 min 0,000 mm 0,0 UV-I 0 W/m 4,3 C 7,3 C 16,1 km/h (3 Bft) 94,55 %
24.09.2018 20:36 9,1 C 17,8 C 7,2 C 71 % 1030,8 hPa 0,0 l/m 10,2 km/h (2 Bft) SW 233 0 min 0,000 mm 0,0 UV-I 0 W/m 4,1 C 6,5 C 14,5 km/h (3 Bft) 98,00 %
24.09.2018 20:38 9,1 C 17,8 C 7,8 C 71 % 1030,8 hPa 0,0 l/m 9,1 km/h (2 Bft) W-SW 254 0 min 0,000 mm 0,0 UV-I 0 W/m 4,1 C 7,2 C 12,9 km/h (3 Bft) 98,00 %
24.09.2018 20:40 9,1 C 17,8 C 7,8 C 71 % 1030,8 hPa 0,0 l/m 8,3 km/h (2 Bft) W-SW 242 0 min 0,000 mm 0,0 UV-I 0 W/m 4,1 C 7,7 C 11,3 km/h (2 Bft) 97,37 %
24.09.2018 20:42 9,0 C 17,8 C 7,8 C 72 % 1030,8 hPa 0,0 l/m 9,7 km/h (2 Bft) W-SW 238 0 min 0,000 mm 0,0 UV-I 0 W/m 4,2 C 6,7 C 14,5 km/h (3 Bft) 98,11 %
24.09.2018 20:44 8,9 C 17,8 C 7,2 C 73 % 1030,8 hPa 0,0 l/m 9,4 km/h (2 Bft) S-SW 203 0 min 0,000 mm 0,0 UV-I 0 W/m 4,3 C 6,8 C 14,5 km/h (3 Bft) 97,87 %
24.09.2018 20:46 8,9 C 17,8 C 7,2 C 73 % 1030,7 hPa 0,0 l/m 9,2 km/h (2 Bft) W-SW 237 0 min 0,000 mm 0,0 UV-I 0 W/m 4,3 C 6,9 C 12,9 km/h (3 Bft) 97,37 %
24.09.2018 20:48 8,8 C 17,8 C 7,2 C 73 % 1030,7 hPa 0,0 l/m 8,0 km/h (2 Bft) W-SW 245 0 min 0,000 mm 0,0 UV-I 0 W/m 4,2 C 7,6 C 14,5 km/h (3 Bft) 96,43 %
24.09.2018 20:50 8,8 C 17,8 C 7,2 C 73 % 1030,7 hPa 0,0 l/m 10,9 km/h (2 Bft) W-SW 243 0 min 0,000 mm 0,0 UV-I 0 W/m 4,2 C 5,7 C 12,9 km/h (3 Bft) 97,37 %
24.09.2018 20:52 8,8 C 17,8 C 7,2 C 73 % 1030,7 hPa 0,0 l/m 10,6 km/h (2 Bft) W-SW 254 0 min 0,000 mm 0,0 UV-I 0 W/m 4,2 C 5,9 C 17,7 km/h (3 Bft) 96,23 %
24.09.2018 20:54 8,8 C 17,8 C 7,2 C 74 % 1030,7 hPa 0,0 l/m 10,3 km/h (2 Bft) W-SW 239 0 min 0,000 mm 0,0 UV-I 0 W/m 4,4 C 6,1 C 14,5 km/h (3 Bft) 92,00 %
24.09.2018 20:56 8,8 C 17,8 C 7,2 C 74 % 1030,8 hPa 0,0 l/m 11,5 km/h (2 Bft) W-SW 242 0 min 0,000 mm 0,0 UV-I 0 W/m 4,4 C 5,4 C 16,1 km/h (3 Bft) 97,56 %
24.09.2018 20:58 8,8 C 17,8 C 7,2 C 74 % 1030,9 hPa 0,0 l/m 11,6 km/h (2 Bft) SW 235 0 min 0,000 mm 0,0 UV-I 0 W/m 4,4 C 5,3 C 16,1 km/h (3 Bft) 97,87 %
24.09.2018 21:00 8,7 C 17,8 C 7,2 C 74 % 1030,9 hPa 0,0 l/m 10,3 km/h (2 Bft) SW 233 0 min 0,000 mm 0,0 UV-I 0 W/m 4,3 C 6,0 C 16,1 km/h (3 Bft) 97,56 %
24.09.2018 21:02 8,7 C 17,8 C 7,2 C 74 % 1030,9 hPa 0,0 l/m 7,9 km/h (2 Bft) W-SW 249 0 min 0,026 mm 0,0 UV-I 0 W/m 4,3 C 7,6 C 11,3 km/h (2 Bft) 100,00 %
24.09.2018 21:04 8,7 C 17,8 C 7,2 C 74 % 1031,0 hPa 0,0 l/m 8,0 km/h (2 Bft) W-SW 254 0 min 0,000 mm 0,0 UV-I 0 W/m 4,3 C 7,5 C 12,9 km/h (3 Bft) 100,00 %
24.09.2018 21:06 8,6 C 17,8 C 7,2 C 74 % 1031,0 hPa 0,0 l/m 9,1 km/h (2 Bft) W-SW 244 0 min 0,000 mm 0,0 UV-I 0 W/m 4,2 C 6,6 C 12,9 km/h (3 Bft) 100,00 %
24.09.2018 21:08 8,6 C 17,8 C 7,2 C 74 % 1031,0 hPa 0,0 l/m 9,1 km/h (2 Bft) W-SW 241 0 min 0,000 mm 0,0 UV-I 0 W/m 4,2 C 6,6 C 14,5 km/h (3 Bft) 100,00 %
24.09.2018 21:10 8,6 C 17,8 C 7,2 C 74 % 1031,0 hPa 0,0 l/m 10,1 km/h (2 Bft) W-SW 258 0 min 0,000 mm 0,0 UV-I 0 W/m 4,2 C 6,0 C 17,7 km/h (3 Bft) 100,00 %
24.09.2018 21:12 8,6 C 17,8 C 7,2 C 74 % 1031,0 hPa 0,0 l/m 12,3 km/h (3 Bft) SW 221 0 min 0,000 mm 0,0 UV-I 0 W/m 4,2 C 4,7 C 17,7 km/h (3 Bft) 100,00 %
24.09.2018 21:14 8,6 C 17,8 C 7,2 C 75 % 1031,0 hPa 0,0 l/m 12,1 km/h (2 Bft) W-SW 238 0 min 0,000 mm 0,0 UV-I 0 W/m 4,4 C 4,8 C 17,7 km/h (3 Bft) 100,00 %
24.09.2018 21:16 8,6 C 17,8 C 7,2 C 75 % 1030,9 hPa 0,0 l/m 12,8 km/h (3 Bft) SW 236 0 min 0,000 mm 0,0 UV-I 0 W/m 4,4 C 4,5 C 17,7 km/h (3 Bft) 96,55 %
24.09.2018 21:18 8,6 C 17,8 C 7,2 C 75 % 1031,0 hPa 0,0 l/m 13,6 km/h (3 Bft) SW 228 0 min 0,000 mm 0,0 UV-I 0 W/m 4,4 C 4,1 C 17,7 km/h (3 Bft) 98,53 %
24.09.2018 21:20 8,4 C 17,8 C 7,2 C 75 % 1031,0 hPa 0,0 l/m 12,6 km/h (3 Bft) SW 221 0 min 0,000 mm 0,0 UV-I 0 W/m 4,2 C 4,4 C 17,7 km/h (3 Bft) 94,00 %
24.09.2018 21:22 8,4 C 17,8 C 7,2 C 75 % 1030,9 hPa 0,0 l/m 11,6 km/h (2 Bft) W-SW 248 0 min 0,000 mm 0,0 UV-I 0 W/m 4,2 C 4,9 C 16,1 km/h (3 Bft) 98,00 %
24.09.2018 21:24 8,4 C 17,8 C 6,7 C 76 % 1031,1 hPa 0,0 l/m 13,3 km/h (3 Bft) SW 231 0 min 0,000 mm 0,0 UV-I 0 W/m 4,4 C 4,0 C 17,7 km/h (3 Bft) 97,37 %
24.09.2018 21:26 8,3 C 17,8 C 6,7 C 76 % 1031,1 hPa 0,0 l/m 13,7 km/h (3 Bft) SW 233 0 min 0,000 mm 0,0 UV-I 0 W/m 4,3 C 3,7 C 17,7 km/h (3 Bft) 98,11 %
24.09.2018 21:28 8,3 C 17,8 C 7,2 C 76 % 1031,1 hPa 0,0 l/m 14,9 km/h (3 Bft) SW 232 0 min 0,000 mm 0,0 UV-I 0 W/m 4,3 C 3,1 C 20,9 km/h (4 Bft) 97,37 %
24.09.2018 21:30 8,3 C 17,8 C 7,2 C 76 % 1031,1 hPa 0,0 l/m 12,9 km/h (3 Bft) W-SW 238 0 min 0,000 mm 0,0 UV-I 0 W/m 4,3 C 4,1 C 19,3 km/h (3 Bft) 98,11 %
24.09.2018 21:32 8,4 C 17,8 C 7,2 C 76 % 1031,1 hPa 0,0 l/m 10,9 km/h (2 Bft) W-SW 257 0 min 0,000 mm 0,0 UV-I 0 W/m 4,4 C 5,3 C 16,1 km/h (3 Bft) 97,87 %
24.09.2018 21:34 8,4 C 17,8 C 7,2 C 76 % 1031,1 hPa 0,0 l/m 11,8 km/h (2 Bft) W-SW 242 0 min 0,000 mm 0,0 UV-I 0 W/m 4,4 C 4,8 C 17,7 km/h (3 Bft) 95,74 %
24.09.2018 21:36 8,4 C 17,8 C 7,2 C 77 % 1031,1 hPa 0,0 l/m 11,2 km/h (2 Bft) W 259 0 min 0,000 mm 0,0 UV-I 0 W/m 4,6 C 5,1 C 16,1 km/h (3 Bft) 98,00 %
24.09.2018 21:39 8,4 C 17,8 C 7,2 C 76 % 1031,2 hPa 0,0 l/m 11,1 km/h (2 Bft) W-SW 247 0 min 0,000 mm 0,0 UV-I 0 W/m 4,4 C 5,2 C 17,7 km/h (3 Bft) 95,77 %
24.09.2018 21:40 8,4 C 17,8 C 7,2 C 76 % 1031,2 hPa 0,0 l/m 10,2 km/h (2 Bft) W-SW 241 0 min 0,000 mm 0,0 UV-I 0 W/m 4,4 C 5,7 C 12,9 km/h (3 Bft) 100,00 %
24.09.2018 21:42 8,5 C 17,8 C 7,2 C 76 % 1031,2 hPa 0,0 l/m 11,4 km/h (2 Bft) SW 231 0 min 0,000 mm 0,0 UV-I 0 W/m 4,5 C 5,1 C 17,7 km/h (3 Bft) 96,23 %
24.09.2018 21:44 8,5 C 17,8 C 7,2 C 76 % 1031,2 hPa 0,0 l/m 11,8 km/h (2 Bft) W-SW 248 0 min 0,000 mm 0,0 UV-I 0 W/m 4,5 C 4,9 C 20,9 km/h (4 Bft) 97,87 %
24.09.2018 21:46 8,6 C 17,8 C 7,2 C 75 % 1031,2 hPa 0,0 l/m 11,9 km/h (2 Bft) W-SW 239 0 min 0,000 mm 0,0 UV-I 0 W/m 4,4 C 5,0 C 17,7 km/h (3 Bft) 94,00 %
24.09.2018 21:48 8,6 C 17,8 C 7,2 C 75 % 1031,2 hPa 0,0 l/m 11,6 km/h (2 Bft) SW 217 0 min 0,000 mm 0,0 UV-I 0 W/m 4,4 C 5,1 C 20,9 km/h (4 Bft) 97,44 %
24.09.2018 21:50 8,6 C 17,8 C 7,2 C 75 % 1031,2 hPa 0,0 l/m 11,5 km/h (2 Bft) SW 236 0 min 0,000 mm 0,0 UV-I 0 W/m 4,4 C 5,2 C 16,1 km/h (3 Bft) 96,00 %
24.09.2018 21:52 8,6 C 17,8 C 7,2 C 75 % 1031,2 hPa 0,0 l/m 13,2 km/h (3 Bft) W-SW 248 0 min 0,000 mm 0,0 UV-I 0 W/m 4,4 C 4,3 C 19,3 km/h (3 Bft) 97,73 %
24.09.2018 21:54 8,6 C 17,8 C 7,2 C 75 % 1031,2 hPa 0,0 l/m 11,4 km/h (2 Bft) SW 231 0 min 0,000 mm 0,0 UV-I 0 W/m 4,4 C 5,2 C 16,1 km/h (3 Bft) 98,11 %
24.09.2018 21:56 8,6 C 17,8 C 7,2 C 75 % 1031,2 hPa 0,0 l/m 13,8 km/h (3 Bft) W-SW 243 0 min 0,000 mm 0,0 UV-I 0 W/m 4,4 C 4,0 C 19,3 km/h (3 Bft) 97,37 %
24.09.2018 21:58 8,6 C 17,8 C 7,2 C 75 % 1031,3 hPa 0,0 l/m 12,5 km/h (3 Bft) W-SW 241 0 min 0,000 mm 0,0 UV-I 0 W/m 4,4 C 4,6 C 17,7 km/h (3 Bft) 96,00 %
24.09.2018 22:00 8,6 C 17,8 C 7,2 C 75 % 1031,3 hPa 0,0 l/m 12,2 km/h (2 Bft) W-SW 241 0 min 0,000 mm 0,0 UV-I 0 W/m 4,4 C 4,8 C 17,7 km/h (3 Bft) 95,74 %
24.09.2018 22:02 8,6 C 17,8 C 7,8 C 74 % 1031,3 hPa 0,0 l/m 12,4 km/h (3 Bft) W-SW 244 0 min 0,025 mm 0,0 UV-I 0 W/m 4,2 C 4,7 C 16,1 km/h (3 Bft) 98,00 %
24.09.2018 22:04 8,7 C 17,8 C 7,8 C 74 % 1031,3 hPa 0,0 l/m 12,1 km/h (2 Bft) W 263 0 min 0,000 mm 0,0 UV-I 0 W/m 4,3 C 5,0 C 20,9 km/h (4 Bft) 98,00 %
24.09.2018 22:06 8,7 C 17,8 C 7,8 C 74 % 1031,3 hPa 0,0 l/m 12,7 km/h (3 Bft) W-SW 255 0 min 0,000 mm 0,0 UV-I 0 W/m 4,3 C 4,7 C 17,7 km/h (3 Bft) 97,56 %
24.09.2018 22:08 8,7 C 17,8 C 7,8 C 74 % 1031,3 hPa 0,0 l/m 11,4 km/h (2 Bft) W 273 0 min 0,000 mm 0,0 UV-I 0 W/m 4,3 C 5,3 C 17,7 km/h (3 Bft) 97,56 %
24.09.2018 22:10 8,8 C 17,8 C 7,8 C 73 % 1031,2 hPa 0,0 l/m 12,3 km/h (3 Bft) W-SW 253 0 min 0,000 mm 0,0 UV-I 0 W/m 4,2 C 5,0 C 19,3 km/h (3 Bft) 94,34 %
24.09.2018 22:12 8,8 C 17,8 C 7,8 C 73 % 1031,3 hPa 0,0 l/m 13,1 km/h (3 Bft) W-SW 246 0 min 0,000 mm 0,0 UV-I 0 W/m 4,2 C 4,6 C 19,3 km/h (3 Bft) 94,00 %
24.09.2018 22:14 8,8 C 17,8 C 7,8 C 73 % 1031,3 hPa 0,0 l/m 15,9 km/h (3 Bft) W-SW 251 0 min 0,000 mm 0,0 UV-I 0 W/m 4,2 C 3,3 C 25,7 km/h (4 Bft) 97,56 %
24.09.2018 22:16 8,8 C 17,8 C 8,3 C 73 % 1031,3 hPa 0,0 l/m 15,1 km/h (3 Bft) W-SW 254 0 min 0,000 mm 0,0 UV-I 0 W/m 4,2 C 3,6 C 22,5 km/h (4 Bft) 97,87 %
24.09.2018 22:18 8,9 C 17,8 C 8,3 C 73 % 1031,3 hPa 0,0 l/m 15,6 km/h (3 Bft) W 268 0 min 0,000 mm 0,0 UV-I 0 W/m 4,3 C 3,5 C 25,7 km/h (4 Bft) 96,00 %
24.09.2018 22:20 8,9 C 17,8 C 8,3 C 72 % 1031,3 hPa 0,0 l/m 17,0 km/h (3 Bft) W-NW 286 0 min 0,000 mm 0,0 UV-I 0 W/m 4,1 C 3,0 C 22,5 km/h (4 Bft) 97,73 %
24.09.2018 22:22 8,9 C 17,8 C 8,3 C 72 % 1031,3 hPa 0,0 l/m 12,3 km/h (3 Bft) W 275 0 min 0,000 mm 0,0 UV-I 0 W/m 4,1 C 5,1 C 17,7 km/h (3 Bft) 98,11 %
24.09.2018 22:24 9,0 C 17,8 C 8,3 C 72 % 1031,3 hPa 0,0 l/m 13,5 km/h (3 Bft) W-SW 254 0 min 0,000 mm 0,0 UV-I 0 W/m 4,2 C 4,6 C 19,3 km/h (3 Bft) 97,73 %
24.09.2018 22:26 9,0 C 17,8 C 8,3 C 72 % 1031,3 hPa 0,0 l/m 15,6 km/h (3 Bft) W-NW 285 0 min 0,000 mm 0,0 UV-I 0 W/m 4,2 C 3,7 C 20,9 km/h (4 Bft) 96,00 %
24.09.2018 22:29 9,1 C 17,8 C 8,3 C 72 % 1031,3 hPa 0,0 l/m 15,7 km/h (3 Bft) W-SW 243 0 min 0,000 mm 0,0 UV-I 0 W/m 4,3 C 3,7 C 22,5 km/h (4 Bft) 95,59 %
24.09.2018 22:30 9,1 C 17,8 C 8,3 C 72 % 1031,3 hPa 0,0 l/m 15,5 km/h (3 Bft) W 271 0 min 0,000 mm 0,0 UV-I 0 W/m 4,3 C 3,8 C 19,3 km/h (3 Bft) 95,83 %
24.09.2018 22:32 9,1 C 17,8 C 8,3 C 72 % 1031,3 hPa 0,0 l/m 17,2 km/h (3 Bft) W-SW 240 0 min 0,000 mm 0,0 UV-I 0 W/m 4,3 C 3,1 C 25,7 km/h (4 Bft) 100,00 %
24.09.2018 22:34 9,1 C 17,8 C 8,3 C 73 % 1031,3 hPa 0,0 l/m 18,0 km/h (3 Bft) SW 234 0 min 0,000 mm 0,0 UV-I 0 W/m 4,5 C 2,8 C 25,7 km/h (4 Bft) 93,88 %
24.09.2018 22:36 9,1 C 17,8 C 8,3 C 73 % 1031,3 hPa 0,0 l/m 17,3 km/h (3 Bft) W 259 0 min 0,000 mm 0,0 UV-I 0 W/m 4,5 C 3,1 C 22,5 km/h (4 Bft) 94,92 %
24.09.2018 22:39 9,1 C 17,8 C 8,3 C 72 % 1031,4 hPa 0,0 l/m 15,8 km/h (3 Bft) W-SW 252 0 min 0,000 mm 0,0 UV-I 0 W/m 4,3 C 3,7 C 25,7 km/h (4 Bft) 98,51 %
24.09.2018 22:40 9,1 C 17,8 C 8,3 C 72 % 1031,4 hPa 0,0 l/m 17,1 km/h (3 Bft) W 266 0 min 0,000 mm 0,0 UV-I 0 W/m 4,3 C 3,2 C 25,7 km/h (4 Bft) 91,67 %
24.09.2018 22:42 9,1 C 17,8 C 8,3 C 71 % 1031,4 hPa 0,0 l/m 16,2 km/h (3 Bft) W 259 0 min 0,000 mm 0,0 UV-I 0 W/m 4,1 C 3,5 C 24,1 km/h (4 Bft) 94,92 %
24.09.2018 22:44 9,2 C 17,8 C 8,3 C 71 % 1031,4 hPa 0,0 l/m 16,4 km/h (3 Bft) W-SW 237 0 min 0,000 mm 0,0 UV-I 0 W/m 4,2 C 3,6 C 22,5 km/h (4 Bft) 95,65 %
24.09.2018 22:46 9,2 C 17,8 C 8,3 C 71 % 1031,4 hPa 0,0 l/m 15,5 km/h (3 Bft) SW 217 0 min 0,000 mm 0,0 UV-I 0 W/m 4,2 C 4,0 C 24,1 km/h (4 Bft) 97,06 %
24.09.2018 22:48 9,2 C 17,8 C 8,3 C 71 % 1031,3 hPa 0,0 l/m 17,2 km/h (3 Bft) SW 232 0 min 0,000 mm 0,0 UV-I 0 W/m 4,2 C 3,3 C 27,4 km/h (4 Bft) 95,12 %
24.09.2018 22:50 9,2 C 17,8 C 8,9 C 71 % 1031,4 hPa 0,0 l/m 14,7 km/h (3 Bft) W-SW 249 0 min 0,000 mm 0,0 UV-I 0 W/m 4,2 C 4,3 C 20,9 km/h (4 Bft) 94,64 %
24.09.2018 22:52 9,2 C 17,8 C 8,9 C 71 % 1031,4 hPa 0,0 l/m 16,3 km/h (3 Bft) W-SW 244 0 min 0,000 mm 0,0 UV-I 0 W/m 4,2 C 3,6 C 27,4 km/h (4 Bft) 87,80 %
24.09.2018 22:54 9,2 C 17,8 C 8,9 C 71 % 1031,5 hPa 0,0 l/m 16,8 km/h (3 Bft) S-SW 212 0 min 0,000 mm 0,0 UV-I 0 W/m 4,2 C 3,4 C 25,7 km/h (4 Bft) 96,23 %
24.09.2018 22:56 9,2 C 17,8 C 8,9 C 71 % 1031,5 hPa 0,0 l/m 16,7 km/h (3 Bft) W-SW 258 0 min 0,000 mm 0,0 UV-I 0 W/m 4,2 C 3,5 C 22,5 km/h (4 Bft) 94,29 %
24.09.2018 22:58 9,2 C 17,8 C 8,9 C 71 % 1031,5 hPa 0,0 l/m 16,7 km/h (3 Bft) W-SW 251 0 min 0,000 mm 0,0 UV-I 0 W/m 4,2 C 3,5 C 25,7 km/h (4 Bft) 96,43 %
24.09.2018 23:00 9,1 C 17,8 C 8,9 C 71 % 1031,6 hPa 0,0 l/m 16,4 km/h (3 Bft) W 267 0 min 0,000 mm 0,0 UV-I 0 W/m 4,1 C 3,5 C 22,5 km/h (4 Bft) 96,00 %
24.09.2018 23:02 9,1 C 17,8 C 8,9 C 71 % 1031,6 hPa 0,0 l/m 15,4 km/h (3 Bft) W-SW 257 0 min 0,051 mm 0,0 UV-I 0 W/m 4,1 C 3,9 C 25,7 km/h (4 Bft) 97,22 %
24.09.2018 23:04 9,1 C 17,8 C 8,9 C 71 % 1031,6 hPa 0,0 l/m 15,5 km/h (3 Bft) SW 234 0 min 0,000 mm 0,0 UV-I 0 W/m 4,1 C 3,8 C 24,1 km/h (4 Bft) 98,08 %
24.09.2018 23:06 9,0 C 17,8 C 8,9 C 72 % 1031,6 hPa 0,0 l/m 18,1 km/h (3 Bft) W-SW 254 0 min 0,000 mm 0,0 UV-I 0 W/m 4,2 C 2,7 C 24,1 km/h (4 Bft) 97,78 %
24.09.2018 23:08 8,9 C 17,8 C 8,3 C 72 % 1031,6 hPa 0,0 l/m 17,3 km/h (3 Bft) W-SW 256 0 min 0,000 mm 0,0 UV-I 0 W/m 4,1 C 2,8 C 25,7 km/h (4 Bft) 97,87 %
24.09.2018 23:10 8,9 C 17,8 C 8,3 C 73 % 1031,6 hPa 0,0 l/m 18,1 km/h (3 Bft) SW 221 0 min 0,000 mm 0,0 UV-I 0 W/m 4,3 C 2,5 C 25,7 km/h (4 Bft) 95,74 %
24.09.2018 23:12 8,9 C 17,8 C 8,3 C 73 % 1031,6 hPa 0,0 l/m 17,6 km/h (3 Bft) SW 225 0 min 0,000 mm 0,0 UV-I 0 W/m 4,3 C 2,7 C 20,9 km/h (4 Bft) 98,00 %
24.09.2018 23:14 8,9 C 17,8 C 8,3 C 73 % 1031,6 hPa 0,0 l/m 13,8 km/h (3 Bft) SW 232 0 min 0,000 mm 0,0 UV-I 0 W/m 4,3 C 4,3 C 22,5 km/h (4 Bft) 95,74 %
24.09.2018 23:16 8,8 C 17,8 C 8,3 C 73 % 1031,6 hPa 0,0 l/m 14,5 km/h (3 Bft) SW 234 0 min 0,000 mm 0,0 UV-I 0 W/m 4,2 C 3,9 C 22,5 km/h (4 Bft) 100,00 %
24.09.2018 23:18 8,8 C 17,8 C 8,3 C 73 % 1031,7 hPa 0,0 l/m 13,9 km/h (3 Bft) W 259 0 min 0,000 mm 0,0 UV-I 0 W/m 4,2 C 4,2 C 20,9 km/h (4 Bft) 100,00 %
24.09.2018 23:20 8,8 C 17,8 C 8,3 C 73 % 1031,7 hPa 0,0 l/m 15,6 km/h (3 Bft) W-SW 243 0 min 0,000 mm 0,0 UV-I 0 W/m 4,2 C 3,4 C 20,9 km/h (4 Bft) 100,00 %
24.09.2018 23:22 8,8 C 17,8 C 8,3 C 73 % 1031,7 hPa 0,0 l/m 14,0 km/h (3 Bft) W-SW 239 0 min 0,000 mm 0,0 UV-I 0 W/m 4,2 C 4,1 C 20,9 km/h (4 Bft) 100,00 %
24.09.2018 23:24 8,8 C 17,8 C 8,3 C 73 % 1031,7 hPa 0,0 l/m 15,4 km/h (3 Bft) SW 222 0 min 0,000 mm 0,0 UV-I 0 W/m 4,2 C 3,5 C 24,1 km/h (4 Bft) 100,00 %
24.09.2018 23:26 8,8 C 17,8 C 8,3 C 73 % 1031,7 hPa 0,0 l/m 14,6 km/h (3 Bft) SW 216 0 min 0,000 mm 0,0 UV-I 0 W/m 4,2 C 3,9 C 24,1 km/h (4 Bft) 100,00 %
24.09.2018 23:28 8,8 C 17,2 C 8,3 C 72 % 1031,7 hPa 0,0 l/m 15,2 km/h (3 Bft) S-SW 205 0 min 0,000 mm 0,0 UV-I 0 W/m 4,0 C 3,6 C 24,1 km/h (4 Bft) 100,00 %
24.09.2018 23:30 8,9 C 17,8 C 8,3 C 72 % 1031,7 hPa 0,0 l/m 14,8 km/h (3 Bft) W-SW 240 0 min 0,000 mm 0,0 UV-I 0 W/m 4,1 C 3,9 C 24,1 km/h (4 Bft) 100,00 %
24.09.2018 23:32 8,9 C 17,8 C 8,3 C 72 % 1031,7 hPa 0,0 l/m 15,1 km/h (3 Bft) W 263 0 min 0,000 mm 0,0 UV-I 0 W/m 4,1 C 3,8 C 22,5 km/h (4 Bft) 97,73 %
24.09.2018 23:34 8,9 C 17,8 C 8,3 C 72 % 1031,7 hPa 0,0 l/m 15,5 km/h (3 Bft) W-SW 239 0 min 0,000 mm 0,0 UV-I 0 W/m 4,1 C 3,6 C 22,5 km/h (4 Bft) 100,00 %
24.09.2018 23:36 8,9 C 17,8 C 8,3 C 72 % 1031,8 hPa 0,0 l/m 15,0 km/h (3 Bft) SW 235 0 min 0,000 mm 0,0 UV-I 0 W/m 4,1 C 3,8 C 20,9 km/h (4 Bft) 97,73 %
24.09.2018 23:38 8,9 C 17,8 C 8,3 C 72 % 1031,8 hPa 0,0 l/m 14,4 km/h (3 Bft) SW 228 0 min 0,000 mm 0,0 UV-I 0 W/m 4,1 C 4,1 C 20,9 km/h (4 Bft) 98,44 %
24.09.2018 23:40 8,8 C 17,8 C 8,3 C 72 % 1031,8 hPa 0,0 l/m 16,1 km/h (3 Bft) W 273 0 min 0,000 mm 0,0 UV-I 0 W/m 4,0 C 3,2 C 22,5 km/h (4 Bft) 100,00 %
24.09.2018 23:42 8,8 C 17,8 C 8,3 C 73 % 1031,9 hPa 0,0 l/m 15,0 km/h (3 Bft) W 267 0 min 0,000 mm 0,0 UV-I 0 W/m 4,2 C 3,7 C 20,9 km/h (4 Bft) 100,00 %
24.09.2018 23:44 8,8 C 17,2 C 7,8 C 73 % 1031,9 hPa 0,0 l/m 13,1 km/h (3 Bft) W-SW 237 0 min 0,000 mm 0,0 UV-I 0 W/m 4,2 C 4,6 C 17,7 km/h (3 Bft) 100,00 %
24.09.2018 23:46 8,7 C 17,2 C 7,8 C 73 % 1031,8 hPa 0,0 l/m 13,7 km/h (3 Bft) W-SW 240 0 min 0,000 mm 0,0 UV-I 0 W/m 4,1 C 4,2 C 20,9 km/h (4 Bft) 100,00 %
24.09.2018 23:48 8,7 C 17,2 C 7,8 C 73 % 1031,8 hPa 0,0 l/m 14,0 km/h (3 Bft) SW 235 0 min 0,000 mm 0,0 UV-I 0 W/m 4,1 C 4,0 C 20,9 km/h (4 Bft) 100,00 %
24.09.2018 23:50 8,6 C 17,2 C 7,8 C 73 % 1031,8 hPa 0,0 l/m 13,5 km/h (3 Bft) SW 230 0 min 0,000 mm 0,0 UV-I 0 W/m 4,0 C 4,1 C 17,7 km/h (3 Bft) 100,00 %
24.09.2018 23:52 8,6 C 17,2 C 7,8 C 73 % 1031,9 hPa 0,0 l/m 15,6 km/h (3 Bft) SW 236 0 min 0,000 mm 0,0 UV-I 0 W/m 4,0 C 3,2 C 20,9 km/h (4 Bft) 100,00 %
24.09.2018 23:54 8,6 C 17,2 C 7,8 C 74 % 1031,9 hPa 0,0 l/m 14,9 km/h (3 Bft) SW 229 0 min 0,000 mm 0,0 UV-I 0 W/m 4,2 C 3,5 C 20,9 km/h (4 Bft) 98,11 %
24.09.2018 23:56 8,5 C 17,2 C 7,8 C 74 % 1031,9 hPa 0,0 l/m 13,3 km/h (3 Bft) W-SW 250 0 min 0,000 mm 0,0 UV-I 0 W/m 4,1 C 4,1 C 19,3 km/h (3 Bft) 97,87 %
24.09.2018 23:58 8,5 C 17,2 C 7,8 C 74 % 1031,9 hPa 0,0 l/m 14,9 km/h (3 Bft) SW 229 0 min 0,000 mm 0,0 UV-I 0 W/m 4,1 C 3,4 C 19,3 km/h (3 Bft) 97,37 %
_ Min-Zeit 21:26 23:28 21:24 15:56 00:16 - 19:26 - - - - - - 17:52 09:38 19:20 22:52
Minimum _ 8,3 C 17,2 C 6,7 C 53 % 1011,8 hPa - 4,7 km/h (1 Bft) - - - - - - 2,9 C -0,5 C 8,0 km/h (2 Bft) 87,80 %
_ Max-Zeit 00:08 00:00 13:59 00:00 23:42 00:50 01:42 - - 13:59 14:02 13:28 11:24 00:02 17:10 01:08 00:00
Maximum _ 14,4 C 19,4 C 21,1 C 92 % 1031,9 hPa 0,2 l/m 35,6 km/h
NW (5 Bft)
- - 3 min 0,381 mm 3,2 UV-I 832 W/m 13,0 C 12,0 C 64,4 km/h
W-SW (8 Bft)
100,00 %
Durchschnitt _ 10,7 C 18,5 C 11,3 C 73 % 1025,3 hPa #1,4 l/m 16,1 km/h (3 Bft) W - #4:48 h #2,591 mm 1,5 UV-I 259 W/m 5,9 C 5,9 C 26,2 km/h (4 Bft) 97,53 %